[[{"header":{"parameterUnit":"m.s-1","parameterCategory":1,"la1":31.0,"la2":29.5877,"lo1":-88.7671,"lo2":-86.6584,"dy":0.0162,"dx":0.0185,"nx":115,"ny":88,"refTime":"2023-03-03T18:00:00:Z","depth":0,"parameterNumber":2,"parameterNumberName":"U-component_of_WINDS"},"data":[0.0,0.0,0.0,0.0,0.0,0.0,0.0,0.0,0.0,0.0,0.0,0.0,0.0,0.0,0.0,0.0,0.0,0.0,0.0,0.0,0.0,0.0,0.0,0.0,0.0,0.0,0.0,0.0,0.0,0.0,0.0,0.0,0.0,0.0,0.0,0.0,0.0,0.0,0.0,0.0,0.0,0.0,0.0,0.0,0.0,0.0,0.0,0.0,0.0,0.0,0.0,0.0,0.0,0.0,0.0,0.0,0.0,0.0,0.0,0.0,0.0,0.0,0.0,0.0,0.0,0.0,0.0,0.0,0.0,0.0,0.0,0.0,0.0,0.0,0.0,0.0,0.0,0.0,0.0,0.0,0.0,0.0,0.0,0.0,0.0,0.0,0.0,0.0,0.0,0.0,0.0,0.0,0.0,0.0,0.0,0.0,0.0,0.0,0.0,0.0,0.0,0.0,0.0,0.0,0.0,0.0,0.0,0.0,0.0,0.0,0.0,0.0,0.0,0.0,0.0,0.0,0.0,0.0,0.0,0.0,0.0,0.0,0.0,0.0,0.0,0.0,0.0,0.0,0.0,0.0,0.0,0.0,0.0,0.0,0.0,0.0,0.0,0.0,0.0,0.0,0.0,0.0,0.0,0.0,0.0,0.0,0.0,0.0,0.0,0.0,0.0,0.0,0.0,0.0,0.0,0.0,0.0,0.0,0.0,0.0,0.0,0.0,0.0,0.0,0.0,0.0,0.0,0.0,0.0,0.0,0.0,0.0,0.0,0.0,0.0,0.0,0.0,0.0,0.0,0.0,0.0,0.0,0.0,0.0,0.0,0.0,0.0,0.0,0.0,0.0,0.0,0.0,0.0,0.0,0.0,0.0,0.0,0.0,0.0,0.0,0.0,0.0,0.0,0.0,0.0,0.0,0.0,0.0,0.0,0.0,0.0,0.0,0.0,0.0,0.0,0.0,0.0,0.0,0.0,0.0,0.0,0.0,0.0,0.0,0.0,0.0,0.0,0.0,0.0,0.0,0.0,0.0,0.0,0.0,0.0,0.0,0.0,0.0,0.0,0.0,0.0,0.0,0.0,0.0,0.0,0.0,0.0,0.0,0.0,0.0,0.0,0.0,0.0,0.0,0.0,0.0,0.0,0.0,0.0,0.0,0.0,0.0,0.0,0.0,0.0,0.0,0.0,0.0,0.0,0.0,0.0,0.0,0.0,0.0,0.0,0.0,0.0,0.0,0.0,0.0,0.0,0.0,0.0,0.0,0.0,0.0,0.0,0.0,0.0,0.0,0.0,0.0,0.0,0.0,0.0,0.0,0.0,0.0,0.0,0.0,0.0,0.0,0.0,0.0,0.0,0.0,0.0,0.0,0.0,0.0,0.0,0.0,0.0,0.0,0.0,0.0,0.0,0.0,0.0,0.0,0.0,0.0,0.0,0.0,0.0,0.0,0.0,0.0,0.0,0.0,0.0,0.0,0.0,0.0,0.0,0.0,0.0,0.0,0.0,0.0,0.0,0.0,0.0,0.0,0.0,0.0,0.0,0.0,0.0,0.0,0.0,0.0,0.0,0.0,0.0,0.0,0.0,0.0,0.0,0.0,0.0,0.0,0.0,0.0,0.0,0.0,0.0,0.0,0.0,0.0,0.0,0.0,0.0,0.0,0.0,0.0,0.0,0.0,0.0,0.0,0.0,0.0,0.0,0.0,0.0,0.0,0.0,0.0,0.0,0.0,0.0,0.0,0.0,0.0,0.0,0.0,0.0,0.0,0.0,0.0,0.0,0.0,0.0,0.0,0.0,0.0,0.0,0.0,0.0,0.0,0.0,0.0,0.0,0.0,0.0,0.0,0.0,0.0,0.0,0.0,0.0,0.0,0.0,0.0,0.0,0.0,0.0,0.0,0.0,0.0,0.0,0.0,0.0,0.0,0.0,0.0,0.0,0.0,0.0,0.0,0.0,0.0,0.0,0.0,0.0,0.0,0.0,0.0,0.0,0.0,0.0,0.0,0.0,0.0,0.0,0.0,0.0,0.0,0.0,0.0,0.0,0.0,0.0,0.0,0.0,0.0,0.0,0.0,0.0,0.0,0.0,0.0,0.0,0.0,0.0,0.0,0.0,0.0,0.0,0.0,0.0,0.0,0.0,0.0,0.0,0.0,0.0,0.0,0.0,0.0,0.0,0.0,0.0,0.0,0.0,0.0,0.0,0.0,0.0,0.0,0.0,0.0,0.0,0.0,0.0,0.0,0.0,0.0,0.0,0.0,0.0,0.0,0.0,0.0,0.0,0.0,0.0,0.0,0.0,0.0,0.0,0.0,0.0,0.0,0.0,0.0,0.0,0.0,0.0,0.0,0.0,0.0,0.0,0.0,0.0,0.0,0.0,0.0,0.0,0.0,0.0,0.0,0.0,0.0,0.0,0.0,0.0,0.0,0.0,0.0,0.0,0.0,0.0,0.0,0.0,0.0,0.0,0.0,0.0,0.0,0.0,0.0,0.0,0.0,0.0,0.0,0.0,0.0,0.0,0.0,0.0,0.0,0.0,0.0,0.0,0.0,0.0,0.0,0.0,0.0,0.0,0.0,0.0,0.0,0.0,0.0,0.0,0.0,0.0,0.0,0.0,0.0,0.0,0.0,0.0,0.0,0.0,0.0,0.0,0.0,0.0,0.0,0.0,0.0,0.0,0.0,0.0,0.0,0.0,0.0,0.0,0.0,0.0,0.0,0.0,0.0,0.0,0.0,0.0,0.0,0.0,0.0,0.0,0.0,0.0,0.0,0.0,0.0,0.0,0.0,0.0,0.0,0.0,0.0,0.0,0.0,0.0,0.0,0.0,0.0,0.0,0.0,0.0,0.0,0.0,0.0,0.0,0.0,0.0,0.0,0.0,0.0,0.0,0.0,0.0,0.0,0.0,0.0,0.0,0.0,0.0,0.0,0.0,0.0,0.0,0.0,0.0,0.0,0.0,0.0,0.0,0.0,0.0,0.0,0.0,0.0,0.0,0.0,0.0,0.0,0.0,0.0,0.0,0.0,0.0,0.0,0.0,0.0,0.0,0.0,0.0,0.0,0.0,0.0,0.0,0.0,0.0,0.0,0.0,0.0,0.0,0.0,0.0,0.0,0.0,0.0,0.0,0.0,0.0,0.0,0.0,0.0,0.0,0.0,0.0,0.0,0.0,0.0,0.0,0.0,0.0,0.0,0.0,0.0,0.0,0.0,0.0,0.0,0.0,0.0,0.0,0.0,0.0,0.0,0.0,0.0,0.0,0.0,0.0,0.0,0.0,0.0,0.0,0.0,0.0,0.0,0.0,0.0,0.0,0.0,0.0,0.0,0.0,0.0,0.0,0.0,0.0,0.0,0.0,0.0,0.0,0.0,0.0,0.0,0.0,0.0,0.0,0.0,0.0,0.0,0.0,0.0,0.0,0.0,0.0,0.0,0.0,0.0,0.0,0.0,0.0,0.0,0.0,0.0,0.0,0.0,0.0,0.0,0.0,0.0,0.0,0.0,0.0,0.0,0.0,0.0,0.0,0.0,0.0,0.0,0.0,0.0,0.0,0.0,0.0,0.0,0.0,0.0,0.0,0.0,0.0,0.0,0.0,0.0,0.0,0.0,0.0,0.0,0.0,0.0,0.0,0.0,0.0,0.0,0.0,0.0,0.0,0.0,0.0,0.0,0.0,0.0,0.0,0.0,0.0,0.0,0.0,0.0,0.0,0.0,0.0,0.0,0.0,0.0,0.0,0.0,0.0,0.0,0.0,0.0,0.0,0.0,0.0,0.0,0.0,0.0,0.0,0.0,0.0,0.0,0.0,0.0,0.0,0.0,0.0,0.0,0.0,0.0,0.0,0.0,0.0,0.0,0.0,0.0,0.0,0.0,0.0,0.0,0.0,0.0,0.0,0.0,0.0,0.0,0.0,0.0,0.0,0.0,0.0,0.0,0.0,0.0,0.0,0.0,0.0,0.0,0.0,0.0,0.0,0.0,0.0,0.0,0.0,0.0,0.0,0.0,0.0,0.0,0.0,0.0,0.0,0.0,0.0,0.0,0.0,0.0,0.0,0.0,0.0,0.0,0.0,0.0,0.0,0.0,0.0,0.0,0.0,0.0,0.0,0.0,0.0,0.0,0.0,0.0,0.0,0.0,0.0,0.0,0.0,0.0,0.0,0.0,0.0,0.0,0.0,0.0,0.0,0.0,0.0,0.0,0.0,0.0,0.0,0.0,0.0,0.0,0.0,0.0,0.0,0.0,0.0,0.0,0.0,0.0,0.0,0.0,2.474,0.0,0.0,0.0,0.0,0.0,0.0,0.0,0.0,0.0,0.0,0.0,0.0,0.0,0.0,0.0,0.0,0.0,0.0,0.0,0.0,0.0,0.0,0.0,0.0,0.0,0.0,0.0,0.0,0.0,0.0,0.0,0.0,0.0,0.0,0.0,0.0,0.0,0.0,0.0,0.0,0.0,0.0,0.0,0.0,0.0,0.0,0.0,0.0,0.0,0.0,0.0,0.0,0.0,0.0,0.0,0.0,0.0,0.0,0.0,0.0,0.0,0.0,0.0,0.0,0.0,0.0,0.0,0.0,0.0,0.0,0.0,0.0,0.0,0.0,0.0,0.0,0.0,0.0,0.0,0.0,0.0,0.0,0.0,0.0,0.0,0.0,0.0,0.0,0.0,0.0,0.0,0.0,0.0,0.0,0.0,0.0,0.0,0.0,0.0,0.0,0.0,0.0,0.0,0.0,0.0,0.0,0.0,0.0,0.0,0.0,2.3422,2.5077,2.2628,2.2473,2.4998,0.0,0.0,0.0,0.0,0.0,0.0,0.0,0.0,0.0,0.0,0.0,0.0,0.0,0.0,0.0,0.0,0.0,0.0,0.0,0.0,0.0,0.0,0.0,0.0,0.0,0.0,0.0,0.0,0.0,0.0,0.0,0.0,0.0,0.0,0.0,0.0,0.0,0.0,0.0,0.0,0.0,0.0,0.0,0.0,0.0,0.0,0.0,0.0,0.0,0.0,0.0,0.0,0.0,0.0,0.0,0.0,0.0,0.0,0.0,0.0,0.0,0.0,0.0,0.0,0.0,0.0,0.0,0.0,0.0,0.0,0.0,0.0,0.0,0.0,0.0,0.0,0.0,0.0,0.0,0.0,0.0,0.0,0.0,0.0,0.0,0.0,0.0,0.0,0.0,0.0,0.0,0.0,0.0,0.0,0.0,0.0,0.0,0.0,0.0,0.0,0.0,0.0,0.0,0.0,0.0,0.0,0.0,0.0,0.0,0.0,0.0,0.0,2.2626,2.2429,2.4886,0.0,0.0,0.0,0.0,0.0,0.0,0.0,0.0,0.0,0.0,0.0,0.0,0.0,0.0,0.0,0.0,0.0,0.0,0.0,0.0,0.0,0.0,0.0,0.0,0.0,0.0,0.0,0.0,0.0,0.0,0.0,0.0,0.0,0.0,0.0,0.0,0.0,0.0,0.0,0.0,0.0,0.0,0.0,0.0,0.0,0.0,0.0,0.0,0.0,0.0,0.0,0.0,0.0,0.0,0.0,0.0,0.0,0.0,0.0,0.0,0.0,0.0,0.0,0.0,0.0,0.0,0.0,0.0,0.0,0.0,0.0,0.0,0.0,0.0,0.0,0.0,0.0,0.0,0.0,0.0,0.0,0.0,0.0,0.0,0.0,0.0,0.0,0.0,0.0,0.0,0.0,0.0,0.0,0.0,0.0,0.0,0.0,0.0,0.0,0.0,0.0,0.0,0.0,0.0,0.0,0.0,0.0,0.0,0.0,0.0,2.5038,2.5191,2.4885,0.0,2.4929,0.0,0.0,0.0,0.0,0.0,0.0,0.0,0.0,0.0,0.0,0.0,0.0,0.0,0.0,0.0,0.0,0.0,0.0,0.0,0.0,0.0,0.0,0.0,0.0,0.0,0.0,0.0,0.0,0.0,0.0,0.0,0.0,0.0,0.0,0.0,0.0,0.0,0.0,0.0,0.0,0.0,0.0,0.0,0.0,0.0,0.0,0.0,0.0,0.0,0.0,0.0,0.0,0.0,0.0,0.0,0.0,0.0,0.0,0.0,0.0,0.0,0.0,0.0,0.0,0.0,0.0,0.0,0.0,0.0,0.0,0.0,0.0,0.0,0.0,0.0,0.0,0.0,0.0,0.0,0.0,0.0,0.0,0.0,0.0,0.0,0.0,0.0,0.0,0.0,0.0,0.0,0.0,0.0,0.0,0.0,0.0,0.0,0.0,0.0,0.0,0.0,0.0,0.0,0.0,0.0,0.0,0.0,0.0,0.0,0.0,2.521,2.521,2.5163,2.5063,0.0,0.0,0.0,0.0,0.0,0.0,0.0,0.0,0.0,0.0,0.0,0.0,0.0,0.0,0.0,0.0,0.0,0.0,0.0,0.0,0.0,0.0,0.0,0.0,0.0,0.0,0.0,0.0,0.0,0.0,0.0,0.0,0.0,0.0,0.0,0.0,0.0,0.0,0.0,0.0,0.0,0.0,0.0,0.0,0.0,0.0,0.0,0.0,0.0,0.0,0.0,0.0,0.0,0.0,0.0,0.0,0.0,0.0,0.0,0.0,0.0,0.0,0.0,0.0,0.0,0.0,0.0,0.0,0.0,0.0,0.0,0.0,0.0,0.0,0.0,0.0,0.0,0.0,0.0,0.0,0.0,0.0,0.0,0.0,0.0,0.0,0.0,0.0,0.0,0.0,0.0,0.0,0.0,0.0,0.0,0.0,0.0,0.0,0.0,0.0,0.0,0.0,0.0,0.0,0.0,0.0,0.0,0.0,0.0,0.0,2.521,2.521,2.521,2.5139,2.5044,2.4902,0.0,0.0,0.0,0.0,0.0,0.0,0.0,0.0,0.0,0.0,0.0,0.0,0.0,0.0,0.0,0.0,0.0,0.0,0.0,0.0,0.0,0.0,0.0,0.0,0.0,0.0,0.0,0.0,0.0,0.0,0.0,0.0,0.0,0.0,0.0,0.0,0.0,0.0,0.0,0.0,0.0,0.0,0.0,0.0,0.0,0.0,0.0,0.0,0.0,0.0,0.0,0.0,0.0,0.0,0.0,0.0,0.0,0.0,0.0,0.0,0.0,0.0,0.0,0.0,0.0,0.0,0.0,0.0,0.0,0.0,0.0,0.0,0.0,0.0,0.0,0.0,0.0,0.0,0.0,0.0,0.0,0.0,0.0,0.0,0.0,0.0,0.0,0.0,0.0,0.0,0.0,0.0,0.0,0.0,0.0,0.0,0.0,0.0,0.0,0.0,0.0,0.0,0.0,0.0,0.0,0.0,0.0,0.0,2.521,2.521,2.521,2.5191,2.5139,2.5038,0.0,0.0,0.0,0.0,0.0,0.0,0.0,0.0,0.0,0.0,0.0,0.0,0.0,0.0,0.0,0.0,0.0,0.0,0.0,0.0,0.0,0.0,0.0,0.0,0.0,0.0,0.0,0.0,0.0,0.0,0.0,0.0,0.0,0.0,0.0,0.0,0.0,0.0,0.0,0.0,0.0,0.0,0.0,0.0,0.0,0.0,0.0,0.0,0.0,0.0,0.0,0.0,0.0,0.0,0.0,0.0,0.0,0.0,0.0,0.0,0.0,0.0,0.0,0.0,0.0,0.0,0.0,0.0,0.0,0.0,0.0,0.0,0.0,0.0,0.0,0.0,0.0,0.0,0.0,0.0,0.0,0.0,0.0,0.0,0.0,0.0,0.0,0.0,0.0,0.0,0.0,0.0,0.0,0.0,0.0,0.0,0.0,0.0,0.0,0.0,0.0,0.0,0.0,0.0,0.0,0.0,0.0,0.0,0.0,2.521,2.521,2.4943,2.4415,2.4834,2.4797,0.0,0.0,0.0,0.0,0.0,0.0,0.0,0.0,0.0,0.0,0.0,0.0,0.0,0.0,0.0,0.0,0.0,0.0,0.0,0.0,0.0,0.0,0.0,0.0,0.0,0.0,0.0,0.0,0.0,0.0,0.0,0.0,0.0,0.0,0.0,0.0,0.0,0.0,0.0,0.0,0.0,0.0,0.0,0.0,0.0,0.0,0.0,0.0,0.0,0.0,0.0,0.0,0.0,0.0,0.0,0.0,0.0,0.0,0.0,0.0,0.0,0.0,0.0,0.0,0.0,0.0,0.0,0.0,0.0,0.0,0.0,0.0,0.0,0.0,0.0,0.0,0.0,0.0,0.0,0.0,0.0,0.0,0.0,0.0,0.0,0.0,0.0,0.0,0.0,0.0,0.0,0.0,0.0,0.0,0.0,0.0,0.0,0.0,0.0,0.0,0.0,0.0,0.0,0.0,0.0,0.0,0.0,0.0,0.0,2.4778,0.0,2.4205,2.3946,2.439,2.4467,0.0,0.0,0.0,0.0,0.0,0.0,0.0,0.0,0.0,0.0,0.0,0.0,0.0,0.0,0.0,0.0,0.0,0.0,0.0,0.0,0.0,0.0,0.0,0.0,0.0,0.0,0.0,0.0,0.0,0.0,0.0,0.0,0.0,0.0,0.0,0.0,0.0,0.0,0.0,0.0,0.0,0.0,0.0,0.0,0.0,0.0,0.0,0.0,0.0,0.0,0.0,0.0,0.0,0.0,0.0,0.0,0.0,0.0,0.0,0.0,0.0,0.0,0.0,0.0,0.0,0.0,0.0,0.0,0.0,0.0,0.0,0.0,0.0,0.0,0.0,0.0,0.0,0.0,0.0,0.0,0.0,0.0,0.0,0.0,0.0,0.0,0.0,0.0,0.0,0.0,0.0,0.0,0.0,0.0,0.0,0.0,0.0,0.0,0.0,0.0,0.0,0.0,0.0,0.0,0.0,0.0,0.0,0.0,2.4759,2.3957,2.3116,2.3086,2.385,2.3758,2.4022,0.0,0.0,0.0,0.0,0.0,0.0,0.0,0.0,0.0,0.0,0.0,0.0,0.0,0.0,0.0,0.0,0.0,0.0,0.0,0.0,0.0,0.0,0.0,0.0,0.0,0.0,0.0,0.0,0.0,0.0,0.0,0.0,0.0,0.0,0.0,0.0,0.0,0.0,0.0,0.0,0.0,0.0,0.0,0.0,0.0,0.0,0.0,0.0,0.0,0.0,0.0,0.0,0.0,0.0,0.0,0.0,0.0,0.0,0.0,0.0,0.0,0.0,0.0,0.0,0.0,0.0,0.0,0.0,0.0,0.0,0.0,0.0,0.0,0.0,0.0,0.0,0.0,0.0,0.0,0.0,0.0,0.0,0.0,0.0,0.0,0.0,0.0,0.0,0.0,0.0,0.0,0.0,0.0,0.0,0.0,0.0,0.0,0.0,0.0,0.0,0.0,0.0,0.0,0.0,0.0,0.0,0.0,0.0,0.0,2.4759,2.3279,2.2847,2.3626,2.2929,2.2873,0.0,0.0,0.0,0.0,0.0,0.0,0.0,0.0,0.0,0.0,0.0,0.0,0.0,0.0,0.0,0.0,0.0,0.0,0.0,0.0,0.0,0.0,0.0,0.0,0.0,0.0,0.0,0.0,0.0,0.0,0.0,0.0,0.0,0.0,0.0,0.0,0.0,0.0,0.0,0.0,0.0,0.0,0.0,0.0,0.0,0.0,0.0,0.0,0.0,0.0,0.0,0.0,0.0,0.0,0.0,0.0,0.0,0.0,0.0,0.0,0.0,0.0,0.0,0.0,0.0,0.0,0.0,0.0,0.0,0.0,0.0,0.0,0.0,0.0,0.0,0.0,0.0,0.0,0.0,0.0,0.0,0.0,0.0,0.0,0.0,0.0,0.0,0.0,0.0,0.0,0.0,0.0,0.0,0.0,0.0,0.0,0.0,0.0,0.0,0.0,0.0,0.0,0.0,0.0,0.0,0.0,0.0,0.0,0.0,2.5836,2.3549,2.2531,2.3037,2.2701,2.2694,2.3061,0.0,0.0,0.0,0.0,0.0,0.0,0.0,0.0,0.0,0.0,0.0,0.0,0.0,0.0,0.0,0.0,0.0,0.0,0.0,0.0,0.0,0.0,0.0,0.0,0.0,0.0,0.0,0.0,0.0,0.0,0.0,0.0,0.0,0.0,0.0,0.0,0.0,0.0,0.0,0.0,0.0,0.0,0.0,0.0,0.0,0.0,0.0,0.0,0.0,0.0,0.0,0.0,0.0,0.0,0.0,0.0,0.0,0.0,0.0,0.0,0.0,0.0,0.0,0.0,0.0,0.0,0.0,0.0,0.0,0.0,0.0,0.0,0.0,0.0,0.0,0.0,0.0,0.0,0.0,0.0,0.0,0.0,0.0,0.0,0.0,0.0,0.0,0.0,0.0,0.0,0.0,0.0,0.0,0.0,0.0,0.0,0.0,0.0,0.0,0.0,0.0,0.0,0.0,0.0,0.0,0.0,0.0,0.0,2.71,2.4027,2.2417,2.2339,2.2921,2.3194,0.0,0.0,0.0,0.0,0.0,0.0,0.0,0.0,0.0,0.0,0.0,0.0,0.0,0.0,0.0,0.0,0.0,0.0,0.0,0.0,0.0,0.0,0.0,0.0,0.0,0.0,0.0,0.0,0.0,0.0,0.0,0.0,0.0,0.0,0.0,0.0,0.0,0.0,0.0,0.0,0.0,0.0,0.0,0.0,0.0,0.0,0.0,0.0,0.0,0.0,0.0,0.0,0.0,0.0,0.0,0.0,0.0,0.0,0.0,0.0,0.0,0.0,0.0,0.0,0.0,0.0,0.0,0.0,0.0,0.0,0.0,0.0,0.0,0.0,0.0,0.0,0.0,0.0,0.0,0.0,0.0,0.0,0.0,0.0,0.0,0.0,0.0,0.0,0.0,0.0,0.0,0.0,0.0,0.0,0.0,0.0,0.0,0.0,0.0,0.0,0.0,0.0,0.0,0.0,0.0,0.0,0.0,0.0,0.0,2.5967,2.6033,2.5583,2.4543,2.2795,2.2191,0.0,0.0,0.0,0.0,0.0,0.0,0.0,0.0,0.0,0.0,0.0,0.0,0.0,0.0,0.0,0.0,0.0,0.0,0.0,0.0,0.0,0.0,0.0,0.0,0.0,0.0,0.0,0.0,0.0,0.0,0.0,0.0,0.0,0.0,0.0,0.0,0.0,0.0,0.0,0.0,0.0,0.0,0.0,0.0,0.0,0.0,0.0,0.0,0.0,0.0,0.0,0.0,0.0,0.0,0.0,0.0,0.0,0.0,0.0,0.0,0.0,0.0,0.0,0.0,0.0,0.0,0.0,0.0,0.0,0.0,0.0,0.0,0.0,0.0,0.0,0.0,0.0,0.0,0.0,0.0,0.0,0.0,0.0,0.0,0.0,0.0,0.0,0.0,0.0,0.0,0.0,0.0,0.0,0.0,0.0,0.0,0.0,0.0,0.0,0.0,0.0,0.0,0.0,0.0,0.0,0.0,0.0,0.0,2.7641,2.7059,2.7652,2.7404,2.6286,2.4153,2.2854,0.0,0.0,0.0,0.0,0.0,0.0,0.0,0.0,0.0,0.0,0.0,0.0,0.0,0.0,0.0,0.0,0.0,0.0,0.0,0.0,0.0,0.0,0.0,0.0,0.0,0.0,0.0,0.0,0.0,0.0,0.0,0.0,0.0,0.0,0.0,0.0,0.0,0.0,0.0,0.0,0.0,0.0,0.0,0.0,0.0,0.0,0.0,0.0,0.0,0.0,0.0,0.0,0.0,0.0,0.0,0.0,0.0,0.0,0.0,0.0,0.0,0.0,0.0,0.0,0.0,0.0,0.0,0.0,0.0,0.0,0.0,0.0,0.0,0.0,0.0,0.0,0.0,0.0,0.0,0.0,0.0,0.0,0.0,0.0,0.0,0.0,0.0,0.0,0.0,0.0,0.0,0.0,0.0,0.0,0.0,0.0,0.0,0.0,0.0,0.0,0.0,0.0,0.0,0.0,0.0,0.0,0.0,0.0,2.9103,2.9077,2.8973,2.8481,2.7532,2.5976,2.4254,0.0,0.0,0.0,0.0,0.0,0.0,0.0,0.0,0.0,0.0,0.0,0.0,0.0,0.0,0.0,0.0,0.0,0.0,0.0,0.0,0.0,0.0,0.0,0.0,0.0,0.0,0.0,0.0,0.0,0.0,0.0,0.0,0.0,0.0,0.0,0.0,0.0,0.0,0.0,0.0,0.0,0.0,0.0,0.0,0.0,0.0,0.0,0.0,0.0,0.0,0.0,0.0,0.0,0.0,0.0,0.0,0.0,0.0,0.0,0.0,0.0,0.0,0.0,0.0,0.0,0.0,0.0,0.0,0.0,0.0,0.0,0.0,0.0,0.0,0.0,0.0,0.0,0.0,0.0,0.0,0.0,0.0,0.0,0.0,0.0,0.0,0.0,0.0,0.0,0.0,0.0,0.0,0.0,0.0,0.0,0.0,0.0,0.0,0.0,0.0,0.0,0.0,0.0,0.0,0.0,0.0,0.0,0.0,2.8369,2.8364,3.0042,3.0167,2.8446,2.5461,2.3487,0.0,0.0,0.0,0.0,0.0,0.0,0.0,0.0,0.0,0.0,0.0,0.0,0.0,0.0,0.0,0.0,0.0,0.0,0.0,0.0,0.0,0.0,0.0,0.0,0.0,0.0,0.0,0.0,0.0,0.0,0.0,0.0,0.0,0.0,0.0,0.0,0.0,0.0,0.0,0.0,0.0,0.0,0.0,0.0,0.0,0.0,0.0,0.0,2.7,0.0,0.0,0.0,0.0,0.0,0.0,0.0,0.0,0.0,0.0,0.0,0.0,0.0,0.0,0.0,0.0,0.0,0.0,0.0,0.0,0.0,0.0,0.0,0.0,0.0,0.0,0.0,0.0,0.0,0.0,0.0,0.0,0.0,0.0,0.0,0.0,0.0,0.0,0.0,0.0,0.0,0.0,0.0,0.0,0.0,0.0,0.0,0.0,0.0,0.0,0.0,0.0,0.0,0.0,0.0,0.0,0.0,0.0,0.0,2.8332,2.8739,3.0206,3.012,2.8269,2.5284,2.3426,0.0,0.0,0.0,0.0,0.0,0.0,0.0,0.0,0.0,0.0,0.0,0.0,0.0,0.0,0.0,0.0,0.0,0.0,0.0,0.0,0.0,0.0,0.0,0.0,0.0,0.0,0.0,0.0,0.0,0.0,0.0,0.0,0.0,0.0,0.0,0.0,0.0,0.0,0.0,0.0,0.0,0.0,0.0,0.0,0.0,0.0,0.0,0.0,0.0,0.0,0.0,0.0,0.0,0.0,0.0,0.0,0.0,0.0,0.0,0.0,0.0,0.0,0.0,0.0,0.0,0.0,0.0,0.0,0.0,0.0,0.0,0.0,0.0,0.0,0.0,0.0,0.0,0.0,0.0,0.0,0.0,0.0,0.0,0.0,0.0,0.0,0.0,0.0,0.0,0.0,0.0,0.0,0.0,0.0,0.0,0.0,0.0,0.0,0.0,0.0,0.0,0.0,0.0,0.0,0.0,0.0,0.0,2.725,2.8369,2.9226,2.9882,2.9418,2.7859,2.5152,2.366,2.3572,0.0,0.0,0.0,0.0,0.0,0.0,0.0,0.0,0.0,0.0,0.0,0.0,0.0,0.0,0.0,0.0,0.0,0.0,0.0,0.0,0.0,0.0,0.0,0.0,0.0,0.0,0.0,0.0,0.0,0.0,0.0,0.0,0.0,0.0,0.0,0.0,0.0,0.0,2.5396,2.6969,0.0,0.0,0.0,0.0,0.0,0.0,0.0,0.0,2.8815,0.0,0.0,0.0,0.0,0.0,0.0,0.0,0.0,0.0,0.0,0.0,0.0,0.0,0.0,0.0,0.0,0.0,0.0,0.0,0.0,0.0,0.0,0.0,0.0,0.0,0.0,0.0,0.0,0.0,0.0,0.0,0.0,0.0,0.0,0.0,0.0,0.0,0.0,0.0,0.0,0.0,0.0,0.0,0.0,0.0,0.0,0.0,0.0,0.0,0.0,0.0,0.0,0.0,0.0,0.0,0.0,2.4929,2.6512,2.7734,2.8558,2.9307,2.9172,2.7948,2.4874,2.3673,2.457,0.0,0.0,0.0,0.0,0.0,0.0,0.0,0.0,0.0,0.0,0.0,0.0,0.0,0.0,0.0,0.0,0.0,0.0,0.0,0.0,0.0,0.0,0.0,0.0,0.0,0.0,0.0,0.0,0.0,0.0,0.0,0.0,0.0,0.0,0.0,0.0,0.0,0.0,0.0,2.7012,2.8428,0.0,0.0,0.0,0.0,0.0,0.0,0.0,0.0,2.8493,0.0,0.0,0.0,0.0,0.0,0.0,0.0,0.0,0.0,0.0,0.0,0.0,0.0,0.0,0.0,0.0,0.0,0.0,0.0,0.0,0.0,0.0,0.0,0.0,0.0,0.0,0.0,0.0,0.0,0.0,0.0,0.0,0.0,0.0,0.0,0.0,0.0,0.0,0.0,0.0,0.0,0.0,0.0,0.0,0.0,0.0,0.0,0.0,0.0,0.0,0.0,0.0,0.0,0.0,0.0,2.6088,2.6825,2.7599,2.8369,2.8764,2.8297,2.6879,2.482,2.4229,0.0,0.0,0.0,0.0,0.0,0.0,0.0,0.0,0.0,0.0,0.0,0.0,0.0,0.0,0.0,0.0,0.0,0.0,0.0,0.0,0.0,0.0,0.0,0.0,0.0,0.0,0.0,0.0,0.0,0.0,0.0,0.0,0.0,0.0,0.0,0.0,0.0,0.0,0.0,0.0,2.7675,2.8783,2.873,0.0,0.0,0.0,0.0,0.0,0.0,3.0341,3.0044,0.0,0.0,0.0,0.0,0.0,0.0,0.0,0.0,0.0,0.0,0.0,0.0,0.0,0.0,0.0,0.0,0.0,0.0,0.0,0.0,0.0,0.0,0.0,0.0,0.0,0.0,0.0,0.0,0.0,0.0,0.0,0.0,0.0,0.0,0.0,0.0,0.0,0.0,0.0,0.0,0.0,0.0,0.0,0.0,0.0,0.0,0.0,0.0,0.0,0.0,0.0,0.0,0.0,0.0,0.0,2.7085,2.7191,2.7505,2.8108,2.8128,2.7306,2.5571,2.4429,2.443,0.0,0.0,0.0,0.0,0.0,0.0,0.0,0.0,0.0,0.0,0.0,0.0,0.0,0.0,0.0,0.0,0.0,0.0,0.0,0.0,0.0,0.0,0.0,0.0,0.0,0.0,0.0,0.0,0.0,0.0,0.0,0.0,0.0,0.0,0.0,0.0,0.0,0.0,0.0,0.0,0.0,2.9236,2.872,3.0491,0.0,0.0,0.0,0.0,3.1669,3.1777,0.0,0.0,0.0,0.0,0.0,0.0,0.0,0.0,0.0,0.0,0.0,0.0,0.0,0.0,0.0,0.0,0.0,0.0,0.0,0.0,0.0,0.0,0.0,0.0,0.0,0.0,0.0,0.0,0.0,0.0,0.0,0.0,0.0,0.0,0.0,0.0,0.0,0.0,0.0,0.0,0.0,0.0,0.0,0.0,0.0,0.0,0.0,0.0,0.0,0.0,0.0,0.0,0.0,0.0,0.0,0.0,2.6242,2.6934,2.729,2.7232,2.7196,2.6338,2.4698,2.3124,2.3351,0.0,0.0,0.0,0.0,0.0,0.0,0.0,0.0,0.0,0.0,0.0,0.0,0.0,0.0,0.0,0.0,0.0,0.0,0.0,0.0,0.0,0.0,0.0,0.0,0.0,0.0,0.0,0.0,0.0,0.0,0.0,0.0,0.0,0.0,0.0,0.0,0.0,0.0,0.0,0.0,0.0,2.9718,3.0305,3.1255,3.1884,0.0,0.0,3.165,3.0866,3.1332,0.0,0.0,0.0,0.0,0.0,0.0,0.0,0.0,0.0,0.0,0.0,0.0,0.0,0.0,0.0,0.0,0.0,0.0,0.0,0.0,0.0,0.0,0.0,0.0,0.0,0.0,0.0,0.0,0.0,0.0,0.0,0.0,0.0,0.0,0.0,0.0,0.0,0.0,0.0,0.0,0.0,0.0,0.0,0.0,0.0,0.0,0.0,0.0,0.0,0.0,0.0,0.0,0.0,0.0,0.0,2.5617,2.6222,2.6923,2.6989,2.6392,2.6767,2.5966,2.3878,2.3167,2.3739,0.0,0.0,0.0,0.0,0.0,0.0,0.0,0.0,0.0,0.0,0.0,0.0,0.0,0.0,0.0,0.0,0.0,0.0,0.0,0.0,0.0,0.0,0.0,0.0,0.0,0.0,0.0,0.0,0.0,0.0,0.0,0.0,0.0,0.0,0.0,0.0,0.0,0.0,0.0,0.0,0.0,0.0,3.0652,3.1803,0.0,0.0,0.0,3.3209,3.2803,0.0,0.0,0.0,0.0,0.0,0.0,0.0,0.0,0.0,0.0,0.0,0.0,0.0,0.0,0.0,0.0,0.0,0.0,0.0,0.0,0.0,0.0,0.0,0.0,0.0,0.0,0.0,0.0,0.0,0.0,0.0,0.0,0.0,0.0,0.0,0.0,0.0,0.0,0.0,0.0,0.0,0.0,0.0,0.0,0.0,0.0,0.0,0.0,0.0,0.0,0.0,0.0,0.0,0.0,0.0,0.0,0.0,2.6561,2.7106,2.6975,2.6184,2.6728,2.5979,2.3798,2.3517,0.0,0.0,0.0,0.0,0.0,0.0,0.0,0.0,0.0,0.0,0.0,0.0,0.0,0.0,0.0,0.0,0.0,0.0,0.0,0.0,0.0,0.0,0.0,0.0,0.0,0.0,0.0,2.5114,0.0,0.0,0.0,0.0,0.0,0.0,0.0,0.0,0.0,0.0,0.0,0.0,0.0,0.0,3.0864,3.1008,3.2283,3.3421,0.0,0.0,3.4253,3.3789,3.3402,3.2715,0.0,0.0,0.0,0.0,0.0,0.0,0.0,0.0,0.0,0.0,0.0,0.0,0.0,0.0,0.0,0.0,0.0,0.0,0.0,0.0,0.0,0.0,0.0,0.0,0.0,0.0,0.0,0.0,0.0,0.0,0.0,0.0,0.0,0.0,0.0,0.0,0.0,0.0,0.0,0.0,0.0,0.0,0.0,0.0,0.0,0.0,0.0,0.0,0.0,0.0,0.0,0.0,0.0,0.0,2.6042,2.7286,2.7491,2.7381,2.7037,2.7129,2.6437,2.4839,2.3964,2.4704,0.0,0.0,0.0,0.0,0.0,0.0,0.0,0.0,0.0,0.0,0.0,0.0,0.0,0.0,0.0,0.0,0.0,0.0,0.0,0.0,0.0,0.0,0.0,0.0,0.0,0.0,0.0,0.0,0.0,0.0,0.0,0.0,0.0,0.0,0.0,0.0,0.0,0.0,0.0,0.0,0.0,3.1151,3.1817,3.2693,3.3274,0.0,3.3866,3.3828,3.2242,3.2628,3.257,3.0946,0.0,0.0,0.0,0.0,0.0,0.0,0.0,0.0,0.0,0.0,0.0,0.0,0.0,0.0,0.0,0.0,0.0,0.0,0.0,0.0,0.0,0.0,0.0,0.0,0.0,0.0,0.0,0.0,0.0,0.0,0.0,0.0,0.0,0.0,0.0,0.0,0.0,0.0,0.0,0.0,0.0,0.0,0.0,0.0,0.0,0.0,0.0,0.0,0.0,0.0,0.0,0.0,0.0,2.5813,2.6662,2.7287,2.7195,2.643,2.7506,2.7354,2.5734,2.5411,2.5754,0.0,0.0,0.0,0.0,0.0,0.0,0.0,0.0,0.0,0.0,0.0,0.0,0.0,0.0,0.0,0.0,0.0,0.0,0.0,0.0,0.0,0.0,0.0,0.0,0.0,0.0,0.0,0.0,2.5095,2.5666,2.6223,0.0,0.0,0.0,0.0,0.0,0.0,0.0,0.0,0.0,0.0,3.2519,3.2776,3.3098,0.0,0.0,3.3731,3.3189,3.199,3.2077,3.1903,3.0772,3.0907,0.0,0.0,0.0,0.0,0.0,0.0,0.0,0.0,0.0,0.0,0.0,0.0,0.0,0.0,0.0,0.0,0.0,0.0,0.0,0.0,0.0,0.0,0.0,0.0,0.0,0.0,0.0,0.0,0.0,0.0,0.0,0.0,0.0,0.0,0.0,0.0,0.0,0.0,0.0,0.0,0.0,0.0,0.0,0.0,0.0,0.0,0.0,0.0,0.0,0.0,0.0,0.0,2.5957,2.6982,2.7445,2.7408,2.6832,2.8074,2.8222,2.7109,2.6867,2.7012,0.0,0.0,0.0,0.0,0.0,0.0,0.0,0.0,0.0,0.0,0.0,0.0,0.0,0.0,0.0,0.0,0.0,0.0,0.0,0.0,0.0,0.0,0.0,0.0,0.0,0.0,0.0,0.0,2.5658,2.6513,2.7365,0.0,0.0,0.0,0.0,0.0,0.0,0.0,0.0,0.0,0.0,3.2714,3.2907,3.3145,3.3566,3.4292,3.3886,3.3267,3.2667,3.2145,3.1603,3.1081,0.0,0.0,0.0,0.0,0.0,0.0,0.0,0.0,0.0,0.0,0.0,0.0,0.0,0.0,0.0,0.0,0.0,0.0,0.0,0.0,0.0,0.0,0.0,0.0,0.0,0.0,0.0,2.5609,0.0,0.0,2.5615,0.0,0.0,0.0,0.0,0.0,0.0,0.0,0.0,0.0,0.0,0.0,0.0,0.0,0.0,0.0,0.0,0.0,0.0,0.0,0.0,0.0,0.0,2.6611,2.8785,2.8222,2.8207,2.8777,2.8899,2.8945,2.8994,2.8083,2.8447,3.0206,0.0,0.0,0.0,0.0,0.0,0.0,0.0,0.0,0.0,0.0,0.0,0.0,0.0,0.0,0.0,0.0,0.0,0.0,0.0,0.0,0.0,0.0,0.0,0.0,0.0,0.0,2.6525,2.7412,2.8242,0.0,0.0,0.0,0.0,0.0,0.0,0.0,0.0,0.0,3.0953,3.0958,3.1229,3.196,3.2757,3.3525,3.4272,3.4331,3.4331,3.4253,3.2899,3.1816,0.0,0.0,0.0,0.0,0.0,0.0,0.0,0.0,0.0,0.0,0.0,0.0,0.0,0.0,0.0,0.0,0.0,0.0,0.0,0.0,0.0,0.0,0.0,0.0,0.0,0.0,0.0,2.7339,2.7336,0.0,0.0,0.0,0.0,0.0,0.0,0.0,0.0,0.0,0.0,0.0,3.0086,2.9805,0.0,0.0,0.0,0.0,0.0,0.0,0.0,0.0,0.0,0.0,0.0,0.0,2.7798,2.8959,2.8824,2.8768,2.8912,2.9545,2.9932,2.9956,2.9625,2.9759,3.0375,0.0,0.0,0.0,0.0,0.0,0.0,0.0,0.0,0.0,0.0,0.0,0.0,0.0,0.0,0.0,0.0,0.0,0.0,0.0,0.0,0.0,0.0,0.0,0.0,0.0,2.6621,0.0,0.0,0.0,0.0,0.0,0.0,0.0,0.0,0.0,0.0,0.0,3.1622,3.1688,3.2199,3.2441,3.2103,3.2273,3.2725,0.0,0.0,0.0,0.0,0.0,0.0,0.0,0.0,0.0,0.0,0.0,0.0,0.0,0.0,2.7621,2.9209,2.9908,2.9928,2.8974,0.0,0.0,0.0,0.0,0.0,0.0,0.0,0.0,0.0,0.0,0.0,0.0,0.0,0.0,2.8169,0.0,2.8192,0.0,0.0,0.0,0.0,0.0,0.0,0.0,0.0,2.9951,3.0337,3.1321,3.0479,3.0384,0.0,3.1052,3.0953,0.0,0.0,0.0,0.0,0.0,0.0,0.0,0.0,2.8598,2.9574,2.9303,2.9382,2.9871,3.022,3.0533,3.0852,3.0552,3.039,3.0394,2.9905,2.9877,0.0,0.0,0.0,0.0,0.0,0.0,0.0,0.0,0.0,0.0,0.0,0.0,0.0,0.0,0.0,0.0,0.0,0.0,0.0,0.0,0.0,0.0,0.0,2.7826,0.0,0.0,0.0,0.0,0.0,0.0,0.0,0.0,0.0,3.1941,3.2246,3.2474,3.2543,3.281,3.2871,3.2598,0.0,0.0,0.0,0.0,0.0,0.0,0.0,3.3314,3.2541,3.1487,3.0358,2.9226,2.835,2.8133,2.9209,0.0,0.0,2.8912,2.9459,2.9474,2.8541,2.8514,2.8442,2.7851,2.7339,2.7138,0.0,0.0,0.0,0.0,0.0,0.0,0.0,0.0,2.8153,2.8235,0.0,2.8339,0.0,0.0,0.0,0.0,2.9539,2.8788,0.0,0.0,3.1021,3.1445,3.2859,3.2069,3.1727,3.1785,3.1796,3.141,3.0638,2.9877,0.0,0.0,0.0,0.0,0.0,0.0,2.9026,3.0496,2.9765,3.0037,3.1506,3.0859,3.0833,3.1564,3.0833,3.0398,3.041,3.0375,3.0417,3.0455,2.9757,0.0,0.0,0.0,0.0,0.0,0.0,0.0,0.0,0.0,0.0,0.0,0.0,0.0,0.0,0.0,0.0,0.0,0.0,0.0,0.0,2.8791,0.0,0.0,0.0,0.0,0.0,0.0,0.0,0.0,0.0,3.193,3.2036,3.2757,3.3317,3.3378,0.0,0.0,0.0,0.0,3.3676,3.447,3.5195,3.5637,3.5742,3.5076,3.4264,3.3525,0.0,0.0,2.8487,2.8805,2.9253,2.9379,2.9814,2.9599,2.7218,2.7996,2.8548,2.7816,2.8017,2.8428,2.8477,2.7469,2.7028,2.8316,0.0,0.0,0.0,0.0,2.8588,2.8877,2.8887,2.8934,2.934,2.9983,2.9991,0.0,0.0,0.0,0.0,0.0,0.0,3.1243,3.1862,3.2141,3.2524,3.2902,3.2088,3.1738,3.1776,3.1195,3.0518,2.9869,2.9632,2.9718,3.0146,0.0,0.0,0.0,0.0,3.0183,3.0591,3.0905,3.0963,3.0775,3.1129,3.1141,3.0794,3.0513,3.0398,3.0398,3.039,3.0691,3.1268,3.0617,0.0,0.0,0.0,0.0,0.0,0.0,0.0,0.0,0.0,0.0,0.0,0.0,0.0,0.0,0.0,0.0,0.0,0.0,0.0,2.8792,2.9651,3.0375,0.0,0.0,0.0,0.0,0.0,0.0,0.0,0.0,0.0,3.3682,3.3422,3.3254,0.0,0.0,3.3077,3.3379,3.3359,3.3652,3.4474,3.4774,0.0,3.5716,3.5599,3.4952,3.3624,3.0941,2.8762,2.8222,2.7813,2.7892,2.8975,2.9349,2.9008,2.7819,2.8192,2.8303,2.7067,2.6773,2.6817,2.6688,2.6384,2.6338,2.8726,2.927,2.901,2.8702,2.8462,2.9291,2.9676,2.9696,2.9701,3.0065,3.061,3.0638,3.042,3.0068,3.0576,0.0,0.0,0.0,3.2232,3.2798,3.3277,3.3639,3.3853,3.3083,3.2524,3.2227,3.1746,3.1138,3.0458,3.0806,3.1284,3.1816,0.0,0.0,3.1348,3.1305,3.1373,3.1642,3.2119,3.2019,3.141,3.1602,3.1295,3.0436,3.0398,3.0398,3.0398,3.0425,3.067,3.1191,3.0868,3.0889,0.0,0.0,0.0,0.0,0.0,0.0,0.0,0.0,0.0,0.0,0.0,2.6978,2.6448,0.0,0.0,0.0,2.8733,2.967,3.0231,3.1043,0.0,0.0,0.0,0.0,0.0,0.0,0.0,3.2742,3.3699,3.4494,3.4853,3.4505,3.4197,3.4245,3.3981,3.39,3.4291,0.0,3.4081,3.4947,3.5077,3.5252,3.5749,3.5812,3.5135,3.3156,3.0548,2.8545,2.8078,2.7808,2.8049,2.8813,2.9306,2.9219,2.8345,2.8232,2.7846,2.6531,2.6157,2.6133,2.6305,2.6019,2.5894,2.8978,2.9744,2.9155,2.896,2.9171,2.9935,3.029,3.0314,3.0275,3.0381,3.051,3.0561,3.0667,3.0791,3.0806,0.0,3.2065,3.2036,3.2817,3.4287,3.4308,3.4718,3.5468,3.4584,3.3776,3.3006,3.3005,3.2643,3.2044,3.2798,3.3258,3.3336,3.1053,3.0662,3.2109,3.2187,3.2526,3.3191,3.3281,3.3179,3.2928,3.2119,3.1299,3.0452,3.0414,3.0414,3.0414,3.0482,3.051,3.051,3.0623,3.0692,3.0704,0.0,0.0,0.0,0.0,0.0,0.0,0.0,0.0,0.0,0.0,0.0,0.0,0.0,0.0,2.9225,3.0897,0.0,3.1903,3.2628,0.0,0.0,0.0,3.3109,3.3191,3.3194,3.3545,3.4395,0.0,0.0,3.5781,3.5781,3.5723,3.5781,3.5093,3.49,3.5684,3.5069,3.4898,3.5657,3.5773,3.5818,3.584,3.5643,3.4734,3.2576,3.0579,2.9101,2.839,2.8563,2.9014,2.9142,2.9631,2.9794,2.9013,2.808,2.714,2.647,2.6069,2.6101,2.6876,2.632,2.6117,2.8833,2.9136,2.8965,2.8977,2.9121,2.9321,2.9417,2.941,2.941,2.9822,3.0482,3.0518,3.0933,3.1605,3.1617,3.2039,3.2803,3.3439,3.3894,3.4238,3.4905,3.5295,3.5449,3.4603,3.4103,3.3872,3.3231,3.2905,3.2901,3.3087,3.3262,3.3375,3.279,3.2692,3.3066,3.3085,3.3145,3.3282,3.3938,3.3893,3.3139,3.2305,3.1432,3.0571,3.0532,3.0552,3.054,3.0556,3.0583,3.0583,3.0646,3.0695,3.0709,3.1424,0.0,0.0,0.0,0.0,0.0,0.0,0.0,0.0,0.0,2.8606,2.7961,0.0,2.9252,0.0,3.1785,3.2772,3.2792,3.2996,0.0,0.0,3.3467,3.3611,3.4817,3.4422,3.4607,3.6118,3.5762,3.5936,3.7406,3.6497,3.5916,3.6497,3.5916,3.5491,3.5684,3.5572,3.5485,3.5737,3.5793,3.5799,3.5753,3.4705,3.3677,3.2899,3.0818,2.9374,2.9665,2.9301,2.9187,2.9693,2.981,2.9512,2.8714,2.8633,2.8125,2.669,2.595,2.6061,2.7255,2.7295,2.735,2.937,2.944,2.9524,2.9602,2.9679,2.9694,2.9687,2.9679,2.9679,2.9982,3.049,3.0907,3.1368,3.1907,3.2236,3.2822,3.3575,3.4052,3.4455,3.4814,3.5295,3.5515,3.5521,3.5039,3.465,3.432,3.3837,3.3673,3.381,3.3816,3.4077,3.4566,3.4546,3.4566,3.4527,3.4178,3.4124,3.4452,3.4522,3.4114,3.3215,3.2349,3.1669,3.1202,3.0807,3.0768,3.1164,3.084,3.082,3.1189,3.128,3.132,3.1332,3.1811,3.1714,0.0,0.0,0.0,0.0,0.0,0.0,0.0,0.0,0.0,0.0,0.0,3.07,3.1581,3.2888,3.3682,3.3692,3.435,3.4958,3.5411,3.5411,3.5759,3.6667,3.6319,3.6397,3.7356,3.7077,3.7,3.7541,3.7154,3.6826,3.6903,3.6516,3.611,3.5762,3.5704,3.5723,3.5742,3.5742,3.5766,3.5741,3.4642,3.3689,3.3441,3.2013,3.0836,3.0781,3.0404,3.0061,2.9918,2.9786,2.9512,2.8933,2.8505,2.8099,2.7502,2.6581,2.6408,2.7103,2.7229,2.7356,3.0144,3.0196,3.047,3.0518,3.0436,3.0552,3.0529,3.0398,3.0533,3.0629,3.0775,3.157,3.2038,3.2216,3.2871,3.3622,3.4411,3.4404,3.4757,3.5488,3.5501,3.556,3.5607,3.5618,3.5272,3.4661,3.4661,3.4704,3.4745,3.4745,3.5178,3.5971,3.601,3.601,3.5971,3.5232,3.5217,3.588,3.5094,3.4263,3.34,3.2532,3.2026,3.191,3.1093,3.097,3.1696,3.1086,3.1047,3.1792,3.19,3.1953,3.1953,3.2038,3.1729,0.0,3.0859,0.0,0.0,0.0,0.0,0.0,0.0,0.0,0.0,3.2017,3.2441,3.3197,3.4069,3.4601,3.4717,3.6052,3.6942,3.7058,3.7735,3.8218,3.8199,3.8218,3.8237,3.8353,3.8276,3.7947,3.7638,3.7928,3.7889,3.7425,3.717,3.681,3.6165,3.5847,3.5684,3.5693,3.5673,3.5673,3.5577,3.4878,3.4212,3.4083,3.3254,3.2465,3.1447,3.1267,3.0921,2.9888,2.957,2.9436,2.9233,2.821,2.7676,2.8072,2.7289,2.6687,2.6916,2.6914,2.6911,3.0423,3.0509,3.1264,3.1186,3.0607,3.1313,3.1149,3.0436,3.116,3.1833,3.2429,3.2608,3.3094,3.3754,3.3903,3.4449,3.5245,3.5257,3.5353,3.5507,3.5565,3.5585,3.5588,3.566,3.5607,3.5488,3.5488,3.5546,3.5655,3.566,3.5782,3.601,3.601,3.601,3.5991,0.0,0.0,0.0,3.5822,3.5291,3.4413,3.3555,3.2775,3.2072,3.1214,0.0,3.0999,3.0849,3.0852,3.1008,3.1092,0.0,0.0,0.0,0.0,0.0,0.0,0.0,0.0,0.0,0.0,0.0,3.1168,3.1622,3.1825,3.3072,3.3972,3.4176,3.4949,3.5723,3.6361,3.669,3.7193,3.787,3.8121,3.8218,3.8218,3.8237,3.845,3.9166,3.8663,3.8702,3.9688,3.903,3.8431,3.8798,3.8299,3.7764,3.7591,3.6477,3.5689,3.5553,3.554,3.556,3.554,3.479,3.4216,3.3895,3.3226,3.2346,3.149,3.1126,3.0715,2.9739,2.9334,2.8993,2.87,2.8258,2.7788,2.7542,2.7213,2.7143,2.7473,2.7484,2.7526,3.1568,3.1288,3.2173,3.1773,0.0,3.1991,3.2007,3.1178,3.1562,3.2201,3.291,3.3353,3.3776,3.4218,3.4641,3.5084,3.5507,3.5507,3.5515,3.5553,3.5585,3.565,3.576,3.6188,3.6203,3.5903,3.6727,3.6723,3.6005,3.6376,3.6407,3.601,3.601,3.601,3.601,3.601,3.601,3.601,3.601,3.5369,3.41,3.3632,3.2988,3.2129,3.1259,0.0,0.0,0.0,0.0,0.0,0.0,0.0,0.0,3.1855,0.0,3.089,3.1502,3.1719,3.1342,3.1623,3.1826,3.1855,3.2609,3.3093,3.3082,3.4292,3.5046,3.5065,3.58,3.6458,3.6864,3.7657,3.8334,3.8779,3.9243,3.9475,3.9475,3.9495,3.9649,3.9997,3.9746,3.9727,4.0094,3.9862,3.9456,3.9475,3.9019,3.8628,3.8474,3.7165,3.5977,3.5512,3.5402,3.5402,3.5364,3.5038,3.4615,3.4435,3.3995,3.3109,3.1864,3.1447,3.0831,2.9428,2.8865,2.8621,2.8183,2.788,2.7577,2.7258,2.6906,2.6724,2.6872,2.6937,2.6855,3.2804,3.2234,3.3096,3.2551,3.1228,3.2791,3.3048,3.2363,3.2296,0.0,0.0,3.4391,3.4788,3.4962,3.5528,3.5856,3.5971,3.5682,3.5732,3.6056,3.5931,3.6024,3.6376,3.7049,3.7054,3.6557,3.7906,3.7848,3.6521,3.7184,3.7165,3.6521,3.6462,3.6381,3.6245,3.6225,3.615,3.6016,3.6013,3.531,3.391,3.3558,3.3073,3.2334,3.1325,3.1131,3.1827,3.1189,3.113,3.1823,3.1858,3.1938,3.2082,3.2107,3.1877,3.1402,3.1883,3.2193,3.2202,3.2764,3.3161,3.3325,3.3982,3.4399,3.4399,3.5182,3.5762,3.5897,3.6516,3.7019,3.7328,3.8624,3.9565,3.9719,4.0365,4.0771,4.0771,4.079,4.0732,4.079,4.0732,4.0539,3.9932,4.0346,4.0558,3.9863,3.9557,3.9354,3.9035,3.7731,3.6435,3.5756,3.5645,3.55,3.5289,3.5149,3.5105,3.4977,3.4735,3.406,3.2722,3.1933,3.0891,2.918,2.8623,2.8237,2.7742,2.7334,2.7068,2.7004,2.6471,2.598,2.5908,2.5908,2.5819,3.322,3.3161,3.4101,3.3897,3.3074,3.4059,3.439,3.4216,3.4151,3.4986,3.6433,3.655,3.7016,3.7685,3.7074,3.719,3.7801,3.6366,3.6472,3.7866,3.7221,3.7293,3.8038,3.8276,3.8333,3.8258,3.8492,3.8473,3.8258,3.8355,3.8355,3.8219,3.8219,3.7848,3.7184,3.7126,3.6762,3.6032,3.6021,3.5884,3.5622,3.4156,3.3359,3.3162,3.1639,3.0838,3.0956,3.0857,3.0859,3.0974,3.0984,3.1328,3.2055,3.2107,3.2358,3.29,3.3018,3.3009,3.2957,3.3035,3.3421,3.4137,3.4331,3.4399,3.4427,3.5201,3.5994,3.6632,3.6884,3.7541,3.8895,3.9352,3.9835,4.0462,4.0694,4.079,4.079,4.079,4.079,4.079,4.079,4.079,4.0616,4.0694,4.0675,4.04,4.0108,3.9808,3.8995,3.8023,3.7179,3.6517,3.6277,3.594,3.5312,3.5122,3.5054,3.4945,3.4732,3.422,3.3168,3.2126,3.1023,2.9751,2.8847,2.8067,2.7452,2.6954,2.6674,2.6401,2.5944,2.5503,2.5237,2.5121,2.5176,3.4479,3.4178,3.5037,3.4634,3.347,3.4329,3.4953,3.5339,3.5321,3.5942,3.702,3.7506,3.7933,3.8244,3.7894,3.7914,3.8263,3.7458,3.7549,3.8286,3.7987,3.8034,3.8526,3.9013,3.9019,3.8668,3.9546,3.9488,3.8707,3.9019,3.9039,3.8648,3.8609,3.8363,3.7979,3.7942,3.7517,3.6659,3.6209,3.5779,3.5292,3.4043,3.3182,3.271,3.1454,3.079,3.0796,3.079,3.0793,3.08,3.0798,3.0985,3.1389,3.1836,3.2271,3.2648,3.343,3.3887,3.3856,3.4262,3.4679,3.5065,3.5104,3.5104,3.5085,3.5858,3.6497,3.6903,3.7715,3.8605,3.9449,3.992,4.0365,4.0732,4.079,4.079,4.079,4.079,4.079,4.079,4.079,4.079,4.079,4.07,4.0621,4.0477,4.0334,3.9948,3.9423,3.9083,3.8213,3.6709,3.631,3.5912,3.519,3.5,3.4927,3.4771,3.4542,3.3985,3.3096,3.2104,3.1155,3.0112,2.9241,2.8523,2.7724,2.7197,2.6766,2.6173,2.5577,2.5121,2.4942,2.4759,2.4639,3.5601,3.5078,3.5717,3.5211,3.4062,3.4707,3.539,3.6011,3.6387,3.6741,3.715,3.7981,3.8571,3.8909,3.8726,3.8753,3.887,3.8532,3.8604,3.897,3.88,3.8877,3.9195,3.9819,3.978,3.9351,4.0503,4.0424,3.937,3.98,3.9803,3.9222,3.9164,3.9035,3.8789,3.8789,3.8378,3.7491,3.6697,3.5857,3.499,3.3935,3.3075,3.2407,3.136,3.0791,3.0786,3.0794,3.0794,3.0792,3.08,3.0975,3.137,3.202,3.2565,3.3003,3.4091,3.4778,3.4803,3.5336,3.5704,3.5704,3.5704,3.5781,3.6013,3.6729,3.7193,3.7348,3.8373,3.9282,3.9804,4.0365,4.079,4.079,4.079,4.079,4.079,4.079,4.079,4.079,4.079,4.079,4.0759,4.0621,4.0462,4.0383,4.0194,4.002,3.9914,3.9889,3.8963,3.7466,3.6613,3.6197,3.5363,3.4964,3.479,3.4623,3.4316,3.3821,3.3025,3.2242,3.136,3.0445,2.976,2.9008,2.8091,2.7391,2.6834,2.6134,2.5374,2.4744,2.4719,2.472,2.4533,3.5954,3.5894,3.5955,3.5915,3.5699,3.5816,3.5894,3.6166,3.7574,3.7848,3.7305,3.8151,3.9384,4.0613,3.9985,4.0044,4.059,3.9266,3.9384,4.0574,4.0011,4.009,4.0698,4.0873,4.0932,4.0795,4.101,4.0991,4.0737,4.0876,4.0904,4.0875,4.0876,4.0429,3.978,3.9681,3.9244,3.8385,3.7526,3.6668,3.575,3.4228,3.334,3.3273,3.1666,3.0789,3.0798,3.0789,3.0786,3.0794,3.0819,3.1539,3.2899,3.3227,3.3945,3.5338,3.5593,3.5663,3.559,3.5665,3.5704,3.5704,3.5704,3.5974,3.6671,3.7522,3.8083,3.8121,3.8237,3.9127,4.0442,4.0752,4.079,4.079,4.079,4.079,4.079,4.079,4.079,4.079,4.079,4.079,4.0778,4.0607,4.0419,4.0195,4.004,3.9935,3.9911,3.987,3.9665,3.8565,3.7826,3.7011,3.6196,3.5222,3.4835,3.4636,3.4173,3.3776,3.3296,3.2473,3.144,3.1038,3.0213,2.9329,2.8386,2.7437,2.6652,2.619,2.5365,2.4462,2.4477,2.4806,2.5102,3.5987,3.5957,3.5929,3.5942,3.5939,3.5932,3.5949,3.6033,3.6654,3.7031,3.7231,3.7617,3.8728,4.0305,4.048,4.0769,4.0994,3.9839,3.9956,4.0912,3.9722,3.9527,4.0268,4.0327,4.0346,4.0385,4.0854,4.1108,4.1111,4.1101,4.1108,4.1112,4.1113,4.0913,4.0603,4.0561,4.0141,3.9287,3.841,3.7552,3.6518,3.453,3.3395,3.3225,3.1719,3.0799,3.0799,3.0799,3.0789,3.0825,3.1292,3.1897,3.2595,3.3553,3.4425,3.5112,3.5541,3.5718,3.5715,3.5704,3.5704,3.5704,3.5704,3.5858,3.6187,3.6961,3.7618,3.8218,3.9108,4.0075,4.0694,4.079,4.079,4.079,4.079,4.079,4.079,4.079,4.079,4.079,4.079,4.079,4.0746,4.0564,4.0283,4.004,3.9933,3.9889,3.9889,3.9889,3.9778,3.9399,3.8698,3.7864,3.701,3.6015,3.5349,3.4997,3.4351,3.3762,3.3207,3.2662,3.1892,3.1551,3.0795,2.9976,2.9154,2.8412,2.7687,2.6804,2.6115,2.5533,2.5533,2.541,2.561,3.5578,3.5545,3.5542,3.5685,3.5894,3.5899,3.5895,3.5953,3.6133,3.6477,3.6856,3.7321,3.8254,3.9453,4.0351,4.0858,4.0988,4.0441,4.048,4.089,3.9582,3.9383,4.0084,3.9886,3.9923,4.0229,4.0795,4.1114,4.1099,4.1111,4.1113,4.1112,4.1107,4.1111,4.11,4.11,4.0783,4.0078,3.9072,3.8163,3.7267,3.504,3.3726,3.357,3.2051,3.1154,3.1154,3.0935,3.0799,3.0804,3.143,3.1987,3.2475,3.3606,3.4437,3.4881,3.5385,3.5704,3.5704,3.5704,3.5704,3.5704,3.5704,3.5916,3.6381,3.6922,3.7754,3.8895,4.0075,4.0752,4.079,4.079,4.079,4.079,4.079,4.079,4.079,4.079,4.079,4.079,4.079,4.0778,4.07,4.0485,4.0212,4.002,3.9914,3.9889,3.9889,3.9889,3.987,3.987,3.9361,3.8677,3.7761,3.6694,3.6035,3.5502,3.4779,3.3884,3.3158,3.273,3.2162,3.1688,3.1304,3.067,2.9576,2.9004,2.8233,2.7217,2.6588,2.638,2.6195,2.5995,2.6349,3.4647,3.4647,3.4647,3.5115,3.5869,3.5855,3.5875,3.5947,3.6713,3.6674,3.6284,3.7595,3.8434,3.8626,3.9463,4.0327,4.1012,4.0953,4.0954,4.0994,4.0095,4.0175,4.0954,4.0232,4.0207,4.0784,4.0999,4.1101,4.1111,4.1112,4.1101,4.1101,4.1094,4.1096,4.1097,4.1085,4.0999,4.0546,3.9232,3.8364,3.7922,3.5775,3.4559,3.4383,3.2888,3.1977,3.1914,3.1232,3.0799,3.0799,3.0979,3.168,3.3098,3.3394,3.4148,3.5408,3.5667,3.5704,3.5704,3.5704,3.5723,3.5742,3.582,3.6381,3.7677,3.8044,3.8779,4.0442,4.0578,4.079,4.079,4.079,4.079,4.079,4.079,4.079,4.079,4.079,4.079,4.079,4.079,4.0733,4.0559,4.0399,4.0248,4.0081,3.9977,3.987,3.9889,3.9889,3.9889,3.9889,3.9757,3.9425,3.8348,3.7349,3.6623,3.603,3.5287,3.4333,3.3734,3.3137,3.2371,3.1677,3.1067,3.0452,2.9789,2.8954,2.7955,2.719,2.6839,2.6657,2.6888,2.7088,2.7303,3.3843,3.3824,3.3725,3.4237,3.5026,3.5071,3.5382,3.5908,3.622,3.6201,3.6025,3.659,3.7127,3.7708,3.858,3.9758,4.097,4.0541,4.056,4.0853,3.9642,3.9429,4.0173,3.992,3.9921,4.0293,4.082,4.1113,4.1112,4.1099,4.1104,4.1085,4.1013,4.0976,4.0971,4.0878,4.0576,3.9896,3.8811,3.7987,3.7385,3.6012,3.5293,3.5184,3.3223,3.2114,3.2114,3.1252,3.0799,3.0799,3.1836,3.2722,3.3336,3.4292,3.5078,3.5618,3.5704,3.5704,3.5704,3.5704,3.5936,3.6408,3.6466,3.6942,3.8025,3.8702,3.9301,3.9901,4.0539,4.0771,4.079,4.079,4.079,4.079,4.079,4.079,4.079,4.079,4.079,4.079,4.079,4.0706,4.0466,4.0334,4.0212,4.002,3.9914,3.9911,3.9889,3.9889,3.9889,3.9889,3.987,3.9622,3.8861,3.8018,3.7256,3.6541,3.5726,3.4458,3.3613,3.2687,3.1893,3.1393,3.0804,3.0234,2.9636,2.8932,2.7922,2.7798,2.7473,2.7349,2.7688,2.7626,2.7719,3.3126,3.3265,3.2967,3.3485,3.4464,3.4562,3.5029,3.5748,3.5806,3.5806,3.5806,3.5827,3.6327,3.7131,3.7786,3.8863,4.021,4.0187,4.0538,4.0932,3.9582,3.9393,4.0042,3.9925,3.9949,4.0266,4.0789,4.1099,4.1097,4.1057,4.1031,4.1019,4.0915,4.0819,4.0809,4.0742,4.0352,3.967,3.8658,3.782,3.7158,3.6182,3.5668,3.5449,3.3868,3.2756,3.2518,3.1953,3.1486,3.1466,3.2605,3.3459,3.3755,3.4941,3.5708,3.5715,3.5936,3.5955,3.582,3.6187,3.6632,3.6872,3.7201,3.7704,3.8547,3.9146,3.9584,3.9959,4.0384,4.079,4.079,4.079,4.079,4.079,4.079,4.079,4.079,4.079,4.079,4.079,4.079,4.0673,4.0434,4.0334,4.0194,3.9979,3.9933,3.9889,3.9889,3.9889,3.9889,3.9889,3.9804,3.9537,3.9032,3.8396,3.7948,3.7283,3.5847,3.4581,3.3583,3.2524,3.1559,3.1078,3.0576,3.0038,2.9438,2.8842,2.8541,2.846,2.8227,2.7996,2.8073,2.7996,2.8057,3.2506,3.2975,3.2409,3.2978,3.4246,3.4445,3.4903,3.5562,3.5629,3.5639,3.564,3.5678,3.6157,3.6853,3.717,3.7753,3.8725,4.0,4.074,4.085,4.009,4.0145,4.0894,4.0274,4.0304,4.0945,4.1085,4.1113,4.1085,4.0979,4.0906,4.0878,4.0784,4.0694,4.0694,4.0668,4.0582,4.0029,3.8774,3.7964,3.7714,3.633,3.5621,3.5599,3.4839,3.4088,3.3453,3.3298,3.283,3.2284,3.2939,3.3677,3.4408,3.5253,3.5698,3.5811,3.6419,3.6439,3.6052,3.7174,3.7618,3.7444,3.7773,3.8586,3.934,3.9603,3.9913,4.05,4.0732,4.079,4.079,4.079,4.079,4.079,4.079,4.079,4.079,4.079,4.079,4.079,4.079,4.0733,4.0545,4.0383,4.023,4.0081,3.9977,3.9889,3.9889,3.9889,3.9889,3.9867,3.9717,3.9414,3.9127,3.877,3.8504,3.7932,3.6227,3.4729,3.3987,3.301,3.1543,3.0821,3.014,2.9617,2.9059,2.8493,2.8493,2.8411,2.8411,2.8411,2.8304,2.8227,2.8273,3.146,3.2098,3.1882,3.2745,3.4214,3.4342,3.4835,3.5568,3.5607,3.5607,3.5618,3.562,3.5834,3.6181,3.6725,3.7222,3.7689,3.8622,3.9438,4.0026,3.9916,4.0253,4.0894,4.0817,4.0847,4.1072,4.11,4.1052,4.0964,4.0926,4.0859,4.0773,4.0648,4.0579,4.0545,4.0476,4.0147,3.9385,3.8383,3.7578,3.6936,3.5993,3.5538,3.5591,3.5408,3.4979,3.4247,3.3707,3.3278,3.301,3.3757,3.452,3.5175,3.5533,3.5706,3.5792,3.6458,3.6826,3.6709,3.758,3.8431,3.8605,3.8953,3.9514,4.023,4.0365,4.0481,4.079,4.079,4.079,4.079,4.079,4.079,4.079,4.079,4.079,4.079,4.079,4.079,4.079,4.079,4.0673,4.045,4.0298,4.0194,4.0,3.9933,3.9889,3.9889,3.9889,3.9889,3.9867,3.9604,3.9364,3.9054,3.8759,3.8465,3.7778,3.6288,3.5013,3.425,3.2965,3.154,3.0502,2.9821,2.9227,2.8621,2.8411,2.8411,2.8411,2.8411,2.8411,2.8411,2.8411,2.8411,3.0959,3.1656,3.168,3.2639,3.4135,3.4229,3.468,3.5387,3.5445,3.5445,3.5464,3.5526,3.5546,3.5716,3.6179,3.6484,3.6651,3.7026,3.7754,3.8766,3.9493,4.0127,4.0866,4.0963,4.0943,4.0963,4.0963,4.0917,4.0828,4.0765,4.0706,4.0615,4.0508,4.043,4.043,4.0327,3.9986,3.9412,3.8648,3.7789,3.6984,3.6205,3.5705,3.5584,3.5607,3.5456,3.4989,3.4549,3.4183,3.4047,3.4601,3.5255,3.5669,3.5706,3.5839,3.6265,3.6884,3.7406,3.7502,3.8547,3.9185,3.9514,3.9797,4.0172,4.0674,4.079,4.079,4.079,4.079,4.079,4.079,4.079,4.079,4.079,4.079,4.079,4.079,4.079,4.079,4.079,4.0726,4.0579,4.0367,4.023,4.0158,3.9956,3.9889,3.9889,3.9889,3.9889,3.9889,3.9781,3.9489,3.9242,3.9054,3.873,3.8401,3.7458,3.6256,3.5279,3.4479,3.2659,3.1055,3.0208,2.9438,2.8967,2.8411,2.8411,2.8411,2.8411,2.8411,2.8411,2.8411,2.8411,2.8473,3.0956,3.1642,3.1786,3.2763,3.4079,3.4218,3.4621,3.5146,3.5207,3.5242,3.5254,3.5355,3.5405,3.5432,3.5623,3.572,3.5626,3.5728,3.6404,3.7444,3.8547,3.9719,4.0614,4.0761,4.0742,4.073,4.073,4.0706,4.0681,4.0588,4.0489,4.0492,4.0381,4.031,4.0329,4.031,4.0291,4.0081,3.9374,3.8476,3.7636,3.6852,3.6128,3.5482,3.5522,3.5601,3.5591,3.5609,3.5379,3.4873,3.5344,3.5678,3.5706,3.5704,3.6013,3.6632,3.7638,3.8044,3.8508,3.9591,4.0307,3.9835,4.03,4.079,4.079,4.079,4.079,4.079,4.079,4.079,4.079,4.079,4.079,4.079,4.079,4.079,4.079,4.079,4.0746,4.0733,4.0607,4.045,4.03,4.0176,4.006,3.9935,3.9889,3.9889,3.9889,3.9889,3.9889,3.967,3.9364,3.9109,3.8886,3.8585,3.8216,3.7293,3.6149,3.5207,3.4189,3.2381,3.0855,2.9968,2.9182,2.8668,2.8411,2.8411,2.8411,2.8411,2.8411,2.8411,2.8442,2.8488,2.8814,3.116,3.2371,3.244,3.3398,3.4789,3.4913,3.4993,3.519,3.519,3.519,3.5207,3.5239,3.5292,3.5397,3.534,3.5391,3.5507,3.543,3.6214,3.7502,3.7928,3.9162,4.0417,4.0694,4.0681,4.07,4.0688,4.0642,4.0545,4.0504,4.0463,4.0345,4.0328,4.0329,4.0329,4.0329,4.0329,4.0196,3.9451,3.861,3.7769,3.6967,3.6151,3.5493,3.5479,3.5579,3.5708,3.583,3.5791,3.5471,3.559,3.5718,3.5792,3.582,3.5994,3.6419,3.7464,3.8257,3.8586,3.9843,4.0597,4.052,4.0616,4.079,4.079,4.079,4.079,4.079,4.079,4.079,4.079,4.079,4.079,4.079,4.079,4.079,4.0778,4.0668,4.0574,4.0559,4.045,4.03,4.0213,4.012,4.0021,3.9935,3.9889,3.9848,3.9848,3.9826,3.9804,3.9556,3.9261,3.899,3.8718,3.8433,3.7935,3.7112,3.6005,3.4887,3.363,3.1992,3.0725,2.975,2.9013,2.8444,2.8411,2.8411,2.8411,2.8411,2.8493,2.8508,2.866,2.8719,2.9169,3.155,3.2679,3.2688,3.3665,3.5114,3.519,3.519,3.519,3.519,3.519,3.519,3.519,3.5239,3.5296,3.5239,3.5266,3.5416,3.5653,3.6345,3.7182,3.7993,3.915,4.0239,4.0534,4.0554,4.0554,4.0534,4.0492,4.043,4.0413,4.0381,4.0329,4.0329,4.0329,4.0329,4.0329,4.0329,4.0234,3.9756,3.9126,3.8266,3.7426,3.6903,3.6255,3.5886,3.5523,3.5648,3.5756,3.5911,3.6115,3.6251,3.6396,3.674,3.6748,3.6903,3.7251,3.8237,3.8895,3.9379,4.0288,4.0732,4.079,4.079,4.079,4.079,4.079,4.079,4.079,4.079,4.079,4.079,4.079,4.079,4.079,4.079,4.079,4.079,4.0621,4.0526,4.0466,4.0334,4.0194,4.0101,4.0041,3.9979,3.9914,3.9889,3.9804,3.9758,3.9717,3.9604,3.9338,3.91,3.8836,3.8597,3.8336,3.7807,3.6967,3.5474,3.4386,3.3033,3.1597,3.0622,2.9617,2.8889,2.846,2.8444,2.8444,2.8411,2.8444,2.8541,2.8839,2.9121,2.9401,2.9806,3.1919,3.2584,3.2745,3.37,3.4942,3.5171,3.519,3.519,3.519,3.519,3.519,3.519,3.519,3.519,3.519,3.519,3.5245,3.5837,3.6279,3.7099,3.819,3.9582,3.9964,4.0288,4.0364,4.0346,4.031,4.0329,4.0347,4.0329,4.031,4.0329,4.0329,4.0329,4.0329,4.0329,4.0329,4.0329,4.0234,3.9699,3.8858,3.8018,3.7424,3.7003,3.5962,3.5607,3.572,3.5879,3.6265,3.7162,3.7082,3.7284,3.7947,3.8141,3.84,3.8883,3.9134,3.9688,4.0391,4.0526,4.079,4.079,4.079,4.079,4.079,4.079,4.079,4.079,4.079,4.079,4.079,4.079,4.079,4.079,4.079,4.0778,4.0746,4.0607,4.0462,4.0466,4.0212,4.0101,4.006,3.9979,3.9889,3.9762,3.9739,3.9647,3.9532,3.9414,3.9287,3.9027,3.8818,3.8646,3.8446,3.8289,3.763,3.6844,3.4951,3.3588,3.24,3.1199,3.0346,2.9572,2.9059,2.8748,2.8621,2.8573,2.8493,2.8716,2.892,2.9469,2.9974,3.0307,3.0672,3.1522,3.179,3.3161,3.3926,3.4331,3.4923,3.519,3.519,3.519,3.519,3.519,3.519,3.519,3.519,3.519,3.519,3.5209,3.5553,3.5821,3.6816,3.9011,3.9546,3.9642,3.9986,4.031,4.0329,4.0329,4.0329,4.0329,4.0329,4.0329,4.0329,4.0329,4.0329,4.0329,4.0329,4.0329,4.0329,4.0329,3.989,3.9088,3.8228,3.7464,3.6833,3.5921,3.5764,3.622,3.6485,3.7276,3.8074,3.7745,3.7491,3.8187,3.8342,3.8472,3.8672,3.9226,3.9605,3.9753,4.0372,4.079,4.079,4.079,4.079,4.079,4.079,4.079,4.079,4.079,4.079,4.079,4.079,4.079,4.0759,4.0668,4.0574,4.0526,4.0415,4.0317,4.0213,4.008,3.9935,3.9935,3.9914,3.9804,3.9647,3.9508,3.9414,3.9287,3.9136,3.8961,3.873,3.8628,3.8446,3.8303,3.7984,3.7307,3.6594,3.4883,3.3625,3.2466,3.1415,3.0839,3.0092,2.9348,2.9106,2.9029,2.8763,2.8732,2.9013,2.943,3.014,3.0776,3.113,3.1757,3.2,3.2114,3.3009,3.385,3.456,3.5018,3.519,3.519,3.519,3.519,3.519,3.519,3.519,3.519,3.519,3.519,3.5324,3.5687,3.6509,3.7712,3.9183,3.9603,3.9775,4.0024,4.0329,4.031,4.0329,4.0329,4.0329,4.0329,4.0329,4.0329,4.0329,4.0329,4.0329,4.0329,4.0329,4.0329,4.031,4.0043,3.9546,3.8726,3.7563,3.6781,3.6332,3.6386,3.5914,3.6415,3.7281,3.8123,3.8209,3.8323,3.911,3.9341,3.9283,3.9249,3.9669,3.9965,4.0068,4.0351,4.0759,4.0668,4.0746,4.079,4.079,4.079,4.079,4.079,4.079,4.079,4.079,4.079,4.0778,4.0654,4.0559,4.0446,4.0334,4.0248,4.0176,4.0081,3.9979,3.9914,3.9889,3.9826,3.9712,3.9551,3.9268,3.9144,3.8961,3.8807,3.8658,3.8491,3.8446,3.8303,3.8104,3.7667,3.6949,3.6185,3.5081,3.426,3.3541,3.2538,3.1583,3.0816,3.0057,2.9733,2.9585,2.9309,2.9327,2.9918,3.0509,3.1079,3.1704,3.2387,3.3055,3.2672,3.2672,3.2688,3.3528,3.4732,3.4926,3.4945,3.4999,3.5171,3.519,3.519,3.519,3.519,3.519,3.519,3.519,3.542,3.6069,3.7005,3.7712,3.8725,3.9183,3.9584,3.9966,4.0177,4.0157,4.0253,4.031,4.0329,4.0329,4.0329,4.0329,4.0329,4.0329,4.0329,4.0329,4.0329,4.0329,4.0272,4.0253,4.0024,3.9261,3.7966,3.6748,3.6784,3.659,3.5999,3.6351,3.7182,3.7948,3.8807,3.9605,4.0239,4.0593,4.0593,4.0243,4.04,4.0361,4.023,4.0457,4.0621,4.0487,4.0621,4.0759,4.079,4.079,4.079,4.079,4.0778,4.07,4.0733,4.0687,4.0607,4.0496,4.0466,4.0334,4.0177,4.0081,4.0061,4.0041,3.9977,3.9892,3.9804,3.9735,3.9575,3.9383,3.9109,3.8839,3.8658,3.8541,3.8433,3.8368,3.8322,3.7931,3.7685,3.7487,3.679,3.598,3.5053,3.4695,3.4303,3.3659,3.2638,3.1573,3.0871,3.0614,3.0372,3.0193,3.0432,3.101,3.1516,3.2039,3.28,3.3698,3.4197,3.2672,3.2691,3.2683,3.2874,3.3245,3.3898,3.4238,3.4331,3.4923,3.519,3.519,3.519,3.519,3.5152,3.519,3.519,3.542,3.6012,3.6317,3.668,3.7789,3.8744,3.861,3.947,3.9737,3.9584,3.9756,4.0081,4.0234,4.0329,4.0215,4.0291,4.0329,4.0329,4.0329,4.0329,4.0329,4.0291,4.0253,4.0234,4.0024,3.928,3.8004,3.654,3.6654,3.6464,3.6407,3.6899,3.7829,3.8707,3.9616,4.002,4.0193,4.0319,4.0302,4.0232,4.03,4.0351,4.0211,4.0279,4.0419,4.0486,4.0544,4.064,4.0733,4.0778,4.0733,4.0733,4.064,4.053,4.0403,4.0434,4.0383,4.0317,4.0248,4.0177,4.0081,4.002,3.9935,3.9914,3.987,3.9848,3.9717,3.9532,3.9305,3.9073,3.8847,3.8628,3.8433,3.8354,3.8274,3.8259,3.8225,3.7703,3.7188,3.7055,3.6649,3.5882,3.5169,3.4847,3.4556,3.4455,3.3708,3.2861,3.2137,3.1835,3.1545,3.1221,3.1693,3.2386,3.2723,3.294,3.3757,3.4499,3.4723,3.2076,3.208,3.2092,3.2603,3.328,3.331,3.385,3.456,3.4598,3.4827,3.5114,3.519,3.4961,3.4789,3.5076,3.519,3.5362,3.5572,3.5821,3.6165,3.7101,3.7827,3.7636,3.8667,3.8629,3.8514,3.8763,3.9279,3.9603,3.9603,3.989,4.0253,4.0329,4.0329,4.0329,4.0329,4.031,4.0291,4.0234,4.0177,4.0081,3.926,3.7927,3.6805,3.6596,3.6614,3.6482,3.7546,3.8308,3.886,3.9604,3.9965,4.0021,4.0021,4.0061,4.006,4.0176,4.0193,4.0082,4.0174,4.0307,4.0287,4.0346,4.0429,4.0506,4.0515,4.0545,4.0515,4.05,4.0367,4.0317,4.03,4.0266,4.0194,4.0139,4.008,4.0019,3.9935,3.9848,3.9735,3.9647,3.9599,3.9575,3.9357,3.9017,3.8778,3.8554,3.8368,3.8225,3.8192,3.8192,3.8192,3.8158,3.7757,3.7226,3.7017,3.6684,3.5891,3.5413,3.5135,3.4979,3.4928,3.4884,3.4438,3.3829,3.3028,3.2746,3.251,3.3117,3.3616,3.3775,3.4001,3.4671,3.5182,3.5256,3.1589,3.1732,3.1397,3.2123,3.3257,3.2771,3.3168,3.4225,3.4163,3.4293,3.473,3.4864,3.4534,3.4174,3.4546,3.5012,3.5152,3.5229,3.5572,3.6031,3.6509,3.6948,3.7311,3.7617,3.7693,3.7521,3.754,3.7999,3.8954,3.9107,3.9546,4.0081,4.0329,4.0329,4.0329,4.0329,4.031,4.0253,4.0196,4.0138,3.9737,3.8954,3.7925,3.6576,3.6898,3.6784,3.6405,3.7468,3.815,3.8605,3.9269,3.9892,3.9889,3.9889,3.9889,3.9914,4.0101,4.008,4.0041,4.0043,4.0155,4.0156,4.021,4.0265,4.0323,4.0351,4.0317,4.0266,4.0266,4.023,4.0195,4.0194,4.0157,4.0101,4.0041,4.002,3.9935,3.9826,3.9693,3.9575,3.9433,3.9338,3.9287,3.9127,3.8807,3.8658,3.8478,3.8354,3.8192,3.8192,3.8192,3.8192,3.8106,3.7792,3.745,3.7208,3.6724,3.6062,3.5786,3.565,3.5508,3.5459,3.5346,3.5166,3.4919,3.4175,3.3946,3.3744,3.404,3.4327,3.4607,3.4878,3.5188,3.5329,3.5414,3.1979,3.2405,3.1026,3.0968,3.1771,3.1713,3.1785,3.2295,3.35,3.3737,3.3496,3.4071,3.4002,3.3651,3.3916,3.4568,3.5047,3.5258,3.5334,3.5624,3.6105,3.6449,3.6757,3.7426,3.7196,3.691,3.6757,3.7578,3.8514,3.8858,3.9336,3.9947,4.01,4.0272,4.0119,3.9966,4.0272,4.0158,4.008,3.9638,3.8874,3.8038,3.7449,3.7011,3.6746,3.6424,3.6405,3.7334,3.7883,3.7921,3.9134,3.9813,3.9889,3.9889,3.9889,3.9911,3.9933,3.9954,3.9911,3.9939,4.0023,4.0061,4.012,4.0177,4.0233,4.0248,4.0212,4.012,4.012,4.0081,4.002,3.9958,3.9935,3.9935,3.9956,3.9935,3.9889,3.9712,3.9599,3.9331,3.9154,3.9027,3.8943,3.8759,3.8585,3.851,3.8401,3.8274,3.8192,3.8192,3.8192,3.8192,3.814,3.7863,3.7577,3.7321,3.6939,3.6266,3.6156,3.6088,3.5915,3.58,3.5594,3.5414,3.5206,3.511,3.4829,3.4705,3.4817,3.4918,3.5043,3.52,3.5436,3.5475,3.5475,3.1163,3.1289,3.0609,3.0797,3.1506,3.1141,3.1503,3.2301,3.2621,3.2855,3.3149,3.3933,3.432,3.4251,3.3936,3.4217,3.5168,3.5424,3.5383,3.5326,3.5733,3.586,3.5971,3.6566,3.6719,3.6585,3.6587,3.7101,3.796,3.8285,3.8534,3.8858,3.9317,3.9527,3.9508,3.9069,3.9127,3.9147,3.8918,3.842,3.7866,3.7182,3.65,3.6102,3.6538,3.6557,3.667,3.8016,3.8471,3.8509,3.9342,3.9851,3.9889,3.9889,3.9889,3.9889,3.9889,3.9911,3.9889,3.9889,3.9937,3.9939,3.9994,4.0015,4.006,4.0081,4.0061,3.9979,3.9979,3.9956,3.9914,3.9889,3.9889,3.9889,3.9889,3.9889,3.9826,3.9623,3.9452,3.9173,3.8876,3.873,3.8609,3.8491,3.8401,3.8336,3.8271,3.8241,3.8192,3.8192,3.8192,3.8192,3.814,3.8002,3.7721,3.7432,3.717,3.6678,3.6574,3.6451,3.6241,3.6028,3.5827,3.5622,3.5431,3.5386,3.547,3.5323,3.5121,3.5256,3.5396,3.5429,3.5383,3.5383,3.5337,3.0505,3.0372,3.0375,3.0786,3.1342,3.075,3.1185,3.2222,3.199,3.2048,3.2569,3.3315,3.4284,3.4933,3.4158,3.4313,3.5557,3.5607,3.5562,3.5483,3.5432,3.5422,3.5565,3.5997,3.6214,3.6203,3.6052,3.6585,3.7139,3.7445,3.7484,3.7693,3.84,3.8629,3.8514,3.8267,3.8231,3.8861,3.8364,3.7867,3.7392,3.6689,3.5988,3.5874,3.6272,3.6898,3.6898,3.8281,3.9058,3.8963,3.9418,3.987,3.9889,3.9889,3.9889,3.9889,3.9889,3.9889,3.9889,3.9889,3.9889,3.9889,3.9889,3.9911,3.9911,3.9889,3.9889,3.9892,3.9892,3.9892,3.9889,3.9889,3.9889,3.9889,3.9889,3.9889,3.9826,3.9532,3.9261,3.8999,3.87,3.8382,3.8252,3.8189,3.814,3.8174,3.814,3.814,3.814,3.8158,3.8124,3.809,3.8038,3.7985,3.7828,3.7541,3.7281,3.7073,3.6974,3.6776,3.6516,3.6308,3.6097,3.5881,3.5677,3.5705,3.5776,3.5532,3.5308,3.5337,3.5383,3.5291,3.5291,3.5245,3.5198,3.0586,3.0586,3.0574,3.0586,3.0635,3.0529,3.0619,3.1072,3.1596,3.1534,3.1448,3.1971,3.329,3.4245,3.4559,3.4738,3.5618,3.5607,3.5588,3.5588,3.5585,3.5565,3.5649,3.571,3.5686,3.5656,3.5771,3.6135,3.6449,3.6826,3.7118,3.7617,3.7636,3.7731,3.7733,3.7619,3.7926,3.8404,3.8156,3.785,3.7337,3.6729,3.6198,3.616,3.6292,3.6594,3.7316,3.8495,3.8967,3.8817,3.9499,3.9892,3.9911,3.9889,3.9889,3.9889,3.9889,3.9889,3.9889,3.9889,3.9889,3.9889,3.9889,3.9889,3.9889,3.9889,3.9889,3.9889,3.9889,3.9889,3.9889,3.9889,3.9889,3.9889,3.9889,3.9889,3.9717,3.932,3.9054,3.8857,3.8548,3.8186,3.8054,3.8003,3.8038,3.8038,3.802,3.802,3.8003,3.7987,3.7987,3.7952,3.7952,3.7899,3.7899,3.7703,3.7522,3.7356,3.7226,3.6995,3.6719,3.6539,3.6357,3.6232,3.6122,3.6105,3.602,3.5633,3.5396,3.5337,3.5308,3.5198,3.5088,3.5041,3.4994,3.0734,3.0714,3.0735,3.07,3.0678,3.0686,3.0691,3.0773,3.1084,3.1426,3.1661,3.2031,3.3014,3.4198,3.4607,3.5003,3.5694,3.5772,3.5732,3.5678,3.567,3.591,3.6076,3.6279,3.6485,3.6645,3.6491,3.6252,3.6666,3.6642,3.63,3.65,3.6793,3.6821,3.686,3.7007,3.7521,3.7785,3.7427,3.6818,3.758,3.6892,3.6451,3.647,3.7712,3.7693,3.7922,3.903,3.9166,3.9185,3.964,3.9865,3.9933,3.9892,3.9892,3.9889,3.9889,3.9889,3.9889,3.9889,3.9889,3.9889,3.9889,3.9889,3.9889,3.9889,3.9889,3.9889,3.9889,3.9889,3.9889,3.9889,3.9889,3.9889,3.9889,3.9889,3.9731,3.9369,3.9222,3.9174,3.8564,3.7985,3.7934,3.7917,3.7934,3.7969,3.7916,3.7916,3.7899,3.7864,3.7864,3.7864,3.7828,3.7864,3.7864,3.781,3.7775,3.7631,3.7468,3.7281,3.7052,3.6838,3.6701,3.662,3.6481,3.6357,3.6105,3.5688,3.5453,3.5441,3.5228,3.5041,3.4947,3.4851,3.4787,3.0799,3.0799,3.0799,3.0799,3.0799,3.0799,3.0799,3.0857,3.1111,3.1856,3.2815,3.2888,3.359,3.4681,3.5032,3.5265,3.578,3.5878,3.5833,3.5794,3.585,3.6093,3.6445,3.6753,3.6945,3.7553,3.7549,3.7204,3.7244,3.6922,3.6543,3.6253,3.6131,3.6317,3.6124,3.6389,3.7028,3.7594,3.7383,3.6868,3.8041,3.7424,3.6983,3.6968,3.7702,3.7912,3.8046,3.8872,3.9334,3.9355,3.9623,4.0005,4.0,3.9956,3.9935,3.9892,3.9889,3.9911,3.9889,3.9889,3.9889,3.9889,3.9889,3.9889,3.9889,3.9889,3.9889,3.9889,3.9889,3.9889,3.9889,3.9889,3.9889,3.9889,3.9889,3.9889,3.9905,3.9677,3.9618,3.9537,3.8912,3.849,3.8618,3.8636,3.8062,3.7972,3.7775,3.7775,3.7775,3.7739,3.7775,3.7793,3.7793,3.7775,3.7775,3.7739,3.7685,3.7649,3.7559,3.7577,3.7374,3.7167,3.7091,3.7073,3.6917,3.662,3.6374,3.6122,3.5837,3.5543,3.5241,3.4851,3.4756,3.4691,3.4643,3.0784,3.0799,3.0799,3.0799,3.0784,3.0799,3.0838,3.1057,3.1758,3.2869,3.4077,3.4272,3.4739,3.5519,3.5538,3.5752,3.583,3.5889,3.5883,3.5878,3.5846,3.5852,3.6211,3.6636,3.7055,3.7149,3.7478,3.7815,3.7735,3.73,3.6826,3.6446,3.6281,3.6209,3.5589,3.6219,3.7417,3.8722,3.861,3.8703,3.8565,3.8082,3.7924,3.7813,3.7578,3.7766,3.8565,3.886,3.9284,3.9509,3.9917,4.0192,4.012,4.0101,4.006,3.9956,3.9954,3.9933,3.9911,3.9911,3.9889,3.9889,3.9889,3.9889,3.9889,3.9889,3.9889,3.9889,3.9889,3.9889,3.9889,3.9889,3.9889,3.9889,3.9889,4.0015,4.0071,4.0071,3.9989,4.0113,3.9795,3.9425,3.9572,3.9426,3.8546,3.8079,3.7774,3.7631,3.7667,3.7667,3.7703,3.7703,3.7703,3.7703,3.7685,3.7649,3.7613,3.7613,3.7613,3.7631,3.7594,3.7429,3.7374,3.7466,3.7223,3.6856,3.6736,3.6655,3.6097,3.5481,3.5008,3.4691,3.4594,3.4594,3.4643,3.0798,3.0798,3.0793,3.0798,3.0794,3.0793,3.1096,3.1739,3.2562,3.3303,3.3824,3.4311,3.47,3.5109,3.5655,3.5889,3.5889,3.5889,3.5889,3.5889,3.5942,3.6306,3.6631,3.6927,3.7125,3.7275,3.7753,3.7686,3.6484,3.7226,3.6906,3.6369,3.6202,3.6145,3.6311,3.667,3.7184,3.7662,3.8061,3.8485,3.8543,3.8755,3.889,3.8852,3.8469,3.8623,3.9326,3.9364,3.9287,3.9682,4.0188,4.0252,4.0208,4.0173,4.0194,4.0177,4.0158,4.012,4.0042,3.996,3.9892,3.9892,3.9889,3.9889,3.9889,3.9889,3.9889,3.9889,3.9889,3.9889,3.9889,3.9889,3.9889,3.9889,3.9984,4.0299,4.041,4.0359,4.0346,4.0685,4.0616,3.9966,3.9799,3.9914,3.9265,3.8492,3.8169,3.7757,3.7649,3.7631,3.7613,3.7613,3.7631,3.7613,3.7577,3.7577,3.7577,3.754,3.7577,3.7613,3.754,3.7466,3.7392,3.7317,3.7203,3.7048,3.6834,3.6533,3.5968,3.5436,3.5085,3.4961,3.5008,3.493,3.4804,3.0784,3.0801,3.0785,3.0788,3.0855,3.1133,3.1875,3.2908,3.357,3.396,3.4374,3.4871,3.51,3.5271,3.5582,3.5897,3.5891,3.5859,3.5853,3.5911,3.6242,3.6411,3.6754,3.7486,3.7872,3.793,3.8438,3.8568,3.7588,3.8287,3.7956,3.6955,3.6016,3.6211,3.6542,3.6819,3.7295,3.7924,3.8677,3.9025,3.9212,3.9424,3.963,3.9618,3.9438,3.9284,3.976,3.9695,3.9238,3.9709,3.9992,4.0087,4.0069,4.0213,4.0293,4.0317,4.03,4.0251,4.0176,4.0118,4.0077,4.008,3.9977,3.9911,3.9889,3.9889,3.9889,3.9889,3.9889,3.9889,3.9889,3.9889,3.9889,3.9867,4.0037,4.0352,4.0801,4.0772,4.1276,4.1553,4.1477,4.0772,3.9995,4.0068,3.9948,3.9229,3.8564,3.8187,3.7774,3.7738,3.7648,3.7577,3.7577,3.7577,3.7577,3.7577,3.7558,3.7521,3.7521,3.7503,3.7354,3.722,3.722,3.7143,3.7027,3.6869,3.6673,3.6367,3.6011,3.5749,3.5543,3.547,3.547,3.5287,3.5071,3.0797,3.0797,3.0797,3.0797,3.093,3.1636,3.2937,3.4452,3.4613,3.51,3.5816,3.5736,3.5752,3.5827,3.5909,3.5903,3.5891,3.5862,3.5854,3.6021,3.6378,3.6332,3.6828,3.7858,3.7877,3.8635,3.9238,3.9403,3.9344,3.9083,3.8625,3.797,3.6624,3.6775,3.7065,3.7344,3.7762,3.8257,3.9243,3.9591,3.9862,3.9862,4.0094,4.0004,3.9496,3.9284,3.938,3.9136,3.8742,3.8909,3.927,3.9451,3.9706,4.0106,4.0261,4.0367,4.037,4.0328,4.0291,4.0272,4.0271,4.0212,4.0061,3.9956,3.9892,3.9892,3.9889,3.9848,3.9848,3.9867,3.9867,3.9845,3.9845,3.9902,3.9996,4.0457,4.106,4.1555,4.2219,4.2454,4.2377,4.1736,4.0579,4.0364,4.0522,3.9765,3.912,3.8816,3.8438,3.8006,3.7862,3.7503,3.7503,3.7558,3.754,3.7466,3.7392,3.7297,3.7297,3.7259,3.7143,3.7027,3.7005,3.6926,3.6806,3.6643,3.6509,3.6409,3.6284,3.6028,3.5854,3.5766,3.5766,3.5498,3.5287,3.0801,3.08,3.0797,3.0798,3.0918,3.1729,3.2745,3.3805,3.4973,3.5776,3.5892,3.5965,3.5985,3.5978,3.5981,3.5953,3.5956,3.5962,3.5935,3.611,3.6304,3.6103,3.6473,3.7182,3.7143,3.7618,3.8403,3.9441,3.8346,3.8443,3.916,3.8872,3.7293,3.7514,3.7843,3.8102,3.8025,3.8353,3.9572,3.992,4.0172,4.0133,4.0384,4.0198,3.9702,3.9618,3.9857,3.9431,3.927,3.9901,4.0172,4.0359,4.0436,4.0617,4.0687,4.064,4.0545,4.045,4.0412,4.037,4.0336,4.0348,4.0229,4.0139,4.006,3.9977,3.987,3.9804,3.9758,3.9758,3.9712,3.967,3.967,3.9727,4.0028,4.0728,4.1393,4.2093,4.2754,4.3162,4.3052,4.2335,4.1212,4.1024,4.1058,4.0263,3.971,3.9428,3.885,3.8363,3.7932,3.7555,3.7354,3.7372,3.7241,3.7164,3.7143,3.7105,3.7105,3.7066,3.6948,3.6869,3.6806,3.6725,3.6602,3.6485,3.6343,3.6284,3.6284,3.6284,3.6114,3.6071,3.5985,3.5766,3.5633,3.0795,3.0793,3.0786,3.0786,3.101,3.2089,3.2948,3.3623,3.4896,3.5613,3.5929,3.5984,3.6018,3.5978,3.5962,3.596,3.5953,3.5898,3.5891,3.5949,3.6168,3.6123,3.6319,3.6813,3.7093,3.7353,3.805,3.9309,3.8316,3.8138,3.8741,3.8802,3.7588,3.7777,3.8152,3.8462,3.8547,3.8914,3.9475,3.9765,3.9939,4.0152,4.0481,4.0346,3.9932,4.0384,4.0578,3.9971,3.992,4.023,4.0268,4.0268,4.0365,4.0539,4.079,4.0746,4.07,4.0629,4.061,4.0554,4.0506,4.0457,4.0419,4.0356,4.0195,4.008,3.9854,3.9651,3.9647,3.9599,3.9551,3.9483,3.9508,3.9508,4.0265,4.1046,4.1769,4.2519,4.309,4.362,4.3373,4.2723,4.2218,4.1995,4.1708,4.1188,4.0671,4.0221,3.9351,3.8285,3.7818,3.7425,3.7259,3.7182,3.7027,3.693,3.6948,3.6908,3.6886,3.6829,3.6788,3.669,3.6568,3.6485,3.6402,3.6343,3.6284,3.6284,3.6284,3.6284,3.6284,3.6199,3.6156,3.6071,3.5985,3.0799,3.0799,3.0799,3.0801,3.1036,3.2502,3.3255,3.3476,3.4256,3.5127,3.5845,3.6014,3.601,3.5999,3.5955,3.5937,3.5929,3.59,3.5875,3.584,3.6343,3.6345,3.6417,3.719,3.693,3.7559,3.841,3.9217,3.9381,3.9135,3.8759,3.8362,3.7714,3.7807,3.8433,3.9034,3.9245,3.9379,3.992,4.0288,3.9572,3.9823,4.0474,4.001,4.0249,4.0771,4.0597,4.0164,3.9591,3.9623,3.9681,3.9785,4.0055,4.0384,4.0713,4.079,4.0778,4.0759,4.0739,4.0713,4.0713,4.0673,4.0607,4.0476,4.0304,4.0081,3.981,3.9628,3.9575,3.9477,3.9401,3.9357,3.9357,3.9563,4.0136,4.0745,4.1297,4.2137,4.2994,4.3367,4.3225,4.2612,4.2229,4.1926,4.2092,4.1891,4.1216,4.0652,3.9817,3.8496,3.7754,3.7309,3.7083,3.6948,3.6811,3.6731,3.6748,3.6725,3.6684,3.6626,3.6527,3.6426,3.6326,3.6301,3.6343,3.6343,3.6284,3.6284,3.6284,3.6284,3.6284,3.6284,3.6284,3.6241,3.6199,3.0794,3.0794,3.0794,3.0801,3.0919,3.1953,3.2814,3.3389,3.3592,3.455,3.5798,3.5975,3.6009,3.5995,3.5976,3.5976,3.5976,3.5957,3.5957,3.5918,3.625,3.6269,3.5898,3.6417,3.6437,3.678,3.77,3.9049,3.9403,3.9427,3.9375,3.9217,3.8526,3.8384,3.933,3.9902,3.9796,3.9847,4.0365,4.0699,4.0297,4.028,4.0636,4.0481,4.0752,4.079,4.0694,4.0636,4.0442,4.05,4.05,4.052,4.0539,4.0713,4.079,4.079,4.079,4.079,4.0759,4.0746,4.0733,4.07,4.0598,4.0454,4.0285,4.0041,3.9829,3.967,3.9502,3.9376,3.9245,3.9245,3.9256,3.9591,3.9983,4.0421,4.0859,4.1827,4.2861,4.2858,4.2846,4.2612,4.221,4.2168,4.234,4.1797,4.0854,4.0161,3.9725,3.8747,3.7699,3.7193,3.6881,3.6725,3.6609,3.655,3.6568,3.6527,3.6485,3.6385,3.6301,3.6301,3.6284,3.6284,3.6284,3.6284,3.6284,3.6284,3.6284,3.6284,3.6284,3.6284,3.6284,3.6284,3.6284,3.0755,3.076,3.0759,3.0767,3.0903,3.1683,3.2335,3.2781,3.3141,3.3856,3.4799,3.5218,3.5608,3.5908,3.6016,3.5996,3.5996,3.6016,3.5996,3.5976,3.5957,3.5996,3.5918,3.5879,3.5996,3.632,3.7256,3.8331,3.9101,3.8769,3.8535,3.873,3.8457,3.8974,4.0007,3.9967,4.0247,4.03,4.0776,4.0909,4.0865,4.0862,4.0532,4.0442,4.0539,4.0694,4.079,4.079,4.079,4.079,4.0752,4.0752,4.0732,4.0771,4.0778,4.0778,4.0778,4.0771,4.0726,4.07,4.0668,4.064,4.0626,4.0489,4.0441,4.0214,3.9876,3.9698,3.9551,3.9401,3.9219,3.9137,3.9137,3.9342,3.9974,4.057,4.1239,4.2095,4.2422,4.2199,4.2363,4.2742,4.2451,4.247,4.2662,4.2809,4.1669,4.0726,4.0071,3.893,3.7919,3.7236,3.6968,3.6626,3.6426,3.6367,3.6385,3.6326,3.6284,3.6284,3.6301,3.6284,3.6284,3.6284,3.6284,3.6284,3.6284,3.6284,3.6284,3.6284,3.6284,3.6284,3.6284,3.6284,3.6284,3.0678,3.0703,3.0703,3.0697,3.086,3.1793,3.2135,3.2177,3.2859,3.3259,3.3512,3.4237,3.5018,3.5601,3.5975,3.5975,3.5976,3.5937,3.5957,3.5976,3.5976,3.5957,3.5957,3.5976,3.6094,3.6406,3.7129,3.7754,3.8379,3.7969,3.7676,3.7461,3.793,3.8606,3.9043,3.9994,4.0906,4.0699,4.084,4.0985,4.0985,4.0946,4.051,4.0307,4.0346,4.0752,4.081,4.081,4.081,4.079,4.079,4.079,4.079,4.079,4.0765,4.0765,4.0746,4.0713,4.0648,4.0654,4.0646,4.0617,4.0588,4.0558,4.0508,4.0321,3.9982,3.9829,3.967,3.9477,3.9298,3.9351,3.9351,3.9472,4.0178,4.0894,4.1675,4.2251,4.1983,4.1715,4.2076,4.2556,4.263,4.2637,4.2884,4.3085,4.2644,4.1941,4.0926,3.9333,3.7972,3.7461,3.7171,3.6829,3.6409,3.6326,3.6326,3.6284,3.6284,3.6284,3.6284,3.6284,3.6284,3.6284,3.6284,3.6284,3.6284,3.6284,3.6284,3.6284,3.6284,3.6284,3.6301,3.6301,3.6259,3.0646,3.0703,3.0703,3.0697,3.0931,3.2338,3.266,3.2213,3.2862,3.3292,3.33,3.3466,3.4054,3.492,3.5607,3.5821,3.588,3.586,3.5841,3.584,3.5899,3.5918,3.5937,3.5976,3.6426,3.6758,3.7012,3.7324,3.7539,3.7344,3.7305,3.7344,3.8164,3.8672,3.8945,4.0,4.0937,4.0742,4.0894,4.1111,4.103,4.0985,4.0963,4.0861,4.088,4.0926,4.0906,4.0887,4.0848,4.081,4.079,4.079,4.079,4.0778,4.0733,4.072,4.07,4.0687,4.064,4.0612,4.0603,4.0588,4.0573,4.0523,4.0508,4.0489,4.027,4.0234,4.0053,3.9796,3.9701,4.0101,4.0237,4.0412,4.0903,4.1534,4.224,4.214,4.1842,4.175,4.1861,4.2043,4.2069,4.2298,4.2736,4.2584,4.1672,4.1048,4.1034,3.9589,3.8075,3.7767,3.7458,3.6891,3.6451,3.6409,3.6409,3.6326,3.6367,3.6474,3.6474,3.6284,3.6284,3.6284,3.6284,3.6284,3.6284,3.6284,3.6284,3.6284,3.6284,3.6284,3.6301,3.6216,3.6174]},{"header":{"parameterUnit":"m.s-1","parameterCategory":1,"la1":31.0,"la2":29.5877,"lo1":-88.7671,"lo2":-86.6584,"dy":0.0162,"dx":0.0185,"nx":115,"ny":88,"refTime":"2023-03-03T18:00:00:Z","depth":0,"parameterNumber":3,"parameterNumberName":"V-component_of_WINDS"},"data":[0.0,0.0,0.0,0.0,0.0,0.0,0.0,0.0,0.0,0.0,0.0,0.0,0.0,0.0,0.0,0.0,0.0,0.0,0.0,0.0,0.0,0.0,0.0,0.0,0.0,0.0,0.0,0.0,0.0,0.0,0.0,0.0,0.0,0.0,0.0,0.0,0.0,0.0,0.0,0.0,0.0,0.0,0.0,0.0,0.0,0.0,0.0,0.0,0.0,0.0,0.0,0.0,0.0,0.0,0.0,0.0,0.0,0.0,0.0,0.0,0.0,0.0,0.0,0.0,0.0,0.0,0.0,0.0,0.0,0.0,0.0,0.0,0.0,0.0,0.0,0.0,0.0,0.0,0.0,0.0,0.0,0.0,0.0,0.0,0.0,0.0,0.0,0.0,0.0,0.0,0.0,0.0,0.0,0.0,0.0,0.0,0.0,0.0,0.0,0.0,0.0,0.0,0.0,0.0,0.0,0.0,0.0,0.0,0.0,0.0,0.0,0.0,0.0,0.0,0.0,0.0,0.0,0.0,0.0,0.0,0.0,0.0,0.0,0.0,0.0,0.0,0.0,0.0,0.0,0.0,0.0,0.0,0.0,0.0,0.0,0.0,0.0,0.0,0.0,0.0,0.0,0.0,0.0,0.0,0.0,0.0,0.0,0.0,0.0,0.0,0.0,0.0,0.0,0.0,0.0,0.0,0.0,0.0,0.0,0.0,0.0,0.0,0.0,0.0,0.0,0.0,0.0,0.0,0.0,0.0,0.0,0.0,0.0,0.0,0.0,0.0,0.0,0.0,0.0,0.0,0.0,0.0,0.0,0.0,0.0,0.0,0.0,0.0,0.0,0.0,0.0,0.0,0.0,0.0,0.0,0.0,0.0,0.0,0.0,0.0,0.0,0.0,0.0,0.0,0.0,0.0,0.0,0.0,0.0,0.0,0.0,0.0,0.0,0.0,0.0,0.0,0.0,0.0,0.0,0.0,0.0,0.0,0.0,0.0,0.0,0.0,0.0,0.0,0.0,0.0,0.0,0.0,0.0,0.0,0.0,0.0,0.0,0.0,0.0,0.0,0.0,0.0,0.0,0.0,0.0,0.0,0.0,0.0,0.0,0.0,0.0,0.0,0.0,0.0,0.0,0.0,0.0,0.0,0.0,0.0,0.0,0.0,0.0,0.0,0.0,0.0,0.0,0.0,0.0,0.0,0.0,0.0,0.0,0.0,0.0,0.0,0.0,0.0,0.0,0.0,0.0,0.0,0.0,0.0,0.0,0.0,0.0,0.0,0.0,0.0,0.0,0.0,0.0,0.0,0.0,0.0,0.0,0.0,0.0,0.0,0.0,0.0,0.0,0.0,0.0,0.0,0.0,0.0,0.0,0.0,0.0,0.0,0.0,0.0,0.0,0.0,0.0,0.0,0.0,0.0,0.0,0.0,0.0,0.0,0.0,0.0,0.0,0.0,0.0,0.0,0.0,0.0,0.0,0.0,0.0,0.0,0.0,0.0,0.0,0.0,0.0,0.0,0.0,0.0,0.0,0.0,0.0,0.0,0.0,0.0,0.0,0.0,0.0,0.0,0.0,0.0,0.0,0.0,0.0,0.0,0.0,0.0,0.0,0.0,0.0,0.0,0.0,0.0,0.0,0.0,0.0,0.0,0.0,0.0,0.0,0.0,0.0,0.0,0.0,0.0,0.0,0.0,0.0,0.0,0.0,0.0,0.0,0.0,0.0,0.0,0.0,0.0,0.0,0.0,0.0,0.0,0.0,0.0,0.0,0.0,0.0,0.0,0.0,0.0,0.0,0.0,0.0,0.0,0.0,0.0,0.0,0.0,0.0,0.0,0.0,0.0,0.0,0.0,0.0,0.0,0.0,0.0,0.0,0.0,0.0,0.0,0.0,0.0,0.0,0.0,0.0,0.0,0.0,0.0,0.0,0.0,0.0,0.0,0.0,0.0,0.0,0.0,0.0,0.0,0.0,0.0,0.0,0.0,0.0,0.0,0.0,0.0,0.0,0.0,0.0,0.0,0.0,0.0,0.0,0.0,0.0,0.0,0.0,0.0,0.0,0.0,0.0,0.0,0.0,0.0,0.0,0.0,0.0,0.0,0.0,0.0,0.0,0.0,0.0,0.0,0.0,0.0,0.0,0.0,0.0,0.0,0.0,0.0,0.0,0.0,0.0,0.0,0.0,0.0,0.0,0.0,0.0,0.0,0.0,0.0,0.0,0.0,0.0,0.0,0.0,0.0,0.0,0.0,0.0,0.0,0.0,0.0,0.0,0.0,0.0,0.0,0.0,0.0,0.0,0.0,0.0,0.0,0.0,0.0,0.0,0.0,0.0,0.0,0.0,0.0,0.0,0.0,0.0,0.0,0.0,0.0,0.0,0.0,0.0,0.0,0.0,0.0,0.0,0.0,0.0,0.0,0.0,0.0,0.0,0.0,0.0,0.0,0.0,0.0,0.0,0.0,0.0,0.0,0.0,0.0,0.0,0.0,0.0,0.0,0.0,0.0,0.0,0.0,0.0,0.0,0.0,0.0,0.0,0.0,0.0,0.0,0.0,0.0,0.0,0.0,0.0,0.0,0.0,0.0,0.0,0.0,0.0,0.0,0.0,0.0,0.0,0.0,0.0,0.0,0.0,0.0,0.0,0.0,0.0,0.0,0.0,0.0,0.0,0.0,0.0,0.0,0.0,0.0,0.0,0.0,0.0,0.0,0.0,0.0,0.0,0.0,0.0,0.0,0.0,0.0,0.0,0.0,0.0,0.0,0.0,0.0,0.0,0.0,0.0,0.0,0.0,0.0,0.0,0.0,0.0,0.0,0.0,0.0,0.0,0.0,0.0,0.0,0.0,0.0,0.0,0.0,0.0,0.0,0.0,0.0,0.0,0.0,0.0,0.0,0.0,0.0,0.0,0.0,0.0,0.0,0.0,0.0,0.0,0.0,0.0,0.0,0.0,0.0,0.0,0.0,0.0,0.0,0.0,0.0,0.0,0.0,0.0,0.0,0.0,0.0,0.0,0.0,0.0,0.0,0.0,0.0,0.0,0.0,0.0,0.0,0.0,0.0,0.0,0.0,0.0,0.0,0.0,0.0,0.0,0.0,0.0,0.0,0.0,0.0,0.0,0.0,0.0,0.0,0.0,0.0,0.0,0.0,0.0,0.0,0.0,0.0,0.0,0.0,0.0,0.0,0.0,0.0,0.0,0.0,0.0,0.0,0.0,0.0,0.0,0.0,0.0,0.0,0.0,0.0,0.0,0.0,0.0,0.0,0.0,0.0,0.0,0.0,0.0,0.0,0.0,0.0,0.0,0.0,0.0,0.0,0.0,0.0,0.0,0.0,0.0,0.0,0.0,0.0,0.0,0.0,0.0,0.0,0.0,0.0,0.0,0.0,0.0,0.0,0.0,0.0,0.0,0.0,0.0,0.0,0.0,0.0,0.0,0.0,0.0,0.0,0.0,0.0,0.0,0.0,0.0,0.0,0.0,0.0,0.0,0.0,0.0,0.0,0.0,0.0,0.0,0.0,0.0,0.0,0.0,0.0,0.0,0.0,0.0,0.0,0.0,0.0,0.0,0.0,0.0,0.0,0.0,0.0,0.0,0.0,0.0,0.0,0.0,0.0,0.0,0.0,0.0,0.0,0.0,0.0,0.0,0.0,0.0,0.0,0.0,0.0,0.0,0.0,0.0,0.0,0.0,0.0,0.0,0.0,0.0,0.0,0.0,0.0,0.0,0.0,0.0,0.0,0.0,0.0,0.0,0.0,0.0,0.0,0.0,0.0,0.0,0.0,0.0,0.0,0.0,0.0,0.0,0.0,0.0,0.0,0.0,0.0,0.0,0.0,0.0,0.0,0.0,0.0,0.0,0.0,0.0,0.0,0.0,0.0,0.0,0.0,0.0,0.0,0.0,0.0,0.0,0.0,0.0,0.0,0.0,0.0,0.0,0.0,0.0,0.0,0.0,0.0,0.0,0.0,0.0,0.0,0.0,0.0,0.0,0.0,0.0,0.0,0.0,0.0,0.0,0.0,0.0,0.0,0.0,0.0,0.0,0.0,0.0,0.0,0.0,0.0,0.0,0.0,0.0,0.0,0.0,0.0,0.0,0.0,0.0,0.0,0.0,0.0,0.0,0.0,0.0,0.0,0.0,0.0,0.0,0.0,0.0,0.0,0.0,0.0,0.0,0.0,0.0,0.0,0.0,0.0,0.0,0.0,0.0,0.0,0.0,0.0,0.0,0.0,0.0,0.0,0.0,0.0,0.0,0.0,0.0,0.0,0.5259,0.0,0.0,0.0,0.0,0.0,0.0,0.0,0.0,0.0,0.0,0.0,0.0,0.0,0.0,0.0,0.0,0.0,0.0,0.0,0.0,0.0,0.0,0.0,0.0,0.0,0.0,0.0,0.0,0.0,0.0,0.0,0.0,0.0,0.0,0.0,0.0,0.0,0.0,0.0,0.0,0.0,0.0,0.0,0.0,0.0,0.0,0.0,0.0,0.0,0.0,0.0,0.0,0.0,0.0,0.0,0.0,0.0,0.0,0.0,0.0,0.0,0.0,0.0,0.0,0.0,0.0,0.0,0.0,0.0,0.0,0.0,0.0,0.0,0.0,0.0,0.0,0.0,0.0,0.0,0.0,0.0,0.0,0.0,0.0,0.0,0.0,0.0,0.0,0.0,0.0,0.0,0.0,0.0,0.0,0.0,0.0,0.0,0.0,0.0,0.0,0.0,0.0,0.0,0.0,0.0,0.0,0.0,0.0,0.0,0.0,0.4978,0.5273,0.4861,0.4931,0.5542,0.0,0.0,0.0,0.0,0.0,0.0,0.0,0.0,0.0,0.0,0.0,0.0,0.0,0.0,0.0,0.0,0.0,0.0,0.0,0.0,0.0,0.0,0.0,0.0,0.0,0.0,0.0,0.0,0.0,0.0,0.0,0.0,0.0,0.0,0.0,0.0,0.0,0.0,0.0,0.0,0.0,0.0,0.0,0.0,0.0,0.0,0.0,0.0,0.0,0.0,0.0,0.0,0.0,0.0,0.0,0.0,0.0,0.0,0.0,0.0,0.0,0.0,0.0,0.0,0.0,0.0,0.0,0.0,0.0,0.0,0.0,0.0,0.0,0.0,0.0,0.0,0.0,0.0,0.0,0.0,0.0,0.0,0.0,0.0,0.0,0.0,0.0,0.0,0.0,0.0,0.0,0.0,0.0,0.0,0.0,0.0,0.0,0.0,0.0,0.0,0.0,0.0,0.0,0.0,0.0,0.0,0.0,0.0,0.0,0.0,0.0,0.0,0.4964,0.5127,0.586,0.0,0.0,0.0,0.0,0.0,0.0,0.0,0.0,0.0,0.0,0.0,0.0,0.0,0.0,0.0,0.0,0.0,0.0,0.0,0.0,0.0,0.0,0.0,0.0,0.0,0.0,0.0,0.0,0.0,0.0,0.0,0.0,0.0,0.0,0.0,0.0,0.0,0.0,0.0,0.0,0.0,0.0,0.0,0.0,0.0,0.0,0.0,0.0,0.0,0.0,0.0,0.0,0.0,0.0,0.0,0.0,0.0,0.0,0.0,0.0,0.0,0.0,0.0,0.0,0.0,0.0,0.0,0.0,0.0,0.0,0.0,0.0,0.0,0.0,0.0,0.0,0.0,0.0,0.0,0.0,0.0,0.0,0.0,0.0,0.0,0.0,0.0,0.0,0.0,0.0,0.0,0.0,0.0,0.0,0.0,0.0,0.0,0.0,0.0,0.0,0.0,0.0,0.0,0.0,0.0,0.0,0.0,0.0,0.0,0.0,0.5265,0.5297,0.5233,0.0,0.61,0.0,0.0,0.0,0.0,0.0,0.0,0.0,0.0,0.0,0.0,0.0,0.0,0.0,0.0,0.0,0.0,0.0,0.0,0.0,0.0,0.0,0.0,0.0,0.0,0.0,0.0,0.0,0.0,0.0,0.0,0.0,0.0,0.0,0.0,0.0,0.0,0.0,0.0,0.0,0.0,0.0,0.0,0.0,0.0,0.0,0.0,0.0,0.0,0.0,0.0,0.0,0.0,0.0,0.0,0.0,0.0,0.0,0.0,0.0,0.0,0.0,0.0,0.0,0.0,0.0,0.0,0.0,0.0,0.0,0.0,0.0,0.0,0.0,0.0,0.0,0.0,0.0,0.0,0.0,0.0,0.0,0.0,0.0,0.0,0.0,0.0,0.0,0.0,0.0,0.0,0.0,0.0,0.0,0.0,0.0,0.0,0.0,0.0,0.0,0.0,0.0,0.0,0.0,0.0,0.0,0.0,0.0,0.0,0.0,0.0,0.5301,0.5301,0.5521,0.5786,0.0,0.0,0.0,0.0,0.0,0.0,0.0,0.0,0.0,0.0,0.0,0.0,0.0,0.0,0.0,0.0,0.0,0.0,0.0,0.0,0.0,0.0,0.0,0.0,0.0,0.0,0.0,0.0,0.0,0.0,0.0,0.0,0.0,0.0,0.0,0.0,0.0,0.0,0.0,0.0,0.0,0.0,0.0,0.0,0.0,0.0,0.0,0.0,0.0,0.0,0.0,0.0,0.0,0.0,0.0,0.0,0.0,0.0,0.0,0.0,0.0,0.0,0.0,0.0,0.0,0.0,0.0,0.0,0.0,0.0,0.0,0.0,0.0,0.0,0.0,0.0,0.0,0.0,0.0,0.0,0.0,0.0,0.0,0.0,0.0,0.0,0.0,0.0,0.0,0.0,0.0,0.0,0.0,0.0,0.0,0.0,0.0,0.0,0.0,0.0,0.0,0.0,0.0,0.0,0.0,0.0,0.0,0.0,0.0,0.0,0.5301,0.5301,0.5301,0.5631,0.5955,0.6209,0.0,0.0,0.0,0.0,0.0,0.0,0.0,0.0,0.0,0.0,0.0,0.0,0.0,0.0,0.0,0.0,0.0,0.0,0.0,0.0,0.0,0.0,0.0,0.0,0.0,0.0,0.0,0.0,0.0,0.0,0.0,0.0,0.0,0.0,0.0,0.0,0.0,0.0,0.0,0.0,0.0,0.0,0.0,0.0,0.0,0.0,0.0,0.0,0.0,0.0,0.0,0.0,0.0,0.0,0.0,0.0,0.0,0.0,0.0,0.0,0.0,0.0,0.0,0.0,0.0,0.0,0.0,0.0,0.0,0.0,0.0,0.0,0.0,0.0,0.0,0.0,0.0,0.0,0.0,0.0,0.0,0.0,0.0,0.0,0.0,0.0,0.0,0.0,0.0,0.0,0.0,0.0,0.0,0.0,0.0,0.0,0.0,0.0,0.0,0.0,0.0,0.0,0.0,0.0,0.0,0.0,0.0,0.0,0.5301,0.5301,0.5301,0.5297,0.5631,0.5896,0.0,0.0,0.0,0.0,0.0,0.0,0.0,0.0,0.0,0.0,0.0,0.0,0.0,0.0,0.0,0.0,0.0,0.0,0.0,0.0,0.0,0.0,0.0,0.0,0.0,0.0,0.0,0.0,0.0,0.0,0.0,0.0,0.0,0.0,0.0,0.0,0.0,0.0,0.0,0.0,0.0,0.0,0.0,0.0,0.0,0.0,0.0,0.0,0.0,0.0,0.0,0.0,0.0,0.0,0.0,0.0,0.0,0.0,0.0,0.0,0.0,0.0,0.0,0.0,0.0,0.0,0.0,0.0,0.0,0.0,0.0,0.0,0.0,0.0,0.0,0.0,0.0,0.0,0.0,0.0,0.0,0.0,0.0,0.0,0.0,0.0,0.0,0.0,0.0,0.0,0.0,0.0,0.0,0.0,0.0,0.0,0.0,0.0,0.0,0.0,0.0,0.0,0.0,0.0,0.0,0.0,0.0,0.0,0.0,0.5301,0.5301,0.5245,0.519,0.5562,0.5896,0.0,0.0,0.0,0.0,0.0,0.0,0.0,0.0,0.0,0.0,0.0,0.0,0.0,0.0,0.0,0.0,0.0,0.0,0.0,0.0,0.0,0.0,0.0,0.0,0.0,0.0,0.0,0.0,0.0,0.0,0.0,0.0,0.0,0.0,0.0,0.0,0.0,0.0,0.0,0.0,0.0,0.0,0.0,0.0,0.0,0.0,0.0,0.0,0.0,0.0,0.0,0.0,0.0,0.0,0.0,0.0,0.0,0.0,0.0,0.0,0.0,0.0,0.0,0.0,0.0,0.0,0.0,0.0,0.0,0.0,0.0,0.0,0.0,0.0,0.0,0.0,0.0,0.0,0.0,0.0,0.0,0.0,0.0,0.0,0.0,0.0,0.0,0.0,0.0,0.0,0.0,0.0,0.0,0.0,0.0,0.0,0.0,0.0,0.0,0.0,0.0,0.0,0.0,0.0,0.0,0.0,0.0,0.0,0.0,0.5267,0.0,0.5145,0.5144,0.5575,0.5931,0.0,0.0,0.0,0.0,0.0,0.0,0.0,0.0,0.0,0.0,0.0,0.0,0.0,0.0,0.0,0.0,0.0,0.0,0.0,0.0,0.0,0.0,0.0,0.0,0.0,0.0,0.0,0.0,0.0,0.0,0.0,0.0,0.0,0.0,0.0,0.0,0.0,0.0,0.0,0.0,0.0,0.0,0.0,0.0,0.0,0.0,0.0,0.0,0.0,0.0,0.0,0.0,0.0,0.0,0.0,0.0,0.0,0.0,0.0,0.0,0.0,0.0,0.0,0.0,0.0,0.0,0.0,0.0,0.0,0.0,0.0,0.0,0.0,0.0,0.0,0.0,0.0,0.0,0.0,0.0,0.0,0.0,0.0,0.0,0.0,0.0,0.0,0.0,0.0,0.0,0.0,0.0,0.0,0.0,0.0,0.0,0.0,0.0,0.0,0.0,0.0,0.0,0.0,0.0,0.0,0.0,0.0,0.0,0.5263,0.5092,0.4914,0.496,0.5124,0.5704,0.6101,0.0,0.0,0.0,0.0,0.0,0.0,0.0,0.0,0.0,0.0,0.0,0.0,0.0,0.0,0.0,0.0,0.0,0.0,0.0,0.0,0.0,0.0,0.0,0.0,0.0,0.0,0.0,0.0,0.0,0.0,0.0,0.0,0.0,0.0,0.0,0.0,0.0,0.0,0.0,0.0,0.0,0.0,0.0,0.0,0.0,0.0,0.0,0.0,0.0,0.0,0.0,0.0,0.0,0.0,0.0,0.0,0.0,0.0,0.0,0.0,0.0,0.0,0.0,0.0,0.0,0.0,0.0,0.0,0.0,0.0,0.0,0.0,0.0,0.0,0.0,0.0,0.0,0.0,0.0,0.0,0.0,0.0,0.0,0.0,0.0,0.0,0.0,0.0,0.0,0.0,0.0,0.0,0.0,0.0,0.0,0.0,0.0,0.0,0.0,0.0,0.0,0.0,0.0,0.0,0.0,0.0,0.0,0.0,0.0,0.5263,0.5267,0.5485,0.5836,0.6413,0.6884,0.0,0.0,0.0,0.0,0.0,0.0,0.0,0.0,0.0,0.0,0.0,0.0,0.0,0.0,0.0,0.0,0.0,0.0,0.0,0.0,0.0,0.0,0.0,0.0,0.0,0.0,0.0,0.0,0.0,0.0,0.0,0.0,0.0,0.0,0.0,0.0,0.0,0.0,0.0,0.0,0.0,0.0,0.0,0.0,0.0,0.0,0.0,0.0,0.0,0.0,0.0,0.0,0.0,0.0,0.0,0.0,0.0,0.0,0.0,0.0,0.0,0.0,0.0,0.0,0.0,0.0,0.0,0.0,0.0,0.0,0.0,0.0,0.0,0.0,0.0,0.0,0.0,0.0,0.0,0.0,0.0,0.0,0.0,0.0,0.0,0.0,0.0,0.0,0.0,0.0,0.0,0.0,0.0,0.0,0.0,0.0,0.0,0.0,0.0,0.0,0.0,0.0,0.0,0.0,0.0,0.0,0.0,0.0,0.0,0.6084,0.5981,0.609,0.6389,0.6778,0.7264,0.7772,0.0,0.0,0.0,0.0,0.0,0.0,0.0,0.0,0.0,0.0,0.0,0.0,0.0,0.0,0.0,0.0,0.0,0.0,0.0,0.0,0.0,0.0,0.0,0.0,0.0,0.0,0.0,0.0,0.0,0.0,0.0,0.0,0.0,0.0,0.0,0.0,0.0,0.0,0.0,0.0,0.0,0.0,0.0,0.0,0.0,0.0,0.0,0.0,0.0,0.0,0.0,0.0,0.0,0.0,0.0,0.0,0.0,0.0,0.0,0.0,0.0,0.0,0.0,0.0,0.0,0.0,0.0,0.0,0.0,0.0,0.0,0.0,0.0,0.0,0.0,0.0,0.0,0.0,0.0,0.0,0.0,0.0,0.0,0.0,0.0,0.0,0.0,0.0,0.0,0.0,0.0,0.0,0.0,0.0,0.0,0.0,0.0,0.0,0.0,0.0,0.0,0.0,0.0,0.0,0.0,0.0,0.0,0.0,0.7452,0.7117,0.6907,0.683,0.7062,0.7369,0.0,0.0,0.0,0.0,0.0,0.0,0.0,0.0,0.0,0.0,0.0,0.0,0.0,0.0,0.0,0.0,0.0,0.0,0.0,0.0,0.0,0.0,0.0,0.0,0.0,0.0,0.0,0.0,0.0,0.0,0.0,0.0,0.0,0.0,0.0,0.0,0.0,0.0,0.0,0.0,0.0,0.0,0.0,0.0,0.0,0.0,0.0,0.0,0.0,0.0,0.0,0.0,0.0,0.0,0.0,0.0,0.0,0.0,0.0,0.0,0.0,0.0,0.0,0.0,0.0,0.0,0.0,0.0,0.0,0.0,0.0,0.0,0.0,0.0,0.0,0.0,0.0,0.0,0.0,0.0,0.0,0.0,0.0,0.0,0.0,0.0,0.0,0.0,0.0,0.0,0.0,0.0,0.0,0.0,0.0,0.0,0.0,0.0,0.0,0.0,0.0,0.0,0.0,0.0,0.0,0.0,0.0,0.0,0.0,0.825,0.9219,0.9375,0.8451,0.8523,0.8463,0.0,0.0,0.0,0.0,0.0,0.0,0.0,0.0,0.0,0.0,0.0,0.0,0.0,0.0,0.0,0.0,0.0,0.0,0.0,0.0,0.0,0.0,0.0,0.0,0.0,0.0,0.0,0.0,0.0,0.0,0.0,0.0,0.0,0.0,0.0,0.0,0.0,0.0,0.0,0.0,0.0,0.0,0.0,0.0,0.0,0.0,0.0,0.0,0.0,0.0,0.0,0.0,0.0,0.0,0.0,0.0,0.0,0.0,0.0,0.0,0.0,0.0,0.0,0.0,0.0,0.0,0.0,0.0,0.0,0.0,0.0,0.0,0.0,0.0,0.0,0.0,0.0,0.0,0.0,0.0,0.0,0.0,0.0,0.0,0.0,0.0,0.0,0.0,0.0,0.0,0.0,0.0,0.0,0.0,0.0,0.0,0.0,0.0,0.0,0.0,0.0,0.0,0.0,0.0,0.0,0.0,0.0,0.0,0.8914,0.912,1.0476,1.0795,0.9893,0.9453,0.9233,0.0,0.0,0.0,0.0,0.0,0.0,0.0,0.0,0.0,0.0,0.0,0.0,0.0,0.0,0.0,0.0,0.0,0.0,0.0,0.0,0.0,0.0,0.0,0.0,0.0,0.0,0.0,0.0,0.0,0.0,0.0,0.0,0.0,0.0,0.0,0.0,0.0,0.0,0.0,0.0,0.0,0.0,0.0,0.0,0.0,0.0,0.0,0.0,0.0,0.0,0.0,0.0,0.0,0.0,0.0,0.0,0.0,0.0,0.0,0.0,0.0,0.0,0.0,0.0,0.0,0.0,0.0,0.0,0.0,0.0,0.0,0.0,0.0,0.0,0.0,0.0,0.0,0.0,0.0,0.0,0.0,0.0,0.0,0.0,0.0,0.0,0.0,0.0,0.0,0.0,0.0,0.0,0.0,0.0,0.0,0.0,0.0,0.0,0.0,0.0,0.0,0.0,0.0,0.0,0.0,0.0,0.0,0.0,0.9597,0.9799,1.0905,1.1363,1.1054,1.0102,0.9676,0.0,0.0,0.0,0.0,0.0,0.0,0.0,0.0,0.0,0.0,0.0,0.0,0.0,0.0,0.0,0.0,0.0,0.0,0.0,0.0,0.0,0.0,0.0,0.0,0.0,0.0,0.0,0.0,0.0,0.0,0.0,0.0,0.0,0.0,0.0,0.0,0.0,0.0,0.0,0.0,0.0,0.0,0.0,0.0,0.0,0.0,0.0,0.0,0.0,0.0,0.0,0.0,0.0,0.0,0.0,0.0,0.0,0.0,0.0,0.0,0.0,0.0,0.0,0.0,0.0,0.0,0.0,0.0,0.0,0.0,0.0,0.0,0.0,0.0,0.0,0.0,0.0,0.0,0.0,0.0,0.0,0.0,0.0,0.0,0.0,0.0,0.0,0.0,0.0,0.0,0.0,0.0,0.0,0.0,0.0,0.0,0.0,0.0,0.0,0.0,0.0,0.0,0.0,0.0,0.0,0.0,0.0,0.0,0.8945,0.9216,1.0418,1.1055,1.1133,1.0546,0.9849,0.0,0.0,0.0,0.0,0.0,0.0,0.0,0.0,0.0,0.0,0.0,0.0,0.0,0.0,0.0,0.0,0.0,0.0,0.0,0.0,0.0,0.0,0.0,0.0,0.0,0.0,0.0,0.0,0.0,0.0,0.0,0.0,0.0,0.0,0.0,0.0,0.0,0.0,0.0,0.0,0.0,0.0,0.0,0.0,0.0,0.0,0.0,0.0,0.2838,0.0,0.0,0.0,0.0,0.0,0.0,0.0,0.0,0.0,0.0,0.0,0.0,0.0,0.0,0.0,0.0,0.0,0.0,0.0,0.0,0.0,0.0,0.0,0.0,0.0,0.0,0.0,0.0,0.0,0.0,0.0,0.0,0.0,0.0,0.0,0.0,0.0,0.0,0.0,0.0,0.0,0.0,0.0,0.0,0.0,0.0,0.0,0.0,0.0,0.0,0.0,0.0,0.0,0.0,0.0,0.0,0.0,0.0,0.0,0.8933,0.9199,1.018,1.0666,1.0499,1.0151,0.9944,0.0,0.0,0.0,0.0,0.0,0.0,0.0,0.0,0.0,0.0,0.0,0.0,0.0,0.0,0.0,0.0,0.0,0.0,0.0,0.0,0.0,0.0,0.0,0.0,0.0,0.0,0.0,0.0,0.0,0.0,0.0,0.0,0.0,0.0,0.0,0.0,0.0,0.0,0.0,0.0,0.0,0.0,0.0,0.0,0.0,0.0,0.0,0.0,0.0,0.0,0.0,0.0,0.0,0.0,0.0,0.0,0.0,0.0,0.0,0.0,0.0,0.0,0.0,0.0,0.0,0.0,0.0,0.0,0.0,0.0,0.0,0.0,0.0,0.0,0.0,0.0,0.0,0.0,0.0,0.0,0.0,0.0,0.0,0.0,0.0,0.0,0.0,0.0,0.0,0.0,0.0,0.0,0.0,0.0,0.0,0.0,0.0,0.0,0.0,0.0,0.0,0.0,0.0,0.0,0.0,0.0,0.0,0.8201,0.8945,0.9215,0.9854,1.0129,0.9797,0.9467,0.974,1.068,0.0,0.0,0.0,0.0,0.0,0.0,0.0,0.0,0.0,0.0,0.0,0.0,0.0,0.0,0.0,0.0,0.0,0.0,0.0,0.0,0.0,0.0,0.0,0.0,0.0,0.0,0.0,0.0,0.0,0.0,0.0,0.0,0.0,0.0,0.0,0.0,0.0,0.0,-0.2389,0.0412,0.0,0.0,0.0,0.0,0.0,0.0,0.0,0.0,0.3474,0.0,0.0,0.0,0.0,0.0,0.0,0.0,0.0,0.0,0.0,0.0,0.0,0.0,0.0,0.0,0.0,0.0,0.0,0.0,0.0,0.0,0.0,0.0,0.0,0.0,0.0,0.0,0.0,0.0,0.0,0.0,0.0,0.0,0.0,0.0,0.0,0.0,0.0,0.0,0.0,0.0,0.0,0.0,0.0,0.0,0.0,0.0,0.0,0.0,0.0,0.0,0.0,0.0,0.0,0.0,0.0,0.709,0.7665,0.8149,0.8392,0.882,0.9128,0.9419,0.8687,0.8851,0.9989,0.0,0.0,0.0,0.0,0.0,0.0,0.0,0.0,0.0,0.0,0.0,0.0,0.0,0.0,0.0,0.0,0.0,0.0,0.0,0.0,0.0,0.0,0.0,0.0,0.0,0.0,0.0,0.0,0.0,0.0,0.0,0.0,0.0,0.0,0.0,0.0,0.0,0.0,0.0,0.0,0.2237,0.0,0.0,0.0,0.0,0.0,0.0,0.0,0.0,0.3688,0.0,0.0,0.0,0.0,0.0,0.0,0.0,0.0,0.0,0.0,0.0,0.0,0.0,0.0,0.0,0.0,0.0,0.0,0.0,0.0,0.0,0.0,0.0,0.0,0.0,0.0,0.0,0.0,0.0,0.0,0.0,0.0,0.0,0.0,0.0,0.0,0.0,0.0,0.0,0.0,0.0,0.0,0.0,0.0,0.0,0.0,0.0,0.0,0.0,0.0,0.0,0.0,0.0,0.0,0.0,0.6929,0.7565,0.7914,0.8202,0.8452,0.8584,0.8604,0.8365,0.8521,0.0,0.0,0.0,0.0,0.0,0.0,0.0,0.0,0.0,0.0,0.0,0.0,0.0,0.0,0.0,0.0,0.0,0.0,0.0,0.0,0.0,0.0,0.0,0.0,0.0,0.0,0.0,0.0,0.0,0.0,0.0,0.0,0.0,0.0,0.0,0.0,0.0,0.0,0.0,0.0,0.0242,0.2202,0.3974,0.0,0.0,0.0,0.0,0.0,0.0,0.386,0.4022,0.0,0.0,0.0,0.0,0.0,0.0,0.0,0.0,0.0,0.0,0.0,0.0,0.0,0.0,0.0,0.0,0.0,0.0,0.0,0.0,0.0,0.0,0.0,0.0,0.0,0.0,0.0,0.0,0.0,0.0,0.0,0.0,0.0,0.0,0.0,0.0,0.0,0.0,0.0,0.0,0.0,0.0,0.0,0.0,0.0,0.0,0.0,0.0,0.0,0.0,0.0,0.0,0.0,0.0,0.0,0.6816,0.7413,0.7887,0.8193,0.8332,0.8218,0.7879,0.8055,0.8174,0.0,0.0,0.0,0.0,0.0,0.0,0.0,0.0,0.0,0.0,0.0,0.0,0.0,0.0,0.0,0.0,0.0,0.0,0.0,0.0,0.0,0.0,0.0,0.0,0.0,0.0,0.0,0.0,0.0,0.0,0.0,0.0,0.0,0.0,0.0,0.0,0.0,0.0,0.0,0.0,0.0,0.2173,0.3909,0.4217,0.0,0.0,0.0,0.0,0.4099,0.4183,0.0,0.0,0.0,0.0,0.0,0.0,0.0,0.0,0.0,0.0,0.0,0.0,0.0,0.0,0.0,0.0,0.0,0.0,0.0,0.0,0.0,0.0,0.0,0.0,0.0,0.0,0.0,0.0,0.0,0.0,0.0,0.0,0.0,0.0,0.0,0.0,0.0,0.0,0.0,0.0,0.0,0.0,0.0,0.0,0.0,0.0,0.0,0.0,0.0,0.0,0.0,0.0,0.0,0.0,0.0,0.0,0.6726,0.7091,0.7568,0.8261,0.8444,0.8241,0.7728,0.7458,0.7644,0.0,0.0,0.0,0.0,0.0,0.0,0.0,0.0,0.0,0.0,0.0,0.0,0.0,0.0,0.0,0.0,0.0,0.0,0.0,0.0,0.0,0.0,0.0,0.0,0.0,0.0,0.0,0.0,0.0,0.0,0.0,0.0,0.0,0.0,0.0,0.0,0.0,0.0,0.0,0.0,0.0,0.1687,0.399,0.4393,0.441,0.0,0.0,0.4097,0.4064,0.4264,0.0,0.0,0.0,0.0,0.0,0.0,0.0,0.0,0.0,0.0,0.0,0.0,0.0,0.0,0.0,0.0,0.0,0.0,0.0,0.0,0.0,0.0,0.0,0.0,0.0,0.0,0.0,0.0,0.0,0.0,0.0,0.0,0.0,0.0,0.0,0.0,0.0,0.0,0.0,0.0,0.0,0.0,0.0,0.0,0.0,0.0,0.0,0.0,0.0,0.0,0.0,0.0,0.0,0.0,0.0,0.4863,0.6235,0.69,0.7485,0.8069,0.8375,0.8187,0.7471,0.7193,0.7258,0.0,0.0,0.0,0.0,0.0,0.0,0.0,0.0,0.0,0.0,0.0,0.0,0.0,0.0,0.0,0.0,0.0,0.0,0.0,0.0,0.0,0.0,0.0,0.0,0.0,0.0,0.0,0.0,0.0,0.0,0.0,0.0,0.0,0.0,0.0,0.0,0.0,0.0,0.0,0.0,0.0,0.0,0.3019,0.3975,0.0,0.0,0.0,0.452,0.4464,0.0,0.0,0.0,0.0,0.0,0.0,0.0,0.0,0.0,0.0,0.0,0.0,0.0,0.0,0.0,0.0,0.0,0.0,0.0,0.0,0.0,0.0,0.0,0.0,0.0,0.0,0.0,0.0,0.0,0.0,0.0,0.0,0.0,0.0,0.0,0.0,0.0,0.0,0.0,0.0,0.0,0.0,0.0,0.0,0.0,0.0,0.0,0.0,0.0,0.0,0.0,0.0,0.0,0.0,0.0,0.0,0.0,0.6071,0.657,0.7165,0.788,0.8172,0.7881,0.6993,0.691,0.0,0.0,0.0,0.0,0.0,0.0,0.0,0.0,0.0,0.0,0.0,0.0,0.0,0.0,0.0,0.0,0.0,0.0,0.0,0.0,0.0,0.0,0.0,0.0,0.0,0.0,0.0,-0.3865,0.0,0.0,0.0,0.0,0.0,0.0,0.0,0.0,0.0,0.0,0.0,0.0,0.0,0.0,0.0943,0.2304,0.375,0.4697,0.0,0.0,0.4814,0.4749,0.4694,0.4671,0.0,0.0,0.0,0.0,0.0,0.0,0.0,0.0,0.0,0.0,0.0,0.0,0.0,0.0,0.0,0.0,0.0,0.0,0.0,0.0,0.0,0.0,0.0,0.0,0.0,0.0,0.0,0.0,0.0,0.0,0.0,0.0,0.0,0.0,0.0,0.0,0.0,0.0,0.0,0.0,0.0,0.0,0.0,0.0,0.0,0.0,0.0,0.0,0.0,0.0,0.0,0.0,0.0,0.0,0.4709,0.6488,0.6032,0.651,0.7817,0.7779,0.7208,0.6136,0.6477,0.6735,0.0,0.0,0.0,0.0,0.0,0.0,0.0,0.0,0.0,0.0,0.0,0.0,0.0,0.0,0.0,0.0,0.0,0.0,0.0,0.0,0.0,0.0,0.0,0.0,0.0,0.0,0.0,0.0,0.0,0.0,0.0,0.0,0.0,0.0,0.0,0.0,0.0,0.0,0.0,0.0,0.0,0.0272,0.2225,0.3942,0.4899,0.0,0.476,0.4754,0.4531,0.4586,0.4577,0.4349,0.0,0.0,0.0,0.0,0.0,0.0,0.0,0.0,0.0,0.0,0.0,0.0,0.0,0.0,0.0,0.0,0.0,0.0,0.0,0.0,0.0,0.0,0.0,0.0,0.0,0.0,0.0,0.0,0.0,0.0,0.0,0.0,0.0,0.0,0.0,0.0,0.0,0.0,0.0,0.0,0.0,0.0,0.0,0.0,0.0,0.0,0.0,0.0,0.0,0.0,0.0,0.0,0.0,0.4551,0.6155,0.5862,0.6278,0.7454,0.737,0.6947,0.6178,0.6101,0.6005,0.0,0.0,0.0,0.0,0.0,0.0,0.0,0.0,0.0,0.0,0.0,0.0,0.0,0.0,0.0,0.0,0.0,0.0,0.0,0.0,0.0,0.0,0.0,0.0,0.0,0.0,0.0,0.0,-0.3862,-0.3607,-0.3104,0.0,0.0,0.0,0.0,0.0,0.0,0.0,0.0,0.0,0.0,-0.0071,0.222,0.3844,0.0,0.0,0.4741,0.4664,0.4496,0.458,0.4555,0.4325,0.4344,0.0,0.0,0.0,0.0,0.0,0.0,0.0,0.0,0.0,0.0,0.0,0.0,0.0,0.0,0.0,0.0,0.0,0.0,0.0,0.0,0.0,0.0,0.0,0.0,0.0,0.0,0.0,0.0,0.0,0.0,0.0,0.0,0.0,0.0,0.0,0.0,0.0,0.0,0.0,0.0,0.0,0.0,0.0,0.0,0.0,0.0,0.0,0.0,0.0,0.0,0.0,0.0,0.4519,0.5797,0.5584,0.5951,0.6939,0.6805,0.6516,0.5948,0.5772,0.5557,0.0,0.0,0.0,0.0,0.0,0.0,0.0,0.0,0.0,0.0,0.0,0.0,0.0,0.0,0.0,0.0,0.0,0.0,0.0,0.0,0.0,0.0,0.0,0.0,0.0,0.0,0.0,0.0,-0.4179,-0.4022,-0.3724,0.0,0.0,0.0,0.0,0.0,0.0,0.0,0.0,0.0,0.0,-0.0285,0.2013,0.3776,0.4792,0.4819,0.4762,0.4675,0.4591,0.4518,0.4442,0.4368,0.0,0.0,0.0,0.0,0.0,0.0,0.0,0.0,0.0,0.0,0.0,0.0,0.0,0.0,0.0,0.0,0.0,0.0,0.0,0.0,0.0,0.0,0.0,0.0,0.0,0.0,0.0,0.1959,0.0,0.0,0.3543,0.0,0.0,0.0,0.0,0.0,0.0,0.0,0.0,0.0,0.0,0.0,0.0,0.0,0.0,0.0,0.0,0.0,0.0,0.0,0.0,0.0,0.0,0.4632,0.566,0.5167,0.5355,0.6182,0.6077,0.5757,0.5178,0.5586,0.5658,0.5394,0.0,0.0,0.0,0.0,0.0,0.0,0.0,0.0,0.0,0.0,0.0,0.0,0.0,0.0,0.0,0.0,0.0,0.0,0.0,0.0,0.0,0.0,0.0,0.0,0.0,0.0,-0.4201,-0.4342,-0.4473,0.0,0.0,0.0,0.0,0.0,0.0,0.0,0.0,0.0,-0.1216,-0.1081,-0.0341,0.1815,0.3732,0.4936,0.4817,0.4825,0.4825,0.4814,0.4624,0.4471,0.0,0.0,0.0,0.0,0.0,0.0,0.0,0.0,0.0,0.0,0.0,0.0,0.0,0.0,0.0,0.0,0.0,0.0,0.0,0.0,0.0,0.0,0.0,0.0,0.0,0.0,0.0,0.1552,0.2994,0.0,0.0,0.0,0.0,0.0,0.0,0.0,0.0,0.0,0.0,0.0,0.4429,0.4587,0.0,0.0,0.0,0.0,0.0,0.0,0.0,0.0,0.0,0.0,0.0,0.0,0.4527,0.5041,0.5018,0.5332,0.6014,0.5743,0.548,0.5349,0.5424,0.5448,0.5219,0.0,0.0,0.0,0.0,0.0,0.0,0.0,0.0,0.0,0.0,0.0,0.0,0.0,0.0,0.0,0.0,0.0,0.0,0.0,0.0,0.0,0.0,0.0,0.0,0.0,-0.4216,0.0,0.0,0.0,0.0,0.0,0.0,0.0,0.0,0.0,0.0,0.0,-0.2211,-0.1384,-0.0703,-0.0071,0.063,0.2894,0.4599,0.0,0.0,0.0,0.0,0.0,0.0,0.0,0.0,0.0,0.0,0.0,0.0,0.0,0.0,-0.4005,-0.5085,-0.5611,-0.6021,-0.6556,0.0,0.0,0.0,0.0,0.0,0.0,0.0,0.0,0.0,0.0,0.0,0.0,0.0,0.0,0.2032,0.0,0.08,0.0,0.0,0.0,0.0,0.0,0.0,0.0,0.0,0.3677,0.4331,0.4751,0.4827,0.4677,0.0,0.4295,0.4006,0.0,0.0,0.0,0.0,0.0,0.0,0.0,0.0,0.3638,0.442,0.4641,0.5115,0.5806,0.5533,0.5452,0.544,0.5456,0.5359,0.5223,0.5071,0.5,0.0,0.0,0.0,0.0,0.0,0.0,0.0,0.0,0.0,0.0,0.0,0.0,0.0,0.0,0.0,0.0,0.0,0.0,0.0,0.0,0.0,0.0,0.0,-0.4221,0.0,0.0,0.0,0.0,0.0,0.0,0.0,0.0,0.0,-0.4134,-0.3176,-0.2057,-0.0994,-0.0358,0.0,0.0,0.0,0.0,0.0,0.0,0.0,0.0,0.0,0.4756,0.4646,0.3657,0.2589,0.1724,-0.0742,-0.2895,-0.3781,0.0,0.0,-0.4968,-0.546,-0.5997,-0.6524,-0.6977,-0.7422,-0.7593,-0.7969,-0.8232,0.0,0.0,0.0,0.0,0.0,0.0,0.0,0.0,0.4774,0.3217,0.0,0.0247,0.0,0.0,0.0,0.0,0.1354,0.3982,0.0,0.0,0.4775,0.5333,0.4764,0.5151,0.5309,0.5319,0.4186,0.3094,0.2277,0.347,0.0,0.0,0.0,0.0,0.0,0.0,0.2093,0.388,0.4051,0.4623,0.5555,0.5511,0.5437,0.5566,0.5437,0.5428,0.5362,0.5219,0.509,0.5096,0.4646,0.0,0.0,0.0,0.0,0.0,0.0,0.0,0.0,0.0,0.0,0.0,0.0,0.0,0.0,0.0,0.0,0.0,0.0,0.0,0.0,-0.4239,0.0,0.0,0.0,0.0,0.0,0.0,0.0,0.0,0.0,-0.4772,-0.4859,-0.3371,-0.1673,-0.0291,0.0,0.0,0.0,0.0,0.1029,0.3699,0.4555,0.4929,0.5023,0.4852,0.4739,0.4936,0.0,0.0,-0.268,-0.3856,-0.4046,-0.4129,-0.4655,-0.4887,-0.4189,-0.5315,-0.6133,-0.5912,-0.6791,-0.7551,-0.7365,-0.7941,-0.8522,0.6798,0.0,0.0,0.0,0.0,0.4656,0.4703,0.464,0.4842,0.4124,0.2623,0.1309,0.0,0.0,0.0,0.0,0.0,0.0,0.4044,0.4833,0.4947,0.5151,0.5506,0.5514,0.524,0.4749,0.4801,0.4018,0.2351,0.1812,0.1298,0.0789,0.0,0.0,0.0,0.0,0.2574,0.3418,0.4069,0.4766,0.5426,0.5559,0.5491,0.543,0.5449,0.5428,0.5428,0.5359,0.5343,0.5443,0.4576,0.0,0.0,0.0,0.0,0.0,0.0,0.0,0.0,0.0,0.0,0.0,0.0,0.0,0.0,0.0,0.0,0.0,0.0,0.0,-0.4367,-0.4431,-0.4607,0.0,0.0,0.0,0.0,0.0,0.0,0.0,0.0,0.0,-0.4809,-0.44,-0.3495,0.0,0.0,-0.1372,-0.0146,-0.0146,0.0073,0.1129,0.2203,0.0,0.4781,0.3977,0.3597,0.48,0.1486,-0.1948,-0.3653,-0.3909,-0.4044,-0.4589,-0.4845,-0.4985,-0.5093,-0.5736,-0.6339,-0.6311,-0.6613,-0.6998,-0.7401,-0.7753,-0.8178,0.7496,0.6489,0.5311,0.4803,0.4699,0.4836,0.49,0.4903,0.5104,0.4695,0.3758,0.2277,0.1328,0.0787,0.1335,0.0,0.0,0.0,0.4458,0.5415,0.527,0.5478,0.5969,0.5833,0.5516,0.5032,0.5312,0.4654,0.3,0.1817,0.1229,0.1111,0.0,0.0,0.1095,0.1641,0.24,0.3326,0.3802,0.4571,0.5538,0.5572,0.5518,0.5435,0.5428,0.5428,0.5428,0.516,0.4995,0.508,0.4338,0.3724,0.0,0.0,0.0,0.0,0.0,0.0,0.0,0.0,0.0,0.0,0.0,-0.4213,-0.4545,0.0,0.0,0.0,-0.4615,-0.4567,-0.4383,-0.4501,0.0,0.0,0.0,0.0,0.0,0.0,0.0,-0.4893,-0.4961,-0.4925,-0.4898,-0.4849,-0.4502,-0.3599,-0.3497,-0.3115,-0.2097,0.0,-0.119,-0.0991,0.0306,0.1693,0.2813,0.219,0.1688,0.2101,-0.1067,-0.3885,-0.4384,-0.4342,-0.4442,-0.5081,-0.5431,-0.568,-0.5767,-0.6388,-0.675,-0.637,-0.6582,-0.7063,-0.7605,-0.8017,-0.8601,0.7765,0.721,0.5998,0.5367,0.5078,0.5009,0.5137,0.5345,0.5338,0.4948,0.422,0.3145,0.2144,0.1344,0.2627,0.0,0.3017,0.4859,0.5418,0.5124,0.5741,0.6122,0.6254,0.6098,0.5956,0.582,0.5597,0.5024,0.3935,0.2942,0.2034,0.1237,0.1152,0.1138,0.1121,0.1124,0.1847,0.3342,0.3425,0.4147,0.5584,0.5447,0.5378,0.5233,0.5226,0.5226,0.5226,0.4556,0.422,0.422,0.3964,0.3565,0.3092,0.0,0.0,0.0,0.0,0.0,0.0,0.0,0.0,0.0,0.0,0.0,0.0,0.0,0.0,-0.4629,-0.4686,0.0,-0.4555,-0.4586,0.0,0.0,0.0,-0.4948,-0.5183,-0.5035,-0.4938,-0.5064,0.0,0.0,-0.5029,-0.5029,-0.5021,-0.5029,-0.501,-0.4983,-0.5015,-0.3609,-0.267,-0.2728,-0.1406,-0.0391,-0.0078,-0.0311,-0.091,-0.1992,-0.3349,-0.4414,-0.5006,-0.5036,-0.5181,-0.5665,-0.6298,-0.6742,-0.6565,-0.7262,-0.7527,-0.6538,-0.6924,-0.7608,-0.8089,-0.8806,-0.9506,0.6989,0.6459,0.6421,0.5895,0.5135,0.5236,0.5253,0.5186,0.5186,0.4857,0.4284,0.4018,0.3524,0.2904,0.3184,0.365,0.4319,0.4848,0.5368,0.5806,0.6076,0.6224,0.6251,0.6101,0.6013,0.5973,0.5785,0.4991,0.3676,0.3405,0.2545,0.1238,0.1217,0.1213,0.1155,0.1155,0.1592,0.2546,0.2671,0.3189,0.3996,0.3895,0.379,0.3754,0.3749,0.3751,0.3682,0.3549,0.3485,0.3485,0.2883,0.2551,0.2619,0.0343,0.0,0.0,0.0,0.0,0.0,0.0,0.0,0.0,0.0,-0.4787,-0.4616,0.0,-0.483,0.0,-0.4821,-0.4825,-0.4682,-0.4637,0.0,0.0,-0.4927,-0.5023,-0.5281,-0.5144,-0.5095,-0.5156,-0.5026,-0.505,-0.5257,-0.5129,-0.5048,-0.5129,-0.5048,-0.4988,-0.5015,-0.4683,-0.4436,-0.4309,-0.3999,-0.3368,-0.2187,-0.2884,-0.3763,-0.4624,-0.4812,-0.5047,-0.5632,-0.5563,-0.5739,-0.6379,-0.7019,-0.7495,-0.7694,-0.8482,-0.9003,-0.893,-0.8557,-0.8468,-0.9451,-0.9867,-1.0226,0.6578,0.6258,0.6141,0.5754,0.5233,0.537,0.5301,0.5233,0.5233,0.5085,0.4761,0.4481,0.3991,0.3424,0.3815,0.4321,0.4868,0.5241,0.5689,0.6139,0.6224,0.6103,0.5705,0.5628,0.5333,0.49,0.4831,0.4135,0.3032,0.2959,0.2383,0.1283,0.1282,0.1283,0.1281,0.1194,0.1564,0.2334,0.2717,0.3135,0.3491,0.3329,0.3259,0.3211,0.3238,0.3234,0.3207,0.2902,0.2696,0.2729,0.205,0.171,0.1848,0.0555,-0.1246,0.0,0.0,0.0,0.0,0.0,0.0,0.0,0.0,0.0,0.0,0.0,-0.4931,-0.4861,-0.4842,-0.4809,-0.4735,-0.4828,-0.4991,-0.5134,-0.5134,-0.5185,-0.5317,-0.5266,-0.5277,-0.5333,-0.5211,-0.52,-0.5276,-0.5222,-0.5175,-0.5186,-0.5132,-0.5075,-0.5026,-0.5018,-0.5021,-0.5023,-0.5023,-0.4709,-0.3756,-0.4561,-0.5411,-0.5596,-0.5717,-0.5854,-0.6332,-0.6324,-0.6527,-0.7321,-0.7842,-0.8254,-0.8708,-0.9538,-1.0227,-1.0488,-1.0538,-1.0603,-1.1019,-1.1279,-1.1682,0.6133,0.6075,0.5579,0.5312,0.5093,0.5113,0.5246,0.5428,0.5452,0.547,0.5426,0.493,0.4289,0.3813,0.4547,0.495,0.522,0.5757,0.6129,0.6257,0.618,0.5712,0.5004,0.4927,0.4409,0.3567,0.3567,0.3113,0.2353,0.2353,0.1998,0.1335,0.1336,0.1336,0.1335,0.123,0.1615,0.2352,0.2916,0.3224,0.3216,0.3061,0.3013,0.3002,0.2925,0.2982,0.2982,0.231,0.2035,0.2014,0.1463,0.1116,0.1116,0.0909,-0.0762,0.0,-0.4406,0.0,0.0,0.0,0.0,0.0,0.0,0.0,0.0,-0.4856,-0.4921,-0.4887,-0.4864,-0.4863,-0.4879,-0.5067,-0.5192,-0.5208,-0.5303,-0.5371,-0.5368,-0.5371,-0.5374,-0.539,-0.5379,-0.5333,-0.529,-0.533,-0.5325,-0.526,-0.5389,-0.5419,-0.5244,-0.5118,-0.5015,-0.5096,-0.5093,-0.5093,-0.5079,-0.5524,-0.5956,-0.601,-0.6313,-0.6679,-0.7044,-0.7219,-0.7495,-0.8289,-0.8619,-0.9,-0.964,-1.0547,-1.1322,-1.1844,-1.2508,-1.2872,-1.248,-1.2622,-1.3125,0.4683,0.4764,0.5232,0.473,0.3623,0.3637,0.4308,0.5435,0.5494,0.5613,0.5718,0.5603,0.5538,0.5497,0.5673,0.5842,0.6056,0.6217,0.6234,0.6261,0.5553,0.516,0.5002,0.43,0.39,0.373,0.373,0.3344,0.2493,0.2415,0.2032,0.1336,0.1336,0.1336,0.1335,0.0,0.0,0.0,0.1642,0.1695,0.1653,0.1612,0.1574,0.1541,0.1499,0.0,0.1489,0.1347,0.128,0.1286,0.1154,0.0,0.0,0.0,0.0,0.0,0.0,0.0,0.0,0.0,0.0,0.0,-0.445,-0.4585,-0.4685,-0.4795,-0.485,-0.4803,-0.4912,-0.5021,-0.511,-0.5156,-0.5227,-0.5322,-0.5358,-0.5371,-0.5371,-0.5374,-0.5404,-0.5504,-0.5434,-0.5439,-0.5578,-0.5485,-0.5401,-0.5453,-0.5895,-0.615,-0.6122,-0.5533,-0.5254,-0.5631,-0.5709,-0.5712,-0.5709,-0.5822,-0.6264,-0.6896,-0.7138,-0.7319,-0.7633,-0.8122,-0.8374,-0.8668,-0.939,-1.0338,-1.1017,-1.1705,-1.2591,-1.3657,-1.4091,-1.4055,-1.3399,-1.3331,-1.3425,0.3806,0.3842,0.4164,0.3901,0.0,0.2518,0.3011,0.4382,0.4858,0.5316,0.5803,0.5881,0.5956,0.6034,0.6108,0.6186,0.6261,0.6261,0.6103,0.5631,0.516,0.4535,0.3759,0.3405,0.3008,0.2589,0.2568,0.2327,0.1887,0.1906,0.1669,0.1336,0.1336,0.1336,0.1336,0.1336,0.1336,0.1336,0.1336,0.1235,0.1191,0.1174,0.1152,0.1122,0.0819,0.0,0.0,0.0,0.0,0.0,0.0,0.0,0.0,0.0139,0.0,-0.2567,-0.3868,-0.4599,-0.4475,-0.4444,-0.4402,-0.4477,-0.4583,-0.4651,-0.4723,-0.4819,-0.4925,-0.4928,-0.5031,-0.5124,-0.5181,-0.5292,-0.5388,-0.545,-0.5515,-0.5548,-0.5548,-0.5551,-0.5572,-0.5621,-0.5586,-0.5583,-0.5635,-0.5602,-0.5545,-0.5548,-0.6093,-0.6551,-0.6525,-0.6303,-0.6182,-0.6342,-0.6402,-0.6402,-0.6395,-0.6652,-0.6885,-0.7555,-0.8161,-0.8486,-0.8463,-0.9017,-0.9647,-0.9918,-1.0577,-1.1274,-1.2328,-1.3,-1.3674,-1.4341,-1.4991,-1.5274,-1.4972,-1.4855,-1.4963,0.3086,0.3104,0.2896,0.2848,0.2732,0.1647,0.1949,0.3187,0.3966,0.0,0.0,0.5601,0.5588,0.5616,0.5786,0.5839,0.5858,0.5811,0.55,0.4747,0.4651,0.3866,0.2544,0.2428,0.2023,0.1356,0.1324,0.1322,0.1275,0.1299,0.1298,0.1275,0.1273,0.135,0.1345,0.1344,0.1262,0.1179,0.1258,0.1233,0.1036,0.1025,0.0938,0.0776,0.041,0.034,0.0764,0.0408,0.0408,0.0903,0.1043,0.0976,0.07,0.042,-0.1044,-0.3717,-0.4268,-0.4453,-0.4669,-0.4605,-0.4587,-0.4683,-0.4776,-0.4758,-0.4758,-0.4944,-0.5026,-0.5045,-0.5132,-0.5203,-0.5246,-0.5428,-0.5472,-0.5494,-0.5673,-0.573,-0.573,-0.5733,-0.5725,-0.5733,-0.5725,-0.5697,-0.5523,-0.567,-0.57,-0.5869,-0.6442,-0.6939,-0.7059,-0.7334,-0.7247,-0.695,-0.7009,-0.7142,-0.7099,-0.7391,-0.7783,-0.7995,-0.9064,-0.9686,-0.946,-0.9916,-1.0712,-1.1347,-1.1637,-1.2205,-1.3381,-1.4154,-1.4697,-1.4815,-1.5671,-1.6472,-1.6585,-1.6585,-1.6687,0.2323,0.2319,0.1638,0.1406,0.1444,0.1264,0.1727,0.2618,0.3364,0.3832,0.4071,0.4084,0.4136,0.4127,0.4142,0.4155,0.414,0.4143,0.4075,0.3896,0.3256,0.2853,0.2576,0.1839,0.1422,0.1336,0.1344,0.1343,0.1336,0.1339,0.1339,0.1335,0.1335,0.1322,0.1299,0.1296,0.1043,0.0472,0.1022,0.1018,0.0466,0.0522,0.0218,-0.0362,-0.0345,-0.0336,-0.027,-0.0337,-0.0135,0.0405,0.0879,0.1094,0.0979,-0.042,-0.1696,-0.2662,-0.3107,-0.3761,-0.4632,-0.4643,-0.4697,-0.4798,-0.4825,-0.4758,-0.4838,-0.4947,-0.5059,-0.5148,-0.5184,-0.5276,-0.5466,-0.5443,-0.551,-0.5687,-0.5719,-0.5733,-0.5733,-0.5733,-0.5733,-0.5733,-0.5733,-0.5733,-0.5708,-0.5719,-0.5988,-0.6489,-0.7162,-0.8009,-0.8645,-0.8604,-0.7987,-0.743,-0.7628,-0.7803,-0.7748,-0.7706,-0.8093,-0.847,-0.9306,-0.9974,-0.9746,-1.0594,-1.1445,-1.1869,-1.2319,-1.3014,-1.4139,-1.4864,-1.54,-1.5864,-1.6528,-1.7202,-1.7589,-1.7754,-1.771,0.1505,0.1194,0.1224,0.0983,0.0657,0.0674,0.0763,0.0925,0.1465,0.2592,0.3728,0.3777,0.382,0.3851,0.3816,0.3818,0.3853,0.3854,0.3533,0.3181,0.274,0.2326,0.1935,0.1533,0.1363,0.135,0.1381,0.1379,0.1352,0.1363,0.1363,0.135,0.1348,0.1088,0.0829,0.0745,0.0409,-0.024,0.0395,0.039,-0.0231,-0.0149,-0.029,-0.0571,-0.0824,-0.0806,-0.0538,-0.0806,-0.0672,-0.0134,0.0403,0.0811,0.1028,0.0139,-0.148,-0.3648,-0.4031,-0.4311,-0.4833,-0.4891,-0.4874,-0.4928,-0.4934,-0.4934,-0.4931,-0.504,-0.5129,-0.5186,-0.5301,-0.5426,-0.5456,-0.561,-0.5673,-0.5725,-0.5733,-0.5733,-0.5733,-0.5733,-0.5733,-0.5733,-0.5733,-0.5733,-0.5733,-0.6083,-0.6343,-0.6864,-0.7658,-0.8765,-0.9647,-0.9473,-0.8998,-0.8391,-0.8383,-0.8456,-0.8286,-0.8241,-0.8627,-0.9236,-0.9986,-1.0553,-1.0833,-1.1844,-1.2825,-1.3328,-1.3869,-1.4533,-1.5289,-1.5861,-1.6242,-1.6275,-1.709,-1.7754,-1.8038,-1.8321,-1.8483,0.0544,0.0153,0.0623,0.0538,0.0,0.0076,-0.0154,-0.055,-0.0079,0.1123,0.2679,0.3073,0.329,0.3233,0.3303,0.322,0.323,0.3286,0.2869,0.2384,0.2288,0.1952,0.1369,0.1391,0.1389,0.1374,0.1414,0.1412,0.1375,0.139,0.1303,0.1113,0.1111,0.0767,0.0085,0.0085,-0.0251,-0.0818,-0.04,-0.0391,-0.084,-0.0815,-0.0866,-0.099,-0.1301,-0.1344,-0.0941,-0.1277,-0.1277,-0.0739,-0.0269,0.027,0.1027,0.0838,-0.0924,-0.3979,-0.4412,-0.4579,-0.4969,-0.4966,-0.5018,-0.5018,-0.5018,-0.5029,-0.5061,-0.5162,-0.5227,-0.5249,-0.5393,-0.5521,-0.5594,-0.5673,-0.5733,-0.5733,-0.5733,-0.5733,-0.5733,-0.5733,-0.5733,-0.5733,-0.5733,-0.5733,-0.5819,-0.6343,-0.6953,-0.7394,-0.836,-0.9331,-0.9859,-1.0038,-0.9715,-0.9341,-0.9129,-0.8941,-0.8817,-0.888,-0.9241,-0.9846,-1.0738,-1.1316,-1.1939,-1.3108,-1.4126,-1.4521,-1.5245,-1.5832,-1.6382,-1.6867,-1.7095,-1.7134,-1.7767,-1.8309,-1.8375,-1.8797,-1.9167,-0.0471,-0.0548,-0.0392,-0.047,-0.0545,-0.0547,-0.0548,-0.0631,-0.0574,-0.0495,0.0,0.0999,0.1547,0.1596,0.1658,0.1661,0.1683,0.1543,0.1547,0.1594,0.1485,0.1488,0.1421,0.1427,0.1429,0.1425,0.1432,0.1431,0.1423,0.1338,0.1071,0.0535,0.0446,0.0088,-0.0608,-0.0693,-0.1028,-0.1592,-0.1556,-0.1521,-0.1483,-0.142,-0.1601,-0.2108,-0.2145,-0.2085,-0.1951,-0.2085,-0.1816,-0.1277,-0.1144,-0.0482,0.0861,0.1015,-0.0074,-0.2549,-0.2801,-0.3355,-0.4844,-0.5012,-0.5018,-0.5018,-0.5018,-0.5056,-0.5154,-0.5273,-0.5352,-0.5358,-0.5374,-0.5499,-0.5684,-0.5727,-0.5733,-0.5733,-0.5733,-0.5733,-0.5733,-0.5733,-0.5733,-0.5733,-0.5733,-0.5733,-0.5822,-0.6432,-0.7309,-0.8452,-0.9244,-0.9772,-0.9951,-1.0033,-0.9889,-0.9615,-0.9431,-0.9228,-0.9109,-0.9438,-0.9743,-1.0014,-1.1186,-1.2044,-1.2615,-1.3368,-1.4328,-1.5222,-1.5644,-1.6341,-1.7225,-1.7818,-1.7977,-1.8339,-1.8684,-1.894,-1.8952,-1.9294,-1.9612,-0.0785,-0.1177,-0.0784,-0.102,-0.1648,-0.1333,-0.1412,-0.1731,-0.136,-0.1212,-0.1056,-0.0164,0.0422,0.0791,0.0795,0.0979,0.1342,0.1391,0.1395,0.1429,0.1387,0.138,0.1406,0.1408,0.1409,0.141,0.1427,0.1436,0.1346,0.0987,0.0628,0.0359,-0.0,-0.0625,-0.1329,-0.1416,-0.1665,-0.2317,-0.2265,-0.2215,-0.2154,-0.2036,-0.2042,-0.225,-0.2218,-0.2221,-0.2221,-0.2221,-0.2085,-0.1818,-0.1503,-0.1044,-0.0427,-0.0366,-0.0751,-0.1763,-0.3188,-0.4307,-0.494,-0.5018,-0.5018,-0.5018,-0.5018,-0.504,-0.5086,-0.5195,-0.5287,-0.5371,-0.5496,-0.5632,-0.5719,-0.5733,-0.5733,-0.5733,-0.5733,-0.5733,-0.5733,-0.5733,-0.5733,-0.5733,-0.5733,-0.5733,-0.5908,-0.6697,-0.7921,-0.9244,-0.9864,-1.0038,-1.0038,-1.0038,-0.9918,-0.9823,-0.9649,-0.9441,-0.9313,-0.965,-1.022,-1.0783,-1.1577,-1.2372,-1.3585,-1.4371,-1.5297,-1.5989,-1.6633,-1.722,-1.7953,-1.8539,-1.8852,-1.9296,-1.9769,-1.9949,-1.9949,-1.9853,-2.0009,-0.1398,-0.1707,-0.1319,-0.1636,-0.2431,-0.2038,-0.2117,-0.2435,-0.2052,-0.1832,-0.169,-0.1303,-0.0751,-0.0172,0.0,0.0357,0.0805,0.0794,0.0795,0.0803,0.0777,0.0945,0.105,0.1132,0.122,0.1405,0.1425,0.1256,0.1076,0.0448,0.0,-0.0269,-0.0718,-0.1346,-0.2064,-0.2064,-0.2494,-0.3066,-0.2904,-0.2752,-0.2933,-0.2604,-0.2358,-0.2347,-0.2241,-0.2179,-0.2179,-0.2231,-0.2221,-0.2154,-0.1854,-0.1676,-0.1702,-0.1761,-0.1955,-0.2363,-0.3953,-0.5018,-0.5018,-0.5018,-0.5018,-0.5018,-0.5018,-0.5048,-0.5113,-0.5189,-0.5306,-0.5466,-0.5632,-0.5727,-0.5733,-0.5733,-0.5733,-0.5733,-0.5733,-0.5733,-0.5733,-0.5733,-0.5733,-0.5733,-0.5733,-0.5822,-0.6083,-0.7048,-0.8273,-0.9331,-0.9859,-1.0038,-1.0038,-1.0038,-1.0033,-1.0033,-0.9814,-0.9733,-0.9766,-1.0349,-1.0931,-1.1707,-1.2487,-1.3262,-1.4504,-1.5262,-1.5948,-1.6408,-1.7531,-1.8429,-1.8933,-1.938,-1.9678,-1.9957,-2.0309,-2.061,-2.0466,-2.031,-2.0586,-0.2347,-0.2347,-0.2347,-0.2378,-0.2508,-0.2429,-0.243,-0.2514,-0.2487,-0.2484,-0.2458,-0.2464,-0.2182,-0.1433,-0.0861,-0.0616,-0.0537,-0.0536,-0.0447,-0.0447,-0.0437,-0.0175,0.0447,0.0439,0.079,0.1157,0.1163,0.0987,0.0448,-0.0269,-0.0987,-0.1615,-0.1794,-0.2154,-0.2784,-0.2963,-0.3317,-0.3993,-0.3346,-0.3188,-0.3735,-0.2973,-0.2492,-0.248,-0.23,-0.2166,-0.2232,-0.2184,-0.2221,-0.2221,-0.2166,-0.2215,-0.2387,-0.2848,-0.3589,-0.4583,-0.4854,-0.5018,-0.5018,-0.5018,-0.5021,-0.5023,-0.5034,-0.5113,-0.5295,-0.5347,-0.545,-0.5684,-0.5703,-0.5733,-0.5733,-0.5733,-0.5733,-0.5733,-0.5733,-0.5733,-0.5733,-0.5733,-0.5733,-0.5733,-0.5733,-0.5997,-0.6605,-0.7305,-0.8097,-0.8978,-0.9598,-1.0033,-1.0038,-1.0038,-1.0038,-1.0038,-1.0005,-1.0196,-1.0815,-1.1241,-1.1988,-1.2759,-1.3369,-1.4134,-1.4843,-1.5452,-1.614,-1.6932,-1.8027,-1.8936,-1.9717,-2.018,-2.0404,-2.0582,-2.0687,-2.0827,-2.1007,-2.1163,-2.1332,-0.2367,-0.2365,-0.2876,-0.2845,-0.2526,-0.2452,-0.2474,-0.2511,-0.2533,-0.2531,-0.2519,-0.2559,-0.2433,-0.2224,-0.2022,-0.1475,-0.0715,-0.0708,-0.0708,-0.0713,-0.0692,-0.0602,-0.0438,-0.0348,-0.0261,-0.0,0.0,-0.009,-0.0359,-0.1076,-0.1525,-0.1973,-0.2868,-0.3585,-0.3855,-0.4387,-0.4802,-0.4899,-0.4594,-0.458,-0.4673,-0.3785,-0.3321,-0.3233,-0.2542,-0.2175,-0.2175,-0.2185,-0.2221,-0.2221,-0.2226,-0.2432,-0.2843,-0.3529,-0.4229,-0.4927,-0.5018,-0.5018,-0.5018,-0.5018,-0.505,-0.5198,-0.5206,-0.5192,-0.5344,-0.5439,-0.5523,-0.5608,-0.5697,-0.573,-0.5733,-0.5733,-0.5733,-0.5733,-0.5733,-0.5733,-0.5733,-0.5733,-0.5733,-0.5733,-0.5733,-0.6174,-0.7044,-0.7658,-0.8273,-0.9331,-0.9859,-0.9951,-1.0038,-1.0038,-1.0038,-1.0038,-1.0033,-1.0524,-1.1974,-1.1987,-1.2375,-1.33,-1.4073,-1.4893,-1.5585,-1.6119,-1.6691,-1.7491,-1.8509,-1.9354,-2.0084,-2.102,-2.1233,-2.1427,-2.1464,-2.1368,-2.1632,-2.1584,-2.1656,-0.2534,-0.2983,-0.3029,-0.3151,-0.3167,-0.2948,-0.2988,-0.3285,-0.329,-0.329,-0.329,-0.3056,-0.2939,-0.2922,-0.2808,-0.2207,-0.1404,-0.1491,-0.1504,-0.1429,-0.1469,-0.129,-0.1136,-0.1133,-0.0959,-0.0791,-0.0979,-0.1076,-0.1166,-0.2152,-0.2599,-0.2778,-0.403,-0.4741,-0.483,-0.5364,-0.5761,-0.584,-0.5605,-0.5399,-0.547,-0.4683,-0.4064,-0.3726,-0.3038,-0.2506,-0.2274,-0.2234,-0.2202,-0.22,-0.2423,-0.278,-0.3399,-0.4058,-0.4543,-0.494,-0.505,-0.5053,-0.5034,-0.5086,-0.5148,-0.5264,-0.5311,-0.5383,-0.5417,-0.5502,-0.5475,-0.5616,-0.5676,-0.5733,-0.5733,-0.5733,-0.5733,-0.5733,-0.5733,-0.5733,-0.5733,-0.5733,-0.5733,-0.5733,-0.5733,-0.626,-0.7221,-0.7658,-0.836,-0.9506,-0.9864,-1.0038,-1.0038,-1.0038,-1.0038,-1.0038,-1.0294,-1.1058,-1.2213,-1.2661,-1.3252,-1.4218,-1.4665,-1.5487,-1.6108,-1.6661,-1.7314,-1.8124,-1.8921,-1.9694,-2.0613,-2.1537,-2.1999,-2.2135,-2.2053,-2.1873,-2.1933,-2.1873,-2.1921,-0.313,-0.4049,-0.2907,-0.3321,-0.4433,-0.3925,-0.4208,-0.4761,-0.4849,-0.4771,-0.4613,-0.4144,-0.372,-0.363,-0.317,-0.2723,-0.2538,-0.2797,-0.2849,-0.2677,-0.2628,-0.2367,-0.1875,-0.1758,-0.1495,-0.0983,-0.1524,-0.1795,-0.1973,-0.3315,-0.4119,-0.4387,-0.5188,-0.5719,-0.5719,-0.5897,-0.6337,-0.6699,-0.6141,-0.6013,-0.6565,-0.5592,-0.4611,-0.3977,-0.3739,-0.3207,-0.2339,-0.2328,-0.2296,-0.2258,-0.2665,-0.3391,-0.4072,-0.4407,-0.4621,-0.4953,-0.5118,-0.5121,-0.5067,-0.5224,-0.5287,-0.5262,-0.5309,-0.5423,-0.5529,-0.5478,-0.5521,-0.5692,-0.5725,-0.5733,-0.5733,-0.5733,-0.5733,-0.5733,-0.5733,-0.5733,-0.5733,-0.5733,-0.5733,-0.5733,-0.5733,-0.5997,-0.6694,-0.7394,-0.8185,-0.8978,-0.9598,-1.0038,-1.0038,-1.0038,-1.0038,-1.0125,-1.0549,-1.1488,-1.2431,-1.3444,-1.43,-1.5133,-1.5377,-1.5918,-1.6393,-1.691,-1.7665,-1.8519,-1.9573,-2.0355,-2.121,-2.2061,-2.2061,-2.2197,-2.2197,-2.2197,-2.2113,-2.2053,-2.2089,-0.3376,-0.3091,-0.4127,-0.4602,-0.4809,-0.4597,-0.4741,-0.4999,-0.5004,-0.5004,-0.4927,-0.4768,-0.4321,-0.4042,-0.4103,-0.3666,-0.2801,-0.3804,-0.3884,-0.2974,-0.2879,-0.2815,-0.2591,-0.2586,-0.2409,-0.2242,-0.2424,-0.2871,-0.3494,-0.4121,-0.4565,-0.5277,-0.6166,-0.6609,-0.6694,-0.7319,-0.7804,-0.7834,-0.7461,-0.7304,-0.7431,-0.6428,-0.547,-0.4686,-0.4269,-0.3522,-0.247,-0.2357,-0.2327,-0.2236,-0.2731,-0.34,-0.4241,-0.4678,-0.4859,-0.4951,-0.5124,-0.5175,-0.5159,-0.5281,-0.5401,-0.5426,-0.5474,-0.5553,-0.5654,-0.5673,-0.5689,-0.5733,-0.5733,-0.5733,-0.5733,-0.5733,-0.5733,-0.5733,-0.5733,-0.5733,-0.5733,-0.5733,-0.5733,-0.5733,-0.5733,-0.626,-0.7132,-0.7742,-0.836,-0.9419,-0.9864,-1.0038,-1.0038,-1.0038,-1.0038,-1.0125,-1.089,-1.166,-1.2595,-1.3535,-1.4573,-1.5359,-1.5779,-1.6141,-1.6612,-1.7252,-1.8027,-1.8967,-2.002,-2.0944,-2.1862,-2.2197,-2.2197,-2.2197,-2.2197,-2.2197,-2.2197,-2.2197,-2.2197,-0.3801,-0.3188,-0.4593,-0.5535,-0.5712,-0.5498,-0.5648,-0.5922,-0.5931,-0.5931,-0.5935,-0.5547,-0.5154,-0.4781,-0.5004,-0.448,-0.3691,-0.471,-0.4552,-0.3733,-0.3716,-0.3864,-0.3935,-0.3944,-0.3942,-0.3944,-0.3944,-0.421,-0.4832,-0.5186,-0.563,-0.6251,-0.7143,-0.7676,-0.7676,-0.8296,-0.8499,-0.8377,-0.8215,-0.8032,-0.7777,-0.7202,-0.6376,-0.5556,-0.5004,-0.4196,-0.3215,-0.2871,-0.254,-0.253,-0.2951,-0.3705,-0.4538,-0.4859,-0.5037,-0.5097,-0.5184,-0.5257,-0.5271,-0.5417,-0.5507,-0.5553,-0.5505,-0.5646,-0.5716,-0.5733,-0.5733,-0.5733,-0.5733,-0.5733,-0.5733,-0.5733,-0.5733,-0.5733,-0.5733,-0.5733,-0.5733,-0.5733,-0.5733,-0.5733,-0.5905,-0.6609,-0.7482,-0.8185,-0.8627,-0.9685,-1.0038,-1.0038,-1.0038,-1.0038,-1.0038,-1.0381,-1.123,-1.1997,-1.2595,-1.362,-1.4741,-1.542,-1.6047,-1.6357,-1.6723,-1.7456,-1.8202,-1.9431,-2.0613,-2.1336,-2.2197,-2.2197,-2.2197,-2.2197,-2.2197,-2.2197,-2.2197,-2.2197,-2.2246,-0.4419,-0.4447,-0.468,-0.5851,-0.7166,-0.6574,-0.6651,-0.731,-0.7403,-0.733,-0.7173,-0.6553,-0.6163,-0.6009,-0.5562,-0.5179,-0.5007,-0.526,-0.536,-0.5262,-0.5417,-0.5494,-0.5437,-0.5366,-0.5364,-0.5453,-0.5453,-0.563,-0.5808,-0.6428,-0.7139,-0.7231,-0.8032,-0.8568,-0.848,-0.8568,-0.8564,-0.8519,-0.8369,-0.8178,-0.8,-0.7833,-0.7186,-0.6177,-0.5944,-0.5321,-0.4213,-0.3507,-0.3018,-0.2745,-0.3403,-0.4144,-0.4859,-0.5018,-0.5061,-0.5148,-0.529,-0.5347,-0.5412,-0.5564,-0.5665,-0.551,-0.5574,-0.5733,-0.5733,-0.5733,-0.5733,-0.5733,-0.5733,-0.5733,-0.5733,-0.5733,-0.5733,-0.5733,-0.5733,-0.5733,-0.5733,-0.5733,-0.5908,-0.5997,-0.6432,-0.7132,-0.7834,-0.8448,-0.9157,-0.9772,-1.0038,-1.0038,-1.0038,-1.0038,-1.0038,-1.0722,-1.166,-1.2425,-1.3105,-1.4139,-1.5054,-1.5257,-1.6,-1.6511,-1.7046,-1.7765,-1.8539,-1.9835,-2.1008,-2.18,-2.2197,-2.2197,-2.2197,-2.2197,-2.2197,-2.2197,-2.2221,-2.2258,-2.2411,-0.5494,-0.6146,-0.6306,-0.6795,-0.7395,-0.7183,-0.7279,-0.748,-0.748,-0.748,-0.7403,-0.7249,-0.678,-0.6321,-0.663,-0.624,-0.5544,-0.6247,-0.663,-0.6528,-0.703,-0.6554,-0.586,-0.5719,-0.5808,-0.5811,-0.5899,-0.6074,-0.6694,-0.7051,-0.7499,-0.8208,-0.8388,-0.8572,-0.8572,-0.8572,-0.8572,-0.8544,-0.8385,-0.8207,-0.8028,-0.7858,-0.7273,-0.6338,-0.6736,-0.5954,-0.4226,-0.345,-0.3446,-0.3885,-0.4055,-0.4465,-0.4951,-0.5034,-0.5059,-0.5118,-0.5265,-0.5377,-0.5423,-0.56,-0.5706,-0.5695,-0.5708,-0.5733,-0.5733,-0.5733,-0.5733,-0.5733,-0.5733,-0.5733,-0.5733,-0.5733,-0.5733,-0.5733,-0.5733,-0.5733,-0.5822,-0.6169,-0.6517,-0.6605,-0.7132,-0.7834,-0.8364,-0.8803,-0.924,-0.9772,-1.0038,-1.012,-1.012,-1.0207,-1.0294,-1.1063,-1.2003,-1.2857,-1.3711,-1.4657,-1.5231,-1.5183,-1.5842,-1.664,-1.7414,-1.8377,-1.9199,-2.0161,-2.1273,-2.2123,-2.2197,-2.2197,-2.2197,-2.2197,-2.2061,-2.2073,-2.2291,-2.2438,-2.2687,-0.6276,-0.6797,-0.6948,-0.7233,-0.7464,-0.748,-0.748,-0.748,-0.748,-0.748,-0.748,-0.748,-0.7249,-0.6861,-0.7249,-0.7015,-0.6325,-0.7173,-0.7395,-0.7396,-0.7816,-0.761,-0.7095,-0.6874,-0.6877,-0.6877,-0.6874,-0.7231,-0.7676,-0.7764,-0.8032,-0.848,-0.8572,-0.8572,-0.8572,-0.8572,-0.8572,-0.8552,-0.845,-0.8316,-0.8134,-0.7955,-0.7592,-0.7047,-0.7301,-0.6504,-0.4851,-0.4153,-0.4171,-0.4594,-0.4612,-0.4711,-0.5082,-0.5165,-0.5186,-0.5235,-0.5374,-0.5466,-0.5534,-0.5662,-0.5725,-0.5733,-0.5733,-0.5733,-0.5733,-0.5733,-0.5733,-0.5733,-0.5733,-0.5733,-0.5733,-0.5733,-0.5733,-0.5733,-0.5733,-0.5733,-0.5733,-0.6343,-0.6691,-0.7044,-0.7658,-0.836,-0.889,-0.9152,-0.9506,-0.9859,-1.0038,-1.0294,-1.0467,-1.0549,-1.089,-1.1746,-1.2516,-1.3372,-1.4048,-1.4908,-1.5854,-1.5882,-1.6167,-1.6957,-1.7749,-1.8705,-1.9509,-2.0355,-2.1474,-2.2135,-2.2123,-2.2123,-2.2197,-2.2123,-2.1999,-2.193,-2.2044,-2.2256,-2.2563,-0.6712,-0.6777,-0.696,-0.7163,-0.7427,-0.7476,-0.748,-0.748,-0.748,-0.748,-0.748,-0.748,-0.748,-0.748,-0.748,-0.748,-0.7411,-0.7536,-0.7711,-0.7801,-0.8117,-0.8233,-0.8222,-0.8197,-0.8212,-0.83,-0.8568,-0.848,-0.8392,-0.848,-0.8568,-0.8572,-0.8572,-0.8572,-0.8572,-0.8572,-0.8572,-0.8572,-0.8552,-0.8438,-0.826,-0.8081,-0.7869,-0.7781,-0.7317,-0.7002,-0.6058,-0.5442,-0.5097,-0.5306,-0.4882,-0.4991,-0.5333,-0.536,-0.5482,-0.5551,-0.5587,-0.5578,-0.5766,-0.5786,-0.5733,-0.5733,-0.5733,-0.5733,-0.5733,-0.5733,-0.5733,-0.5733,-0.5733,-0.5733,-0.5733,-0.5733,-0.5733,-0.5733,-0.5733,-0.5822,-0.5908,-0.6432,-0.6953,-0.7044,-0.8273,-0.889,-0.9157,-0.9506,-1.0038,-1.0376,-1.0463,-1.0809,-1.1149,-1.1488,-1.1918,-1.2681,-1.3366,-1.3971,-1.4566,-1.5082,-1.607,-1.6694,-1.7047,-1.7578,-1.8052,-1.8839,-1.9613,-2.042,-2.121,-2.1663,-2.1862,-2.1925,-2.2061,-2.1737,-2.14,-2.141,-2.1578,-2.1818,-2.208,-0.67,-0.6757,-0.6973,-0.7134,-0.7297,-0.7423,-0.748,-0.748,-0.748,-0.748,-0.748,-0.748,-0.748,-0.748,-0.748,-0.748,-0.7484,-0.7557,-0.7614,-0.7909,-0.8292,-0.8406,-0.8426,-0.8499,-0.8568,-0.8572,-0.8572,-0.8572,-0.8572,-0.8572,-0.8572,-0.8572,-0.8572,-0.8572,-0.8572,-0.8572,-0.8572,-0.8572,-0.8572,-0.8479,-0.8308,-0.8126,-0.7963,-0.7829,-0.7227,-0.7114,-0.7123,-0.6105,-0.5737,-0.5945,-0.5641,-0.5352,-0.5452,-0.5474,-0.5664,-0.6039,-0.5775,-0.5742,-0.6207,-0.6034,-0.5733,-0.5733,-0.5733,-0.5733,-0.5733,-0.5733,-0.5733,-0.5733,-0.5733,-0.5733,-0.5733,-0.5733,-0.5733,-0.5819,-0.6169,-0.6517,-0.6691,-0.7217,-0.7746,-0.8364,-0.9069,-0.9772,-0.9772,-0.9859,-1.0294,-1.0809,-1.1235,-1.1488,-1.1918,-1.2339,-1.2942,-1.362,-1.3964,-1.4566,-1.4992,-1.5733,-1.6806,-1.7553,-1.7966,-1.8257,-1.865,-1.8783,-1.9458,-2.0107,-2.0741,-2.1146,-2.1383,-2.1675,-2.1749,-2.1273,-2.0896,-2.1006,-2.1152,-2.1395,-2.1724,-0.6802,-0.6826,-0.6941,-0.7118,-0.7346,-0.7443,-0.748,-0.748,-0.748,-0.748,-0.748,-0.748,-0.748,-0.748,-0.748,-0.748,-0.7508,-0.7586,-0.776,-0.8016,-0.8329,-0.8418,-0.8455,-0.8507,-0.8572,-0.8568,-0.8572,-0.8572,-0.8572,-0.8572,-0.8572,-0.8572,-0.8572,-0.8572,-0.8572,-0.8572,-0.8572,-0.8572,-0.8568,-0.8511,-0.8406,-0.832,-0.8242,-0.807,-0.7557,-0.7486,-0.7552,-0.6831,-0.6658,-0.6722,-0.6566,-0.6241,-0.602,-0.5792,-0.6046,-0.6744,-0.6106,-0.624,-0.6705,-0.6301,-0.5819,-0.6169,-0.5908,-0.5733,-0.5733,-0.5733,-0.5733,-0.5733,-0.5733,-0.5733,-0.5733,-0.5733,-0.5822,-0.6257,-0.6605,-0.7041,-0.7658,-0.8097,-0.8448,-0.8978,-0.9506,-0.9859,-1.0038,-1.0207,-1.0641,-1.1154,-1.1912,-1.2248,-1.2942,-1.3457,-1.388,-1.4391,-1.4566,-1.4992,-1.5492,-1.6378,-1.7624,-1.8338,-1.885,-1.9088,-1.9365,-1.9262,-1.9259,-1.9822,-2.0369,-2.0531,-2.0812,-2.1099,-2.1307,-2.0949,-2.0676,-2.0668,-2.0786,-2.1133,-2.1466,-0.7019,-0.7019,-0.6948,-0.7127,-0.7382,-0.7503,-0.7507,-0.7439,-0.7476,-0.748,-0.748,-0.748,-0.748,-0.748,-0.748,-0.748,-0.7529,-0.7667,-0.7866,-0.8016,-0.8231,-0.8329,-0.8414,-0.8495,-0.854,-0.8536,-0.8556,-0.8568,-0.8572,-0.8572,-0.8572,-0.8572,-0.8572,-0.8572,-0.8572,-0.8572,-0.8572,-0.8572,-0.8652,-0.8648,-0.869,-0.8614,-0.8591,-0.8399,-0.8239,-0.8028,-0.7898,-0.7561,-0.7396,-0.7548,-0.7631,-0.7519,-0.7095,-0.652,-0.652,-0.7822,-0.6851,-0.6845,-0.7365,-0.6861,-0.6343,-0.6684,-0.6343,-0.5819,-0.5733,-0.5733,-0.5733,-0.5733,-0.5822,-0.6083,-0.5997,-0.6171,-0.6432,-0.6868,-0.7044,-0.7658,-0.854,-0.8978,-0.9065,-0.9152,-0.9598,-0.9946,-1.0294,-1.0554,-1.1068,-1.1666,-1.2425,-1.3184,-1.388,-1.4314,-1.4657,-1.4824,-1.4999,-1.5809,-1.6386,-1.6788,-1.8043,-1.903,-1.9631,-1.963,-1.9805,-1.9629,-1.9514,-1.9538,-1.9952,-2.0167,-2.039,-2.0654,-2.072,-2.0525,-2.0466,-2.0411,-2.0596,-2.0853,-2.1162,-0.7019,-0.7023,-0.7246,-0.7288,-0.7142,-0.736,-0.7356,-0.7297,-0.7423,-0.748,-0.748,-0.748,-0.748,-0.7472,-0.748,-0.748,-0.7529,-0.7655,-0.772,-0.7797,-0.8032,-0.8235,-0.8207,-0.839,-0.8446,-0.8414,-0.845,-0.8519,-0.8552,-0.8572,-0.8548,-0.8564,-0.8572,-0.8572,-0.8572,-0.8572,-0.8572,-0.8656,-0.874,-0.8828,-0.8873,-0.8888,-0.8861,-0.8688,-0.8631,-0.8586,-0.8573,-0.8349,-0.8214,-0.8316,-0.797,-0.8142,-0.8269,-0.7837,-0.7925,-0.8277,-0.7834,-0.757,-0.8181,-0.7738,-0.6854,-0.6322,-0.6331,-0.6346,-0.5997,-0.5822,-0.5997,-0.5997,-0.6346,-0.6782,-0.7397,-0.7221,-0.7394,-0.7746,-0.8097,-0.854,-0.8978,-0.9331,-0.9772,-0.9859,-1.0033,-1.012,-1.0549,-1.1149,-1.1923,-1.2601,-1.3281,-1.3964,-1.4657,-1.4915,-1.5173,-1.5264,-1.5347,-1.6394,-1.744,-1.7674,-1.8372,-1.9584,-2.0101,-1.9916,-1.9951,-1.9893,-1.9855,-1.994,-1.9887,-1.9893,-2.0096,-2.0275,-2.0191,-2.0041,-2.0053,-2.0186,-2.0383,-2.0627,-2.0556,-0.6818,-0.6892,-0.7115,-0.7153,-0.7074,-0.6929,-0.7118,-0.7346,-0.7354,-0.7403,-0.7464,-0.748,-0.7431,-0.7395,-0.7456,-0.748,-0.7516,-0.7561,-0.7614,-0.7687,-0.7886,-0.804,-0.8,-0.8219,-0.8211,-0.8187,-0.8239,-0.8349,-0.8418,-0.8418,-0.8479,-0.8556,-0.8572,-0.8572,-0.8572,-0.8572,-0.8568,-0.8656,-0.8828,-0.8907,-0.8978,-0.9064,-0.9018,-0.8921,-0.8955,-0.9044,-0.9011,-0.9101,-0.902,-0.9061,-0.9052,-0.9135,-0.924,-0.924,-0.9065,-0.9157,-0.8448,-0.8269,-0.8794,-0.8265,-0.7379,-0.7376,-0.6933,-0.6675,-0.6688,-0.6871,-0.6694,-0.6871,-0.6959,-0.7482,-0.7746,-0.7834,-0.8009,-0.836,-0.8715,-0.9069,-0.9423,-0.9772,-1.012,-1.0554,-1.0809,-1.0982,-1.1068,-1.1752,-1.2772,-1.3542,-1.4223,-1.4824,-1.5347,-1.5431,-1.5431,-1.5431,-1.5514,-1.6319,-1.7359,-1.7755,-1.839,-1.969,-2.0343,-2.0081,-2.0195,-2.0166,-2.0242,-2.0387,-2.0226,-2.0042,-1.9676,-1.9728,-1.9703,-1.9703,-1.9895,-2.0128,-2.022,-2.0312,-2.0458,-0.6571,-0.6745,-0.6817,-0.6974,-0.6993,-0.6742,-0.6748,-0.7041,-0.6951,-0.6899,-0.6908,-0.6935,-0.6791,-0.6798,-0.7028,-0.7283,-0.7472,-0.7488,-0.7561,-0.7659,-0.776,-0.7854,-0.7931,-0.7996,-0.8012,-0.7975,-0.7979,-0.8077,-0.828,-0.8312,-0.8406,-0.8519,-0.8572,-0.8572,-0.8572,-0.8572,-0.8568,-0.874,-0.8911,-0.899,-0.9083,-0.9172,-0.9193,-0.9035,-0.92,-0.9171,-0.9077,-0.9255,-0.9424,-0.9536,-0.97,-0.9946,-1.0038,-1.0038,-1.0038,-0.9859,-0.889,-0.9069,-0.9152,-0.8877,-0.8261,-0.8352,-0.7362,-0.7281,-0.7291,-0.757,-0.7746,-0.8009,-0.8009,-0.8185,-0.8452,-0.836,-0.8536,-0.889,-0.9152,-0.9331,-0.9772,-1.0207,-1.0636,-1.1068,-1.1494,-1.1746,-1.1918,-1.2431,-1.3457,-1.388,-1.4482,-1.4915,-1.5431,-1.5431,-1.5431,-1.5431,-1.559,-1.6237,-1.687,-1.735,-1.831,-1.958,-2.0041,-1.9965,-2.0294,-2.0575,-2.0613,-2.0611,-2.0569,-2.0332,-1.9797,-1.9482,-1.9752,-1.9919,-1.998,-2.0137,-2.0419,-2.0604,-2.0653,-0.6216,-0.6962,-0.6595,-0.6583,-0.6753,-0.6741,-0.6395,-0.5913,-0.6058,-0.5721,-0.538,-0.5244,-0.5309,-0.5405,-0.6057,-0.6719,-0.721,-0.7253,-0.7269,-0.741,-0.7592,-0.7664,-0.7813,-0.7955,-0.7906,-0.7845,-0.7813,-0.7988,-0.8187,-0.826,-0.8361,-0.8491,-0.8524,-0.856,-0.8528,-0.8495,-0.8652,-0.8903,-0.9069,-0.9334,-0.9423,-0.9308,-0.925,-0.9228,-0.9162,-0.9082,-0.9077,-0.9308,-0.9445,-0.9455,-0.9757,-1.0019,-1.0038,-1.0038,-1.0038,-0.9951,-0.9864,-0.9777,-0.9951,-0.9589,-0.9056,-0.9065,-0.8803,-0.8723,-0.8368,-0.8097,-0.8273,-0.8711,-0.8803,-0.8978,-0.9331,-0.9593,-0.9772,-0.9772,-0.9685,-0.9772,-1.0038,-1.0641,-1.0982,-1.1837,-1.2345,-1.2681,-1.2936,-1.3535,-1.4139,-1.4398,-1.4741,-1.5173,-1.5431,-1.5431,-1.5431,-1.5431,-1.5506,-1.6072,-1.6632,-1.7107,-1.7917,-1.9283,-1.9529,-1.9696,-2.001,-2.0255,-2.0654,-2.0653,-2.0738,-2.0785,-2.0414,-2.0239,-2.0203,-2.0262,-2.0436,-2.0631,-2.0769,-2.0896,-2.0896,-0.5005,-0.6082,-0.6297,-0.6056,-0.5555,-0.5491,-0.5343,-0.5188,-0.5167,-0.5057,-0.4806,-0.4845,-0.49,-0.4966,-0.5223,-0.5573,-0.6043,-0.6167,-0.6398,-0.6707,-0.6865,-0.7133,-0.7564,-0.7772,-0.7805,-0.7776,-0.786,-0.7886,-0.8069,-0.8138,-0.8191,-0.826,-0.8357,-0.8402,-0.8398,-0.8304,-0.8495,-0.8679,-0.8985,-0.9224,-0.9353,-0.9271,-0.91,-0.9001,-0.911,-0.9115,-0.9143,-0.9478,-0.9592,-0.9601,-0.9809,-1.0028,-1.0038,-1.0038,-1.0038,-1.0038,-1.0038,-0.9951,-1.0038,-1.0038,-0.968,-0.9589,-0.9694,-0.9607,-0.9157,-0.8978,-0.9065,-0.9506,-0.9506,-0.9685,-0.9859,-1.0038,-1.0038,-1.0038,-1.0038,-1.0038,-1.0207,-1.0895,-1.1499,-1.2351,-1.3197,-1.362,-1.3957,-1.4391,-1.4741,-1.4908,-1.5075,-1.5257,-1.5431,-1.5431,-1.5431,-1.5431,-1.5506,-1.5741,-1.6304,-1.6862,-1.7432,-1.8487,-1.8736,-1.8975,-1.9371,-1.9766,-2.0167,-2.0566,-2.0663,-2.074,-2.0789,-2.0807,-2.0688,-2.0767,-2.0954,-2.0974,-2.1051,-2.1051,-2.1128,-0.3813,-0.4878,-0.5219,-0.5014,-0.4475,-0.4048,-0.4036,-0.4385,-0.4354,-0.4219,-0.4143,-0.4164,-0.4285,-0.4599,-0.4497,-0.467,-0.5076,-0.5004,-0.5315,-0.5699,-0.6009,-0.6405,-0.6913,-0.7242,-0.745,-0.7695,-0.7745,-0.7776,-0.7894,-0.7959,-0.8053,-0.8012,-0.8162,-0.8211,-0.8187,-0.8221,-0.8388,-0.8883,-0.9122,-0.9266,-0.9236,-0.9148,-0.8973,-0.8944,-0.9044,-0.92,-0.92,-0.9545,-0.9738,-0.9715,-0.9828,-1.0033,-1.0038,-1.0038,-1.0038,-1.0038,-1.0038,-1.0038,-1.0038,-1.0038,-1.0038,-1.0038,-1.0038,-0.9951,-0.9951,-1.0038,-1.0038,-0.9946,-0.9946,-0.9946,-1.0038,-1.0038,-1.0038,-1.0038,-1.0038,-1.0038,-1.0207,-1.1149,-1.2003,-1.2766,-1.3704,-1.4734,-1.5068,-1.5333,-1.5506,-1.5423,-1.5506,-1.5506,-1.5506,-1.5514,-1.5597,-1.568,-1.5756,-1.5831,-1.6154,-1.6714,-1.7286,-1.7683,-1.7934,-1.8336,-1.8807,-1.9204,-1.9599,-1.9991,-2.0391,-2.0304,-2.0138,-2.0722,-2.1215,-2.1128,-2.1051,-2.1205,-2.1205,-2.1282,-2.1359,-0.3282,-0.3282,-0.2809,-0.3282,-0.4169,-0.2872,-0.2746,-0.3334,-0.3391,-0.3036,-0.2682,-0.2516,-0.3132,-0.3599,-0.3785,-0.4112,-0.4927,-0.5004,-0.5002,-0.5002,-0.516,-0.5553,-0.6126,-0.6457,-0.6695,-0.7254,-0.7278,-0.7352,-0.7664,-0.7576,-0.7805,-0.7996,-0.8,-0.802,-0.8106,-0.8168,-0.8321,-0.8778,-0.8984,-0.9087,-0.905,-0.8903,-0.8774,-0.8848,-0.8965,-0.9124,-0.9217,-0.9331,-0.9535,-0.9409,-0.9665,-0.9946,-0.9951,-1.0038,-1.0038,-1.0038,-1.0038,-1.0038,-1.0038,-1.0038,-1.0038,-1.0038,-1.0038,-1.0038,-1.0038,-1.0038,-1.0038,-1.0038,-1.0038,-1.0038,-1.0038,-1.0038,-1.0038,-1.0038,-1.0038,-1.0038,-1.0549,-1.174,-1.2595,-1.319,-1.4126,-1.5235,-1.5665,-1.5839,-1.5756,-1.5756,-1.5748,-1.5748,-1.5839,-1.5929,-1.5929,-1.6012,-1.6012,-1.6087,-1.6087,-1.6492,-1.6804,-1.7123,-1.7359,-1.7844,-1.8407,-1.8718,-1.9027,-1.9265,-1.9511,-1.9502,-1.9659,-2.0469,-2.0954,-2.1128,-2.1215,-2.1359,-2.1502,-2.1578,-2.1655,-0.2554,-0.2552,-0.2284,-0.2484,-0.2954,-0.2415,-0.2348,-0.2557,-0.2583,-0.2473,-0.2214,-0.224,-0.2453,-0.2842,-0.2876,-0.3062,-0.3437,-0.3444,-0.3834,-0.4144,-0.438,-0.4807,-0.5311,-0.5665,-0.586,-0.6214,-0.6188,-0.6311,-0.6548,-0.6791,-0.681,-0.7012,-0.7737,-0.8163,-0.8256,-0.7951,-0.7975,-0.7859,-0.8041,-0.7994,-0.8074,-0.7926,-0.7748,-0.7752,-0.8016,-0.8012,-0.8061,-0.8296,-0.8593,-0.8956,-0.9243,-0.9479,-0.9864,-0.9946,-0.9946,-1.0038,-1.0038,-1.0038,-1.0038,-1.0038,-1.0038,-1.0038,-1.0038,-1.0038,-1.0038,-1.0038,-1.0038,-1.0038,-1.0038,-1.0038,-1.0038,-1.0038,-1.0038,-1.0038,-1.0038,-1.0038,-1.0646,-1.1849,-1.2649,-1.3107,-1.4419,-1.5831,-1.6004,-1.6095,-1.6004,-1.5922,-1.5997,-1.5997,-1.6087,-1.617,-1.617,-1.617,-1.6252,-1.617,-1.617,-1.6245,-1.6327,-1.6558,-1.6878,-1.7286,-1.7772,-1.8167,-1.8399,-1.8559,-1.8789,-1.9027,-1.9502,-2.0294,-2.0779,-2.0876,-2.1272,-2.1578,-2.1731,-2.1883,-2.1949,-0.2221,-0.2221,-0.2221,-0.2221,-0.2221,-0.2221,-0.2221,-0.2225,-0.2244,-0.2228,-0.2223,-0.23,-0.2349,-0.2425,-0.245,-0.2466,-0.2659,-0.2666,-0.2978,-0.321,-0.3452,-0.3953,-0.4475,-0.4839,-0.5028,-0.5194,-0.5361,-0.556,-0.5816,-0.5848,-0.6115,-0.6637,-0.7269,-0.772,-0.7596,-0.7569,-0.7365,-0.7222,-0.7182,-0.7167,-0.7481,-0.7275,-0.7189,-0.727,-0.7585,-0.7627,-0.7654,-0.7909,-0.8181,-0.8365,-0.8513,-0.896,-0.9419,-0.9685,-0.9772,-0.9946,-1.0038,-0.9951,-1.0038,-1.0038,-1.0038,-1.0038,-1.0038,-1.0038,-1.0038,-1.0038,-1.0038,-1.0038,-1.0038,-1.0038,-1.0038,-1.0038,-1.0038,-1.0038,-1.0038,-1.0038,-1.0599,-1.1565,-1.2302,-1.2942,-1.4549,-1.6042,-1.6392,-1.64,-1.6353,-1.6314,-1.6327,-1.6327,-1.6327,-1.6409,-1.6327,-1.6335,-1.6335,-1.6327,-1.6327,-1.6409,-1.6484,-1.6566,-1.6722,-1.673,-1.7131,-1.7529,-1.7691,-1.7683,-1.8006,-1.8559,-1.9036,-1.9511,-2.007,-2.0624,-2.1175,-2.1883,-2.2035,-2.2101,-2.2176,-0.2153,-0.2221,-0.2221,-0.2221,-0.2153,-0.2221,-0.2224,-0.2172,-0.2221,-0.2298,-0.2383,-0.2397,-0.2429,-0.2484,-0.2485,-0.25,-0.2506,-0.251,-0.2588,-0.2666,-0.2821,-0.3215,-0.3567,-0.4012,-0.4304,-0.4973,-0.5017,-0.5146,-0.5303,-0.5575,-0.5833,-0.6099,-0.6479,-0.6874,-0.6355,-0.6713,-0.7104,-0.7352,-0.7418,-0.7348,-0.7235,-0.7058,-0.6943,-0.7008,-0.7304,-0.7256,-0.7235,-0.7466,-0.7636,-0.7501,-0.7759,-0.8177,-0.8803,-0.889,-0.9157,-0.9685,-0.9777,-0.9864,-0.9951,-0.9951,-1.0038,-1.0038,-1.0038,-1.0038,-1.0038,-1.0038,-1.0038,-1.0038,-1.0038,-1.0038,-1.0038,-1.0038,-1.0038,-1.0038,-1.0038,-1.0256,-1.0737,-1.1396,-1.2226,-1.313,-1.4583,-1.6029,-1.6492,-1.6837,-1.666,-1.6656,-1.6621,-1.6656,-1.6574,-1.6574,-1.6492,-1.6492,-1.6492,-1.6492,-1.6484,-1.6566,-1.6648,-1.6648,-1.6648,-1.6656,-1.6738,-1.7057,-1.7131,-1.6976,-1.7456,-1.8175,-1.8416,-1.8576,-1.9599,-2.0692,-2.1558,-2.2101,-2.2252,-2.2252,-2.2176,-0.1614,-0.1614,-0.2018,-0.1951,-0.1681,-0.2018,-0.2174,-0.2219,-0.2206,-0.2256,-0.2365,-0.2399,-0.2426,-0.2455,-0.2493,-0.251,-0.251,-0.251,-0.251,-0.251,-0.2592,-0.2698,-0.3044,-0.3474,-0.3656,-0.3918,-0.4218,-0.446,-0.4318,-0.4984,-0.5023,-0.5192,-0.5653,-0.5887,-0.6076,-0.6301,-0.6306,-0.6049,-0.6028,-0.6095,-0.6105,-0.6138,-0.616,-0.6153,-0.6437,-0.6463,-0.6405,-0.6764,-0.6751,-0.6641,-0.6815,-0.746,-0.7998,-0.8173,-0.836,-0.854,-0.8627,-0.8711,-0.9061,-0.9501,-0.9946,-0.9946,-1.0038,-1.0038,-1.0038,-1.0038,-1.0038,-1.0038,-1.0038,-1.0038,-1.0038,-1.0038,-1.0038,-1.0038,-1.0062,-1.0328,-1.0828,-1.1668,-1.2528,-1.3514,-1.4783,-1.5241,-1.5778,-1.6431,-1.6465,-1.6538,-1.6498,-1.6613,-1.6664,-1.6656,-1.6648,-1.6648,-1.6656,-1.6648,-1.673,-1.673,-1.673,-1.6812,-1.673,-1.6648,-1.6812,-1.6976,-1.7139,-1.7302,-1.7546,-1.787,-1.8264,-1.8816,-1.9835,-2.0769,-2.1395,-2.1634,-2.1558,-2.1721,-2.1959,-0.1008,-0.1076,-0.1479,-0.1412,-0.1212,-0.1904,-0.2229,-0.2301,-0.2347,-0.2375,-0.2328,-0.2209,-0.2301,-0.2389,-0.241,-0.2668,-0.2746,-0.2901,-0.2979,-0.2984,-0.3011,-0.3105,-0.3216,-0.3362,-0.3647,-0.3652,-0.3871,-0.4139,-0.4117,-0.4532,-0.4829,-0.4947,-0.4902,-0.5331,-0.5624,-0.5749,-0.574,-0.5499,-0.5608,-0.5658,-0.5598,-0.5628,-0.557,-0.5656,-0.5806,-0.5783,-0.5765,-0.5667,-0.5689,-0.5846,-0.6066,-0.6708,-0.7155,-0.7453,-0.7559,-0.7746,-0.7834,-0.8281,-0.9091,-0.9078,-0.9345,-0.9069,-0.9598,-0.9951,-1.0038,-1.0038,-1.0038,-1.0038,-1.0038,-1.0038,-1.0038,-1.0038,-1.0038,-1.0125,-1.0168,-1.0436,-1.1028,-1.1787,-1.2423,-1.3501,-1.4282,-1.4639,-1.5053,-1.5682,-1.614,-1.6249,-1.6369,-1.6505,-1.6719,-1.6704,-1.6762,-1.673,-1.673,-1.673,-1.673,-1.673,-1.682,-1.6902,-1.6902,-1.6894,-1.7221,-1.7554,-1.7554,-1.7716,-1.7959,-1.8282,-1.8585,-1.9134,-1.9756,-2.0226,-2.0624,-2.0789,-2.0789,-2.1098,-2.1492,-0.047,-0.047,-0.047,-0.047,-0.0675,-0.1658,-0.2159,-0.2334,-0.2269,-0.2301,-0.2426,-0.1795,-0.1874,-0.227,-0.2196,-0.2589,-0.3219,-0.3532,-0.361,-0.3706,-0.3663,-0.3738,-0.3871,-0.3979,-0.3981,-0.4061,-0.4297,-0.4402,-0.4222,-0.4453,-0.4828,-0.5168,-0.5066,-0.525,-0.5292,-0.5415,-0.5391,-0.5377,-0.5515,-0.5564,-0.5602,-0.5602,-0.5635,-0.5711,-0.5815,-0.5783,-0.5798,-0.5849,-0.5704,-0.5642,-0.5606,-0.5984,-0.6378,-0.6711,-0.719,-0.7482,-0.7573,-0.8388,-0.884,-0.8468,-0.8376,-0.8273,-0.9065,-0.9685,-0.9946,-0.9946,-1.0038,-1.012,-1.012,-1.0125,-1.0125,-1.0212,-1.0212,-1.0226,-1.0251,-1.0651,-1.1194,-1.1818,-1.2406,-1.3182,-1.3871,-1.4371,-1.477,-1.5293,-1.586,-1.5864,-1.6104,-1.6576,-1.6713,-1.6822,-1.6857,-1.6894,-1.6894,-1.682,-1.6812,-1.6976,-1.7139,-1.7392,-1.7392,-1.7473,-1.7716,-1.7959,-1.8049,-1.821,-1.8451,-1.8772,-1.8904,-1.9054,-1.9292,-1.9766,-2.0079,-2.0235,-2.0235,-2.0702,-2.1098,0.0067,0.0134,0.047,0.0403,-0.0,-0.0762,-0.1358,-0.1698,-0.1374,-0.1327,-0.1803,-0.1492,-0.1492,-0.1649,-0.1571,-0.2435,-0.3146,-0.37,-0.3777,-0.3795,-0.3816,-0.4034,-0.4236,-0.4401,-0.4396,-0.4536,-0.4715,-0.4755,-0.4369,-0.438,-0.4635,-0.5204,-0.5075,-0.5189,-0.5234,-0.5355,-0.5344,-0.539,-0.5561,-0.561,-0.5646,-0.564,-0.5676,-0.5739,-0.5757,-0.5656,-0.5779,-0.5717,-0.5606,-0.5608,-0.5646,-0.5852,-0.5863,-0.598,-0.6171,-0.6346,-0.6694,-0.7132,-0.7126,-0.7573,-0.7749,-0.7478,-0.8093,-0.8623,-0.9157,-0.9598,-1.0033,-1.0294,-1.0467,-1.0467,-1.0641,-1.0722,-1.0722,-1.0738,-1.0819,-1.1295,-1.1674,-1.207,-1.2664,-1.3402,-1.4196,-1.4062,-1.4392,-1.5033,-1.5556,-1.5556,-1.5843,-1.6432,-1.6892,-1.698,-1.6988,-1.7016,-1.7221,-1.7229,-1.7465,-1.7627,-1.7716,-1.7797,-1.7797,-1.7878,-1.8121,-1.8282,-1.8451,-1.8612,-1.8851,-1.8993,-1.9222,-1.9292,-1.9292,-1.9292,-1.9608,-1.9687,-1.9844,-2.0235,-2.0469,0.0605,0.0672,0.0941,0.0941,0.0609,0.028,-0.0288,-0.0807,-0.0685,-0.0933,-0.1412,-0.0942,-0.11,-0.1649,-0.102,-0.1099,-0.212,-0.2904,-0.3219,-0.3224,-0.3403,-0.4036,-0.4379,-0.4683,-0.4801,-0.4918,-0.5009,-0.5175,-0.462,-0.3924,-0.3986,-0.4507,-0.4782,-0.5141,-0.5277,-0.532,-0.5417,-0.5469,-0.5548,-0.5589,-0.5613,-0.5643,-0.5689,-0.567,-0.5523,-0.5676,-0.5703,-0.5529,-0.561,-0.5654,-0.5659,-0.5659,-0.5673,-0.5697,-0.5733,-0.5908,-0.6083,-0.6163,-0.616,-0.6514,-0.6688,-0.6861,-0.7309,-0.7753,-0.8452,-0.9069,-0.9937,-1.0717,-1.0809,-1.0982,-1.1154,-1.1322,-1.1235,-1.1235,-1.1641,-1.1964,-1.2274,-1.2494,-1.3174,-1.3963,-1.4093,-1.3882,-1.4228,-1.4871,-1.549,-1.5708,-1.6123,-1.6763,-1.711,-1.7347,-1.7334,-1.7253,-1.7473,-1.7635,-1.7959,-1.8112,-1.8121,-1.8201,-1.829,-1.8362,-1.8442,-1.8594,-1.8834,-1.8993,-1.9152,-1.9222,-1.9292,-1.9292,-1.9292,-1.9292,-1.9292,-1.945,-1.9529,-1.9687,-1.9844,0.1143,0.1143,0.1143,0.1076,0.1084,0.1064,0.0653,-0.0,-0.0374,-0.0843,-0.1017,-0.0314,-0.0629,-0.11,-0.0392,0.0,-0.0784,-0.1646,-0.2116,0.0,-0.2143,-0.2701,-0.3667,-0.4814,-0.4371,-0.4695,-0.4972,-0.4815,-0.4923,-0.3768,-0.2625,-0.3441,-0.4714,-0.5061,-0.4634,-0.4706,-0.4906,-0.5534,-0.561,-0.5662,-0.5561,-0.5597,-0.5598,-0.5534,-0.5657,-0.573,-0.5706,-0.5555,-0.5564,-0.548,-0.5489,-0.5591,-0.5629,-0.5676,-0.5722,-0.5733,-0.5822,-0.5819,-0.5816,-0.5994,-0.5994,-0.626,-0.6795,-0.7319,-0.8017,-0.8978,-1.0111,-1.0804,-1.1068,-1.1413,-1.1671,-1.1752,-1.1752,-1.1813,-1.2079,-1.236,-1.2626,-1.2883,-1.335,-1.3986,-1.4045,-1.3845,-1.3823,-1.4539,-1.5009,-1.5558,-1.6443,-1.7047,-1.7313,-1.7543,-1.7705,-1.7596,-1.7887,-1.8121,-1.8353,-1.8514,-1.8523,-1.8612,-1.8692,-1.8763,-1.8913,-1.9063,-1.9213,-1.9301,-1.9222,-1.9222,-1.9292,-1.9292,-1.9292,-1.9292,-1.9292,-1.9292,-1.9292,-1.9371,-1.945,0.1681,0.1681,0.1277,0.1076,0.108,0.1116,0.1074,0.0801,0.0366,-0.0151,-0.0469,0.0314,0.0707,0.0236,0.0,0.0,0.0,0.0,0.0,0.0,0.0,0.0,0.0,-0.2786,-0.3028,-0.3137,-0.3381,-0.3846,-0.4228,-0.2584,0.0,-0.1284,-0.3117,-0.4204,-0.3787,-0.3754,-0.3832,-0.5423,-0.5673,-0.5539,-0.5305,-0.5571,-0.5711,-0.5689,-0.5727,-0.5733,-0.5719,-0.5711,-0.5684,-0.5692,-0.5692,-0.5695,-0.5697,-0.5722,-0.5733,-0.5733,-0.5733,-0.5733,-0.5819,-0.5908,-0.5997,-0.6083,-0.6612,-0.7224,-0.8013,-0.9152,-1.0115,-1.0722,-1.1327,-1.1757,-1.2186,-1.2186,-1.2283,-1.2388,-1.2511,-1.2745,-1.2981,-1.3288,-1.3514,-1.3719,-1.3818,-1.3845,-1.3817,-1.4007,-1.4476,-1.542,-1.6506,-1.7255,-1.7376,-1.7556,-1.8184,-1.8241,-1.8388,-1.8612,-1.8754,-1.8825,-1.8834,-1.8913,-1.8993,-1.9143,-1.9301,-1.9301,-1.9292,-1.9292,-1.9292,-1.9292,-1.9292,-1.9292,-1.9292,-1.9292,-1.9292,-1.9292,-1.9292,-1.9292,-1.9292,0.2285,0.2218,0.1949,0.1814,0.1822,0.1868,0.1765,0.1431,0.123,0.0887,0.0607,0.1076,0.1088,0.0862,0.0,0.0,0.0,0.0,0.0,0.0,0.0,0.0,0.0,0.0,-0.1178,-0.1427,-0.1464,-0.1925,0.0,0.0,0.0,0.0,0.0,-0.3153,-0.2973,-0.2707,-0.2903,-0.5574,-0.5549,-0.5295,-0.5018,-0.5198,-0.5606,-0.5684,-0.5697,-0.5719,-0.5733,-0.5733,-0.5733,-0.5733,-0.5727,-0.5727,-0.5725,-0.573,-0.5822,-0.5822,-0.5822,-0.573,-0.5905,-0.6083,-0.6169,-0.6346,-0.6435,-0.7139,-0.7404,-0.8456,-0.985,-1.0544,-1.1154,-1.1671,-1.2272,-1.2528,-1.2528,-1.2593,-1.2796,-1.2986,-1.3201,-1.3475,-1.3477,-1.3407,-1.3662,-1.3888,-1.3896,-1.3902,-1.4378,-1.5265,-1.6414,-1.6973,-1.7216,-1.7435,-1.8086,-1.8464,-1.8432,-1.8763,-1.9063,-1.9134,-1.9143,-1.9213,-1.9292,-1.9292,-1.9301,-1.9292,-1.9292,-1.9292,-1.9292,-1.9292,-1.9292,-1.9292,-1.9292,-1.9292,-1.9292,-1.9292,-1.9292,-1.9292,-1.9292,0.2751,0.2686,0.2686,0.2753,0.2904,0.2991,0.267,0.2109,0.2154,0.2326,0.2343,0.2019,0.1223,0.0544,0.0314,0.0314,0.0,0.0,0.0,0.0,0.0,0.0,0.0,0.0,0.0,0.0,0.0,0.0,0.0,0.0,0.0,0.0,0.0,-0.1432,0.0,-0.2271,-0.1607,-0.3829,-0.4563,-0.4489,-0.4489,-0.4665,-0.5333,-0.5665,-0.567,-0.5727,-0.5735,-0.5735,-0.5735,-0.5733,-0.5733,-0.5733,-0.5733,-0.5733,-0.5911,-0.5911,-0.5908,-0.5994,-0.6166,-0.6257,-0.6438,-0.6615,-0.6792,-0.6969,-0.7143,-0.7929,-0.9323,-1.0115,-1.0722,-1.1413,-1.2015,-1.2502,-1.2502,-1.2825,-1.3055,-1.3189,-1.3441,-1.3626,-1.3439,-1.3253,-1.3469,-1.3827,-1.3851,-1.3957,-1.4453,-1.5363,-1.5944,-1.6415,-1.6847,-1.7103,-1.7606,-1.7868,-1.7929,-1.8362,-1.9054,-1.9213,-1.9213,-1.9292,-1.9292,-1.9292,-1.9292,-1.9292,-1.9292,-1.9292,-1.9292,-1.9292,-1.9292,-1.9292,-1.9292,-1.9292,-1.9292,-1.9292,-1.9301,-1.9301,-1.9381,0.3086,0.2686,0.2686,0.3159,0.3866,0.3613,0.3361,0.3315,0.3672,0.3867,0.3794,0.3887,0.3354,0.2059,0.2022,0.2034,0.2037,0.2036,0.2035,0.0,0.1175,0.0,0.0,0.0,0.0,0.0,0.0,0.0,0.0,0.0,0.0,0.0,0.0,0.0,0.0,0.0,0.0,0.0,-0.3848,-0.423,-0.386,-0.4308,-0.5484,-0.5652,-0.5654,-0.5752,-0.5749,-0.5746,-0.5741,-0.5735,-0.5733,-0.5733,-0.5733,-0.5822,-0.5997,-0.6086,-0.6083,-0.6171,-0.6346,-0.6523,-0.6704,-0.6792,-0.6881,-0.7054,-0.7143,-0.7139,-0.8285,-0.892,-0.9616,-1.0477,-1.1197,-1.1783,-1.2014,-1.2839,-1.329,-1.3495,-1.3725,-1.3591,-1.3495,-1.3465,-1.3501,-1.3762,-1.3872,-1.405,-1.4403,-1.508,-1.5477,-1.5963,-1.6371,-1.6703,-1.7052,-1.7211,-1.7368,-1.8193,-1.8975,-1.9054,-1.9054,-1.9213,-1.9134,-1.8886,-1.8886,-1.9292,-1.9292,-1.9292,-1.9292,-1.9292,-1.9292,-1.9292,-1.9292,-1.9292,-1.9292,-1.9292,-1.9301,-1.946,-1.9539]}]]